[[{"header":{"parameterUnit":"m.s-1","parameterCategory":1,"la1":30.6,"la2":29.2853,"lo1":-89.7004,"lo2":-87.6739,"dx":0.0162,"dy":0.0183,"nx":112,"ny":82,"refTime":"2023-02-06T06:00:00:Z","depth":0,"parameterNumber":2,"parameterNumberName":"U-component_of_WINDS"},"data":[0.0,0.0,0.0,0.0,0.0,0.0,0.0,0.0,0.0,0.0,0.0,0.0,0.0,0.0,0.0,0.0,0.0,0.0,0.0,0.0,0.0,0.0,0.0,0.0,0.0,0.0,0.0,0.0,0.0,0.0,0.0,0.0,0.0,0.0,0.0,0.0,0.0,0.0,0.0,0.0,0.0,0.0,0.0,0.0,0.0,0.0,0.0,0.0,0.0,0.0,0.0,0.0,0.0,0.0,0.0,0.0,0.0,0.0,0.0,0.0,0.0,0.0,0.0,0.0,0.0,0.0,0.0,0.0,0.0,0.0,0.0,0.0,0.0,0.0,0.0,0.0,0.0,0.0,0.0,0.0,0.0,0.0,0.0,0.0,0.0,0.0,0.0,0.0,0.0,0.0,-1.2931,-1.446,-1.4706,-1.4588,-1.4213,-1.3723,-1.3034,-1.2143,0.0,0.0,0.0,0.0,0.0,0.0,0.0,0.0,0.0,0.0,0.0,0.0,0.0,0.0,0.0,0.0,0.0,0.0,0.0,0.0,0.0,0.0,0.0,0.0,0.0,0.0,0.0,0.0,0.0,0.0,0.0,0.0,0.0,0.0,0.0,0.0,0.0,0.0,0.0,0.0,0.0,0.0,0.0,0.0,0.0,0.0,0.0,0.0,0.0,0.0,0.0,0.0,0.0,0.0,0.0,0.0,0.0,0.0,0.0,0.0,0.0,0.0,0.0,0.0,0.0,0.0,0.0,0.0,0.0,0.0,0.0,0.0,0.0,0.0,0.0,0.0,0.0,0.0,0.0,0.0,0.0,0.0,0.0,0.0,0.0,0.0,0.0,0.0,0.0,0.0,0.0,0.0,0.0,0.0,0.0,0.0,0.0,0.0,0.0,0.0,0.0,0.0,0.0,0.0,-1.4085,-1.5177,-1.501,-1.4656,-1.4061,-1.3432,-1.2768,-1.2127,0.0,0.0,0.0,0.0,0.0,0.0,0.0,0.0,0.0,0.0,0.0,0.0,0.0,0.0,0.0,0.0,0.0,0.0,0.0,0.0,0.0,0.0,0.0,0.0,0.0,0.0,0.0,0.0,0.0,0.0,0.0,0.0,0.0,0.0,0.0,0.0,0.0,0.0,0.0,0.0,0.0,0.0,0.0,0.0,0.0,0.0,0.0,0.0,0.0,0.0,0.0,0.0,0.0,0.0,0.0,0.0,0.0,0.0,0.0,0.0,0.0,0.0,0.0,0.0,0.0,0.0,0.0,0.0,0.0,0.0,0.0,0.0,0.0,0.0,0.0,0.0,0.0,0.0,0.0,0.0,0.0,0.0,0.0,0.0,0.0,0.0,0.0,0.0,0.0,0.0,0.0,0.0,0.0,0.0,0.0,0.0,0.0,0.0,0.0,0.0,0.0,0.0,0.0,-1.4154,-1.5118,-1.5604,-1.5594,-1.5177,-1.4172,-1.3734,-1.313,-1.2182,-1.2976,0.0,0.0,0.0,0.0,0.0,0.0,0.0,0.0,0.0,0.0,0.0,0.0,0.0,0.0,0.0,0.0,0.0,0.0,0.0,0.0,0.0,0.0,0.0,0.0,0.0,0.0,0.0,0.0,0.0,0.0,0.0,0.0,0.0,0.0,0.0,0.0,0.0,0.0,0.0,0.0,0.0,0.0,0.0,0.0,0.0,0.0,0.0,0.0,0.0,0.0,0.0,0.0,0.0,0.0,0.0,0.0,0.0,0.0,0.0,0.0,0.0,0.0,0.0,0.0,0.0,0.0,0.0,0.0,0.0,0.0,0.0,0.0,0.0,0.0,0.0,0.0,0.0,0.0,0.0,0.0,0.0,0.0,0.0,0.0,0.0,0.0,0.0,0.0,0.0,0.0,0.0,0.0,0.0,0.0,0.0,0.0,0.0,0.0,0.0,0.0,0.0,0.0,-1.5069,-1.5672,-1.5788,-1.571,-1.5216,-1.4154,-1.3734,-1.307,-1.2182,-1.2699,0.0,0.0,0.0,0.0,0.0,0.0,0.0,0.0,0.0,0.0,0.0,0.0,0.0,0.0,0.0,0.0,0.0,0.0,0.0,0.0,0.0,0.0,0.0,0.0,0.0,0.0,0.0,0.0,0.0,0.0,0.0,0.0,0.0,0.0,0.0,0.0,0.0,0.0,0.0,0.0,0.0,0.0,0.0,0.0,0.0,0.0,0.0,0.0,0.0,0.0,0.0,0.0,0.0,0.0,0.0,0.0,0.0,0.0,0.0,0.0,0.0,0.0,0.0,0.0,0.0,0.0,0.0,0.0,0.0,0.0,0.0,0.0,0.0,0.0,0.0,0.0,0.0,0.0,0.0,0.0,0.0,0.0,0.0,0.0,0.0,0.0,0.0,0.0,0.0,0.0,0.0,0.0,0.0,0.0,0.0,0.0,0.0,0.0,0.0,0.0,0.0,0.0,-1.5245,-1.541,-1.541,-1.4688,-1.4034,-1.3743,-1.2658,-1.1988,-1.2058,-1.2699,0.0,0.0,0.0,0.0,0.0,0.0,0.0,0.0,0.0,0.0,0.0,0.0,0.0,0.0,0.0,0.0,0.0,0.0,0.0,0.0,0.0,0.0,0.0,0.0,0.0,0.0,0.0,0.0,0.0,0.0,0.0,0.0,0.0,0.0,0.0,0.0,0.0,0.0,0.0,0.0,0.0,0.0,0.0,0.0,0.0,0.0,0.0,0.0,0.0,0.0,0.0,0.0,0.0,0.0,0.0,0.0,0.0,0.0,0.0,0.0,0.0,0.0,0.0,0.0,0.0,0.0,0.0,0.0,0.0,0.0,0.0,0.0,0.0,0.0,0.0,0.0,0.0,0.0,0.0,0.0,0.0,0.0,0.0,0.0,0.0,0.0,0.0,0.0,0.0,0.0,0.0,0.0,0.0,0.0,0.0,0.0,0.0,0.0,0.0,0.0,0.0,0.0,-1.5245,-1.5478,-1.5546,-1.4991,-1.4323,-1.3726,-1.2948,-1.229,-1.1934,0.0,0.0,0.0,0.0,0.0,0.0,0.0,0.0,0.0,0.0,0.0,0.0,0.0,0.0,0.0,0.0,0.0,0.0,0.0,0.0,0.0,0.0,0.0,0.0,0.0,0.0,0.0,0.0,0.0,0.0,0.0,0.0,0.0,0.0,0.0,0.0,0.0,0.0,0.0,0.0,0.0,0.0,0.0,0.0,0.0,0.0,0.0,0.0,0.0,0.0,0.0,0.0,0.0,0.0,0.0,0.0,0.0,0.0,0.0,0.0,0.0,0.0,0.0,0.0,0.0,0.0,0.0,0.0,0.0,0.0,0.0,0.0,0.0,0.0,0.0,0.0,0.0,0.0,0.0,0.0,0.0,0.0,0.0,0.0,0.0,0.0,0.0,0.0,0.0,0.0,0.0,0.0,0.0,0.0,0.0,0.0,0.0,0.0,0.0,0.0,0.0,0.0,-1.4911,-1.4951,-1.5069,-1.5313,-1.4619,-1.3948,-1.3347,-1.2765,-1.2228,-1.1802,0.0,0.0,0.0,0.0,0.0,0.0,0.0,0.0,0.0,0.0,0.0,0.0,0.0,0.0,0.0,0.0,0.0,0.0,0.0,0.0,0.0,0.0,0.0,0.0,0.0,0.0,0.0,0.0,0.0,0.0,0.0,0.0,0.0,0.0,0.0,0.0,0.0,0.0,0.0,0.0,0.0,0.0,0.0,0.0,0.0,0.0,0.0,0.0,0.0,0.0,0.0,0.0,0.0,0.0,0.0,0.0,0.0,0.0,0.0,0.0,0.0,0.0,0.0,0.0,0.0,0.0,0.0,0.0,0.0,0.0,0.0,0.0,0.0,0.0,0.0,0.0,0.0,0.0,0.0,0.0,0.0,0.0,0.0,0.0,0.0,0.0,0.0,0.0,0.0,0.0,0.0,0.0,0.0,0.0,0.0,0.0,0.0,0.0,0.0,0.0,0.0,0.0,-1.4852,-1.4369,-1.413,-1.4469,-1.3304,-1.2512,-1.2512,-1.1981,-1.1685,0.0,0.0,0.0,0.0,0.0,0.0,0.0,0.0,0.0,0.0,0.0,0.0,0.0,0.0,0.0,0.0,0.0,0.0,0.0,0.0,0.0,0.0,0.0,0.0,0.0,0.0,0.0,0.0,0.0,0.0,0.0,0.0,0.0,0.0,0.0,0.0,0.0,0.0,0.0,0.0,0.0,0.0,0.0,0.0,0.0,0.0,0.0,0.0,0.0,0.0,0.0,0.0,0.0,0.0,0.0,0.0,0.0,0.0,0.0,0.0,0.0,0.0,0.0,0.0,0.0,0.0,0.0,0.0,0.0,0.0,0.0,0.0,0.0,0.0,0.0,0.0,0.0,0.0,0.0,0.0,0.0,0.0,0.0,0.0,0.0,0.0,0.0,0.0,0.0,0.0,0.0,0.0,0.0,0.0,0.0,0.0,0.0,0.0,0.0,0.0,0.0,0.0,0.0,-1.3494,-1.3442,-1.3442,-1.3752,-1.3,-1.2512,-1.2512,-1.1981,-1.1622,-1.1685,0.0,0.0,0.0,0.0,0.0,0.0,0.0,0.0,0.0,0.0,0.0,0.0,0.0,0.0,0.0,0.0,0.0,0.0,0.0,0.0,0.0,0.0,0.0,0.0,0.0,0.0,0.0,0.0,0.0,0.0,0.0,0.0,0.0,0.0,0.0,0.0,0.0,0.0,0.0,0.0,0.0,0.0,0.0,0.0,0.0,0.0,0.0,0.0,0.0,0.0,0.0,0.0,0.0,0.0,0.0,0.0,0.0,0.0,0.0,0.0,0.0,0.0,0.0,0.0,0.0,0.0,0.0,0.0,0.0,0.0,0.0,0.0,0.0,0.0,0.0,0.0,0.0,0.0,0.0,0.0,0.0,0.0,0.0,0.0,0.0,0.0,0.0,0.0,0.0,0.0,0.0,0.0,0.0,0.0,0.0,0.0,0.0,0.0,0.0,0.0,0.0,0.0,-1.2826,-1.2704,-1.2712,-1.3009,-1.2458,-1.2158,-1.2158,-1.1802,-1.1681,-1.1743,0.0,0.0,0.0,0.0,0.0,0.0,0.0,0.0,0.0,0.0,0.0,0.0,0.0,0.0,0.0,0.0,0.0,0.0,0.0,0.0,0.0,0.0,0.0,0.0,0.0,0.0,0.0,0.0,0.0,0.0,0.0,0.0,0.0,0.0,0.0,0.0,0.0,0.0,0.0,0.0,0.0,0.0,0.0,0.0,0.0,0.0,0.0,0.0,0.0,0.0,0.0,0.0,0.0,0.0,0.0,0.0,0.0,0.0,0.0,0.0,0.0,0.0,0.0,0.0,0.0,0.0,0.0,0.0,0.0,0.0,0.0,0.0,0.0,0.0,0.0,0.0,0.0,0.0,0.0,0.0,0.0,0.0,0.0,0.0,0.0,0.0,0.0,0.0,0.0,0.0,0.0,0.0,0.0,0.0,0.0,0.0,0.0,0.0,0.0,0.0,0.0,0.0,-1.252,-1.2166,-1.1981,-1.2151,-1.1794,-1.156,-1.156,-1.156,-1.1699,-1.1949,0.0,0.0,0.0,0.0,0.0,0.0,0.0,0.0,0.0,0.0,0.0,0.0,0.0,0.0,0.0,0.0,0.0,0.0,0.0,0.0,0.0,0.0,0.0,0.0,0.0,0.0,0.0,0.0,0.0,0.0,0.0,0.0,0.0,0.0,0.0,0.0,0.0,0.0,0.0,0.0,0.0,0.0,0.0,0.0,0.0,0.0,0.0,0.0,0.0,0.0,0.0,0.0,0.0,0.0,0.0,0.0,0.0,0.0,0.0,0.0,-1.0982,-1.1558,0.0,0.0,0.0,0.0,0.0,0.0,0.0,0.0,0.0,0.0,0.0,0.0,0.0,0.0,0.0,0.0,0.0,0.0,0.0,0.0,0.0,0.0,0.0,0.0,0.0,0.0,0.0,0.0,0.0,0.0,0.0,0.0,0.0,0.0,0.0,0.0,0.0,0.0,0.0,0.0,-1.1178,-1.1115,-1.1115,-1.1303,-1.1247,-1.1247,-1.1365,-1.1365,-1.1565,-1.1949,-1.1047,0.0,0.0,0.0,0.0,0.0,0.0,0.0,0.0,0.0,0.0,0.0,0.0,0.0,0.0,0.0,0.0,0.0,0.0,0.0,0.0,0.0,0.0,0.0,0.0,0.0,0.0,0.0,0.0,0.0,0.0,0.0,0.0,0.0,0.0,0.0,0.0,0.0,0.0,0.0,0.0,0.0,0.0,0.0,0.0,0.0,0.0,0.0,0.0,0.0,0.0,0.0,0.0,0.0,0.0,0.0,0.0,0.0,0.0,0.0,-1.1538,-1.1848,0.0,0.0,0.0,0.0,0.0,0.0,0.0,0.0,0.0,0.0,0.0,0.0,0.0,0.0,0.0,0.0,0.0,0.0,0.0,0.0,0.0,0.0,0.0,0.0,0.0,0.0,0.0,0.0,0.0,0.0,0.0,0.0,0.0,0.0,0.0,0.0,0.0,0.0,0.0,0.0,-1.0681,-1.0744,-1.087,-1.0933,-1.1059,-1.1122,-1.131,-1.1303,-1.1369,-1.1629,-1.1051,0.0,0.0,0.0,0.0,0.0,0.0,0.0,0.0,0.0,0.0,0.0,0.0,0.0,0.0,0.0,0.0,0.0,0.0,0.0,0.0,0.0,0.0,0.0,0.0,0.0,0.0,0.0,0.0,0.0,0.0,0.0,0.0,0.0,0.0,0.0,0.0,0.0,0.0,0.0,0.0,0.0,0.0,0.0,0.0,0.0,0.0,0.0,0.0,0.0,0.0,0.0,0.0,0.0,-1.1178,-1.1365,-1.1358,-1.1903,-1.1841,-1.1365,-1.1964,-1.2112,-1.1941,-1.293,0.0,0.0,0.0,0.0,0.0,0.0,0.0,0.0,0.0,0.0,0.0,0.0,0.0,0.0,0.0,0.0,0.0,0.0,0.0,0.0,0.0,0.0,-1.2876,-1.3145,-1.2238,-1.1411,-1.2136,0.0,0.0,0.0,0.0,0.0,0.0,0.0,0.0,0.0,0.0,0.0,-1.0624,-1.0681,-1.0744,-1.0744,-1.0933,-1.1059,-1.124,-1.1178,-1.1111,-1.1308,-1.1067,-1.0762,0.0,0.0,0.0,0.0,0.0,0.0,0.0,0.0,0.0,0.0,0.0,0.0,0.0,0.0,0.0,0.0,0.0,0.0,0.0,0.0,0.0,0.0,0.0,0.0,0.0,0.0,0.0,0.0,0.0,0.0,0.0,0.0,-0.547,-0.8596,0.0,0.0,0.0,0.0,0.0,0.0,0.0,0.0,0.0,0.0,0.0,0.0,0.0,-1.0933,-1.1358,-1.087,-1.087,-1.1365,-1.0933,-1.0751,-1.0751,-1.0807,-1.0807,-1.0758,-1.1081,0.0,-1.246,-1.2242,0.0,0.0,0.0,0.0,0.0,0.0,0.0,0.0,0.0,0.0,0.0,0.0,0.0,0.0,0.0,0.0,0.0,0.0,0.0,0.0,0.0,0.0,-1.2065,-1.1511,-1.105,-1.0739,-1.0866,-1.0934,-1.1042,-1.1127,-1.0853,-1.0665,0.0,0.0,0.0,0.0,0.0,0.0,-1.0624,-1.0624,-1.0624,-1.0624,-1.0624,-1.0807,-1.1122,-1.0534,-1.0523,-1.124,-1.0095,-0.9696,-1.0496,-1.0218,0.0,0.0,0.0,0.0,0.0,0.0,0.0,0.0,0.0,0.0,0.0,0.0,0.0,0.0,0.0,0.0,0.0,0.0,0.0,0.0,0.0,0.0,0.0,0.0,0.0,0.0,0.0,0.0,0.0,-0.4629,-0.6078,-0.9142,-0.9515,-0.9479,0.0,0.0,0.0,0.0,0.0,0.0,0.0,0.0,0.0,-1.0996,-1.1052,-1.1052,-1.0989,-1.0744,-1.087,-1.1483,-1.087,-1.0807,-1.1115,-1.0744,-1.0648,-1.0822,-1.1109,-1.1608,-1.2165,-1.1952,-1.2462,-1.3237,0.0,0.0,0.0,0.0,-1.2305,-1.2305,-1.2305,-1.2305,-1.2305,-1.2305,0.0,0.0,0.0,0.0,0.0,0.0,0.0,-1.3074,-1.2151,-1.1969,-1.1905,-1.0975,-1.0719,-1.0624,-1.0624,-1.0661,-1.0877,-1.1191,-1.0896,-1.0681,-1.1052,-1.0807,0.0,0.0,0.0,-1.0624,-1.0624,-1.0624,-1.0624,-1.0624,-1.0624,-1.0555,-1.0351,-1.0148,-1.0003,-0.9933,-0.9405,-0.9195,-0.9513,-0.9765,-0.9992,0.0,0.0,0.0,0.0,0.0,0.0,0.0,0.0,0.0,0.0,0.0,0.0,0.0,0.0,0.0,0.0,0.0,0.0,0.0,0.0,0.0,0.0,0.0,0.0,0.0,0.0,0.0,0.0,-0.6074,-0.7182,-0.9274,-0.9514,-0.9817,0.0,0.0,0.0,0.0,0.0,0.0,-1.1262,-1.1553,-1.1483,-1.087,-1.1303,-1.124,-1.0624,-1.0744,-1.0996,-1.1233,-1.0807,-1.0807,-1.124,-1.0807,-1.0722,-1.1009,-1.1296,-1.1597,-1.1877,-1.1951,-1.2249,-1.2592,-1.2378,-1.2445,-1.2592,-1.2378,-1.2305,-1.2305,-1.2305,-1.2305,-1.2305,-1.2305,-1.2251,-1.2191,-1.2191,0.0,0.0,0.0,0.0,-1.1995,-1.1181,-1.1386,-1.1518,-1.0798,-1.0624,-1.0624,-1.0624,-1.0624,-1.0744,-1.1178,-1.0933,-1.0744,-1.1178,-1.087,0.0,-1.0624,-1.0624,-1.0624,-1.0624,-1.0428,-1.0301,-1.0301,-1.0168,-0.9907,-0.9576,-0.9512,-0.9348,-0.8899,-0.885,-0.8769,-0.8685,-0.9463,-0.9922,-0.9922,0.0,0.0,0.0,0.0,0.0,0.0,0.0,0.0,0.0,0.0,0.0,0.0,0.0,0.0,0.0,0.0,0.0,0.0,0.0,0.0,0.0,0.0,0.0,0.0,0.0,0.0,0.0,0.0,0.0,-0.9456,-0.9496,0.0,0.0,0.0,0.0,-1.2514,-1.3561,-1.397,-1.3116,-1.2674,-1.2151,-1.1483,-1.1483,-1.124,-1.0624,-1.1178,-1.1178,-1.0624,-1.0624,-1.0624,-1.0624,-1.0624,-1.0722,-1.1009,-1.1296,-1.1597,-1.1891,-1.2164,-1.2725,-1.339,-1.2592,-1.2739,-1.3317,-1.2592,-1.2305,-1.2305,-1.2305,-1.2305,-1.2305,-1.2305,-1.2118,-1.1891,-1.1891,-1.1683,0.0,0.0,-1.1236,-1.1075,-1.0995,-1.0853,-1.0638,-1.0631,-1.0624,-1.0624,-1.0624,-1.0624,-1.0624,-1.0624,-1.0624,-1.0624,-1.0624,0.0,-1.0624,-1.0624,-1.0624,-1.0624,-1.0624,-0.9977,-0.9582,-0.9582,-0.9005,-0.8613,-0.8737,-0.8366,-0.8307,-0.8899,-0.8433,-0.8336,-0.8685,-0.9463,-0.9922,-0.9922,-1.068,0.0,0.0,0.0,0.0,0.0,0.0,0.0,0.0,0.0,0.0,0.0,0.0,0.0,0.0,0.0,0.0,0.0,0.0,0.0,0.0,0.0,0.0,0.0,0.0,0.0,0.0,0.0,0.0,-0.9496,-0.9484,0.0,-1.1814,-1.3517,-1.3814,-1.2228,-1.3055,-1.3422,-1.2797,-1.2589,-1.2389,-1.2143,-1.1725,-1.1428,-1.1178,-1.0996,-1.1094,-1.1482,-1.103,-1.1197,-1.1772,-1.1118,-1.1102,-1.155,-1.1463,-1.1703,-1.2151,-1.2258,-1.2445,-1.2739,-1.2445,-1.2445,-1.2666,-1.2378,-1.2305,-1.2305,-1.2305,-1.2305,-1.2271,-1.2084,-1.1951,-1.183,-1.1637,-1.1383,-1.1149,-1.1149,-1.0942,-1.0715,-1.0715,-1.0698,-1.0624,-1.0624,-1.0624,-1.0624,-1.0624,-1.0624,-1.0624,-1.0624,-1.0624,-1.0624,-1.0624,-1.0624,-1.0624,-1.0624,-1.0624,-1.0428,-0.9977,-0.9652,-0.9326,-0.8877,-0.8619,-0.8361,-0.7972,-0.7842,-0.7903,-0.8061,-0.7943,-0.8124,-0.8685,-0.9241,-0.962,-0.9922,-1.0443,-1.0948,0.0,0.0,0.0,0.0,0.0,0.0,0.0,0.0,0.0,0.0,0.0,0.0,0.0,0.0,0.0,0.0,0.0,0.0,0.0,0.0,0.0,0.0,0.0,0.0,0.0,-0.9515,-0.9526,-0.9478,-0.9478,-0.9874,-1.0721,-1.2453,-1.3056,-1.2096,-1.283,-1.3058,-1.2512,-1.2512,-1.2389,-1.2151,-1.1725,-1.1471,-1.1333,-1.1149,-1.1302,-1.18,-1.1336,-1.1438,-1.2023,-1.1424,-1.1349,-1.1717,-1.1617,-1.1797,-1.2164,-1.2184,-1.2224,-1.2224,-1.2305,-1.2305,-1.2305,-1.2305,-1.2305,-1.2285,-1.2191,-1.2158,-1.2104,-1.1817,-1.165,-1.1536,-1.1343,-1.1076,-1.0848,-1.0848,-1.0708,-1.0624,-1.0624,-1.0624,-1.0624,-1.0624,-1.0624,-1.0624,-1.0624,-1.0624,-1.0624,-1.0624,-1.0624,-1.0624,-1.0624,-1.0624,-1.0624,-1.0624,-1.0364,-1.004,-0.9582,-0.9134,-0.8683,-0.8231,-0.7972,-0.7587,-0.7199,-0.726,-0.7435,-0.7575,-0.7735,-0.8052,-0.8685,-0.9089,-0.9473,-0.9916,-1.0438,-1.1023,-1.1611,0.0,0.0,0.0,0.0,0.0,0.0,0.0,0.0,0.0,0.0,0.0,0.0,0.0,0.0,0.0,0.0,0.0,0.0,0.0,0.0,0.0,0.0,0.0,-0.9083,-0.945,-0.952,-0.953,-0.9472,-0.9919,-1.1038,-1.138,-1.1692,-1.2212,-1.3009,-1.3199,-1.2512,-1.2512,-1.2212,-1.1545,-1.1498,-1.1333,-1.1055,-1.1652,-1.1808,-1.1443,-1.1443,-1.1443,-1.145,-1.1443,-1.1443,-1.147,-1.1737,-1.1864,-1.1891,-1.1952,-1.199,-1.199,-1.2224,-1.2298,-1.2298,-1.2305,-1.2224,-1.2245,-1.1957,-1.1857,-1.1804,-1.151,-1.1223,-1.0995,-1.0982,-1.0782,-1.0624,-1.0624,-1.0624,-1.0624,-1.0624,-1.0624,-1.0624,-1.0624,-1.0624,-1.0624,-1.0624,-1.0624,-1.0561,-1.0561,-1.0561,-1.0624,-1.0624,-1.0624,-1.0561,-1.0561,-0.9977,0.0,-0.9454,-0.8296,-0.7521,-0.7456,-0.6806,-0.642,-0.642,-0.6613,-0.6974,-0.7575,-0.7735,-0.8052,-0.8685,-0.9089,-0.9473,-0.9916,-1.0663,-1.1332,-1.1927,0.0,0.0,0.0,0.0,0.0,0.0,0.0,0.0,0.0,0.0,0.0,0.0,0.0,0.0,0.0,0.0,0.0,0.0,0.0,0.0,0.0,-0.5428,-0.6024,-0.7746,-0.8842,-0.9509,-0.9484,-0.9478,-0.9676,-1.018,-1.0793,-1.1288,-1.1545,-1.2336,-1.2696,-1.2512,-1.2512,-1.2451,-1.2205,-1.1963,-1.1811,-1.171,-1.1597,-1.1655,-1.175,-1.175,-1.1857,-1.2051,-1.1844,-1.1786,-1.1821,-1.1486,-1.139,-1.1443,-1.1448,-1.148,-1.1499,-1.1924,-1.2077,-1.2003,-1.1558,-1.1285,-1.1153,-1.144,-1.155,-1.1503,-1.1209,-1.1056,-1.0955,-1.0742,-1.0692,-1.0624,-1.0624,-1.0624,-1.0624,-1.0624,-1.0624,-1.0624,-1.0624,-1.0624,-1.0624,-1.0624,-1.0624,-1.0428,-0.9907,-1.0231,-1.0624,-1.0624,-1.0624,-1.0428,-0.9907,-0.9646,0.0,-0.8166,-0.7717,-0.7265,-0.6745,-0.6548,-0.642,-0.642,-0.6482,-0.6772,-0.7575,-0.7668,-0.7988,-0.8685,-0.878,-0.916,-0.9916,-1.0663,-1.1332,0.0,0.0,0.0,0.0,0.0,0.0,0.0,0.0,0.0,0.0,0.0,0.0,0.0,0.0,0.0,0.0,0.0,0.0,0.0,0.0,0.0,0.0,-0.5428,-0.5752,-0.6859,-0.8093,-0.8967,-0.9092,-0.935,-0.959,-0.99,-1.0341,-1.0768,-1.0967,-1.1745,-1.217,-1.217,-1.2103,-1.215,-1.2296,-1.1797,-1.1706,-1.1967,-1.173,-1.1686,-1.1979,-1.1979,-1.1992,-1.207,-1.1906,-1.1788,-1.1661,-1.141,-1.1224,-1.1121,-1.1051,-1.0839,0.0,0.0,0.0,0.0,0.0,-1.0018,-0.993,-1.0087,-1.0134,-1.0091,-0.9832,-0.9741,-0.9717,-0.9566,-0.9779,-0.9983,-0.9652,-0.9843,-1.004,-0.9779,-0.9716,-0.9779,-1.004,-1.0168,-1.0231,-1.0561,-1.0624,-1.0364,-0.9646,-0.9843,0.0,-0.9779,-0.9977,-0.9977,-0.9582,-0.9005,-0.8361,-0.7587,-0.726,-0.6872,-0.642,-0.642,-0.642,-0.642,-0.642,0.0,0.0,0.0,-0.7843,-0.8304,-0.8466,0.0,0.0,0.0,-1.0808,-1.1587,-1.1587,0.0,0.0,-1.3121,-1.3553,0.0,0.0,0.0,0.0,0.0,0.0,0.0,0.0,0.0,0.0,0.0,0.0,0.0,0.0,0.0,0.0,-0.5442,-0.5649,-0.6234,-0.7259,-0.8134,-0.8468,-0.9085,-0.9598,-0.9892,-1.0117,-1.035,-1.0591,-1.1249,-1.1622,-1.1622,-1.1489,0.0,0.0,0.0,-1.1275,-1.1864,-1.1826,-1.19,-1.2003,-1.2003,-1.1855,-1.1706,-1.1706,-1.156,-1.1293,-1.1119,-1.0949,-1.0623,-1.0416,-0.9863,-0.9329,-0.985,-1.009,-0.9912,-0.9087,-0.8718,-0.8618,-0.8393,0.0,0.0,-0.8088,-0.8027,-0.8027,-0.8027,-0.8549,-0.9011,-0.8366,-0.8748,-0.9262,-0.8619,-0.849,-0.8619,-0.9262,-0.939,-0.9582,-1.0238,-1.0364,-1.0168,-0.939,-0.9326,-0.9198,-0.849,-0.8941,-0.939,-0.9262,-0.8231,-0.7456,-0.7391,-0.6811,-0.642,-0.642,0.0,0.0,-0.642,-0.642,-0.6705,-0.7358,-0.7423,-0.7522,-0.777,-0.8156,-0.8456,-0.8846,-0.9296,-0.9976,-1.0962,-1.0962,-1.1262,-1.1862,-1.2772,-1.3335,0.0,0.0,0.0,0.0,0.0,0.0,0.0,0.0,0.0,0.0,0.0,0.0,0.0,0.0,0.0,-0.5428,-0.5464,-0.5614,-0.5747,-0.6549,-0.755,-0.8657,-0.9015,-0.9433,-1.0179,-1.0392,-1.0617,-1.0811,-1.0891,-1.1064,-1.12,-1.1012,-1.0937,-1.1064,-1.1153,-1.1327,-1.1436,-1.1661,-1.1729,-1.1781,0.0,0.0,-1.1706,-1.1706,-1.1481,-1.0994,-1.0284,-0.9691,-0.9248,-0.8633,-0.7957,-0.7436,-0.8464,-0.8548,-0.8179,-0.8368,-0.8084,-0.7587,-0.7971,-0.8088,-0.8083,-0.8042,-0.8027,-0.8027,-0.8102,-0.8291,0.0,-0.8231,-0.8425,-0.8619,-0.8361,-0.8361,-0.8554,-0.8683,-0.8683,-0.8748,-0.8877,-0.8877,-0.8683,-0.8037,-0.8296,-0.849,-0.7782,-0.8231,-0.849,-0.7972,-0.7652,-0.7265,-0.6679,-0.6486,-0.642,-0.642,-0.642,-0.642,-0.642,-0.642,-0.6364,-0.6347,-0.6396,-0.687,-0.7778,-0.7698,-0.7774,-0.8012,-0.8461,-0.9145,-1.0143,-1.0143,-1.065,-1.1617,-1.2178,-1.28,0.0,0.0,0.0,0.0,0.0,0.0,0.0,0.0,0.0,0.0,0.0,-0.2882,0.0,0.0,-0.5064,-0.5406,-0.5599,-0.5694,-0.5694,-0.6111,-0.6797,-0.7804,-0.8289,-0.8674,-0.9214,-0.9729,-1.0147,-1.0353,-1.0301,-1.0367,-1.0431,-0.988,-0.9653,-0.9777,-0.9979,-1.0327,-1.09,-1.1033,-1.1248,-1.1558,-1.1111,-1.0887,-1.0812,-1.0357,-0.9994,-0.9685,-0.9095,-0.8646,-0.8285,-0.744,-0.6869,-0.6617,-0.6839,-0.674,-0.6527,-0.6768,-0.6672,-0.6329,-0.6634,-0.6728,-0.6728,-0.6728,-0.6728,-0.6728,-0.6798,-0.7116,-0.7367,-0.6985,-0.7316,-0.7577,-0.7195,-0.7129,-0.7256,-0.7642,-0.7707,-0.7837,-0.8231,-0.8361,-0.8166,-0.7587,-0.7782,-0.7777,-0.7068,-0.7195,-0.7456,-0.7521,-0.7199,-0.6811,-0.642,-0.642,-0.642,-0.642,-0.642,-0.6284,-0.5947,-0.5759,-0.5594,-0.5517,-0.596,-0.6314,-0.6542,-0.6623,-0.6853,-0.7161,-0.731,-0.7995,-0.915,-0.9528,-0.99,-1.01,-1.1366,-1.2265,0.0,0.0,0.0,0.0,0.0,0.0,0.0,0.0,-0.1279,-0.1825,-0.203,-0.2506,-0.3673,-0.4092,-0.4504,-0.5281,-0.5535,-0.5627,-0.5844,-0.5976,-0.625,-0.6707,-0.7407,-0.7965,-0.8346,-0.8955,-0.9479,-0.9674,-0.9654,-0.961,-0.961,-0.8918,-0.8538,-0.8783,-0.8793,-0.9247,-1.0115,-1.0115,-1.0421,-1.0881,-1.0212,-0.9841,-0.9614,-0.9008,-0.8562,-0.8384,-0.799,-0.7605,-0.7337,-0.658,-0.6273,-0.6238,-0.5713,-0.5447,-0.544,-0.5449,-0.5428,-0.5428,-0.5428,-0.5428,-0.5428,-0.5428,-0.5428,-0.5428,-0.5425,-0.5943,-0.6396,-0.5745,-0.6141,-0.6601,-0.6017,-0.5888,-0.602,-0.6601,-0.6732,-0.6929,-0.7582,-0.7782,-0.7652,-0.726,-0.7195,-0.7003,-0.6416,-0.6218,-0.6416,-0.7199,-0.6811,-0.635,-0.6218,-0.6218,-0.6148,-0.602,-0.6017,-0.5763,-0.5252,-0.4821,-0.4716,-0.4955,-0.5466,-0.5619,-0.5306,-0.5547,-0.5857,-0.6237,-0.6237,-0.685,-0.8075,-0.8836,-0.8993,-0.8703,-1.0264,-1.1496,0.1275,0.0738,0.0134,0.0134,-0.047,-0.1076,0.0,0.0,-0.1151,-0.118,-0.1742,-0.2244,-0.2369,-0.2963,-0.3689,-0.4557,-0.48,-0.5176,-0.5854,-0.6135,-0.6304,-0.6364,-0.7046,-0.7808,-0.8585,-0.8742,-0.8903,-0.9074,-0.8903,-0.8888,-0.911,-0.8793,-0.8713,-0.8737,-0.8737,-0.8751,-0.8927,-0.8927,-0.8927,-0.9003,-0.8927,-0.8856,-0.8856,-0.878,-0.8486,-0.8089,-0.7013,-0.6277,-0.5862,-0.5707,-0.5776,-0.5891,-0.5752,-0.5752,-0.5722,-0.5457,-0.5428,-0.5428,-0.5428,-0.5428,-0.5428,-0.5428,-0.5428,-0.5428,-0.5554,-0.5617,-0.5679,-0.5613,-0.5818,-0.5954,-0.5683,-0.5752,-0.5888,-0.602,-0.602,-0.602,-0.6152,-0.6152,-0.6152,-0.6086,-0.6086,-0.602,-0.5954,-0.5554,-0.5554,-0.6416,-0.6486,-0.6214,-0.5613,-0.5543,-0.5279,-0.4619,-0.4553,-0.4532,-0.4508,-0.4014,-0.4059,-0.4961,-0.4397,-0.446,-0.5229,-0.5162,-0.5168,-0.5395,-0.5395,-0.5935,-0.7092,-0.7314,-0.777,-0.8456,-0.8799,-0.9813,0.1475,0.114,0.0872,0.0872,0.0604,0.0202,-0.0274,-0.0344,-0.0486,-0.107,-0.1433,-0.1724,-0.2105,-0.2578,-0.3048,0.0,-0.4093,-0.4311,-0.4696,-0.4817,-0.4849,-0.4849,-0.5544,-0.6398,-0.7253,-0.771,-0.8016,-0.8089,-0.8016,-0.8016,-0.8089,-0.7633,-0.733,-0.733,-0.733,-0.7557,-0.8016,-0.8016,-0.8246,-0.8699,-0.8246,-0.8016,-0.8016,-0.7484,-0.7135,-0.6718,-0.6224,-0.588,-0.5596,-0.5681,-0.5749,-0.58,-0.5659,-0.5591,-0.5636,-0.5572,-0.5494,-0.5481,-0.5459,-0.5428,-0.5428,-0.5428,-0.5428,-0.5425,-0.5491,-0.5491,-0.5491,-0.5491,-0.5223,-0.502,-0.5422,-0.4888,-0.4417,-0.4888,-0.4619,-0.435,-0.4486,-0.4486,-0.4553,-0.4613,-0.4613,-0.4613,-0.4613,-0.4414,-0.4439,-0.4848,-0.5068,-0.5084,-0.4815,-0.4749,-0.4645,-0.4384,-0.404,-0.3836,-0.3867,-0.3283,-0.304,-0.354,-0.3738,-0.3995,-0.4382,-0.4779,-0.5015,-0.5093,-0.5093,-0.5401,-0.5938,-0.6546,-0.6853,-0.7007,-0.8003,-0.9005,0.2144,0.1942,0.1742,0.1676,0.1551,0.1228,0.0627,0.0352,0.0071,-0.0733,-0.1031,-0.1329,-0.1857,-0.2039,-0.2368,-0.313,-0.333,-0.3521,-0.3752,-0.383,-0.383,-0.383,-0.43,-0.5004,-0.5789,-0.6641,-0.7176,-0.7176,-0.7176,-0.7176,-0.7176,-0.6644,-0.6338,-0.6338,-0.6338,-0.6567,-0.7176,-0.7176,-0.7484,-0.8016,-0.7403,-0.7096,-0.7019,-0.6364,-0.5927,-0.5722,-0.5679,-0.5633,-0.5661,-0.5761,-0.5828,-0.5939,-0.5795,-0.5644,-0.5555,-0.5561,-0.5553,-0.5421,-0.5135,-0.5158,-0.5426,-0.5382,-0.5372,-0.5372,-0.5372,-0.5372,-0.5369,-0.5096,-0.4625,-0.4289,-0.4688,-0.402,-0.3349,-0.3885,-0.3616,-0.3215,-0.3418,-0.3439,-0.3457,-0.359,-0.361,-0.356,-0.356,-0.3492,-0.338,-0.3447,-0.3541,-0.3703,-0.3908,-0.3842,-0.3733,-0.3808,-0.3401,-0.311,-0.3167,-0.2738,-0.2463,-0.2507,-0.3215,-0.3686,-0.3763,-0.4467,-0.4859,-0.5018,-0.5018,-0.5093,-0.5246,-0.5854,-0.6009,-0.5864,-0.7084,-0.8108,0.4231,0.0,0.2882,0.2684,0.2054,0.1467,0.1191,0.0786,0.0367,-0.0,-0.0681,-0.1219,-0.1327,-0.1333,-0.1569,-0.243,-0.251,-0.2821,-0.3677,-0.383,-0.383,-0.383,-0.383,-0.4068,0.0,-0.5634,-0.6338,-0.6338,-0.6338,-0.6338,-0.6338,-0.6338,-0.6338,-0.6338,-0.6338,-0.6338,-0.6338,-0.6338,-0.6338,-0.6338,-0.6099,-0.5938,-0.5935,-0.5572,-0.5439,-0.551,-0.5301,-0.5472,-0.5761,-0.5764,-0.6,-0.6281,-0.6281,-0.596,-0.5625,-0.5575,-0.5436,-0.5072,-0.4302,-0.4619,-0.5378,-0.5376,-0.5393,-0.5393,-0.5393,-0.5393,-0.5189,-0.4231,-0.3961,-0.3825,-0.3351,-0.3215,-0.3215,-0.3215,-0.3215,-0.3215,-0.3215,-0.3285,-0.3279,-0.3279,-0.3278,-0.3334,-0.3334,-0.2902,-0.2542,-0.2543,-0.2109,-0.2108,-0.3043,-0.2688,-0.233,-0.2332,-0.2383,-0.2417,-0.2418,-0.2473,-0.2508,-0.2511,-0.2904,-0.3295,-0.3763,-0.4229,-0.4621,-0.5018,-0.5018,-0.5018,-0.5018,-0.5246,-0.5398,-0.5637,-0.5864,-0.6716,0.0,0.0,0.3623,0.3558,0.3428,0.3091,0.2429,0.2196,0.1877,0.1079,0.062,0.0311,-0.0078,-0.0157,-0.0471,-0.157,-0.1728,-0.1805,-0.2118,-0.2117,-0.2117,-0.2117,-0.2115,0.0,0.0,0.0,0.0,-0.6271,-0.6274,-0.6271,-0.6338,-0.6338,-0.618,-0.6022,-0.6022,-0.5944,-0.5873,-0.5873,-0.5873,-0.5873,-0.5873,-0.5796,-0.5721,-0.5597,-0.5536,-0.5538,-0.4339,-0.38,-0.3783,-0.3919,-0.4042,-0.4146,-0.4153,-0.4075,-0.3915,-0.3655,-0.4169,-0.4885,-0.357,-0.3333,-0.3628,-0.3595,-0.3608,-0.3623,-0.3623,-0.3418,-0.3149,-0.2811,-0.2815,-0.3032,-0.3223,-0.2551,-0.1941,-0.2397,-0.2196,-0.1844,-0.1844,-0.1857,-0.194,-0.194,-0.1881,-0.1892,-0.1892,-0.1748,-0.1612,-0.164,-0.1696,-0.1896,-0.2331,-0.222,-0.2244,-0.2316,-0.2444,-0.248,-0.248,-0.2499,-0.2511,-0.2511,-0.2904,-0.3295,-0.3763,-0.4151,-0.4621,-0.5018,-0.5018,-0.5018,-0.5018,-0.5093,-0.5168,-0.5401,-0.5634,-0.6352,0.0,0.5216,0.4755,0.4492,0.4483,0.4412,0.3475,0.336,0.3151,0.2186,0.188,0.1645,0.0941,0.0863,0.0471,-0.055,-0.0707,-0.0786,-0.1021,-0.1021,-0.1021,-0.1021,-0.102,-0.1098,0.0,0.0,0.0,-0.5087,-0.5883,-0.6281,-0.6274,-0.6274,-0.6193,-0.6032,-0.5873,-0.5718,-0.5565,-0.5565,-0.5569,-0.5572,-0.5093,-0.4698,-0.4467,-0.4467,-0.4828,-0.5313,-0.4285,-0.3027,-0.1761,-0.1943,-0.1955,-0.1955,-0.1957,-0.243,-0.3061,-0.2669,-0.354,-0.4704,-0.2847,-0.1968,-0.1721,-0.1705,-0.175,-0.1725,-0.1725,-0.1587,-0.138,-0.1656,-0.1865,-0.2014,-0.2259,-0.1703,-0.1284,-0.1741,-0.153,-0.1166,-0.1166,-0.1174,-0.1183,-0.1183,-0.1191,-0.1199,-0.1199,-0.1199,-0.1206,-0.1225,-0.1439,-0.1649,-0.1799,-0.1978,-0.2072,-0.2298,-0.2331,-0.2431,-0.2511,-0.2511,-0.2511,-0.2511,-0.2904,-0.3295,-0.3763,-0.4151,-0.4621,-0.5018,-0.5018,-0.5018,-0.5018,-0.5018,-0.5093,-0.5321,-0.5401,-0.5967,0.6465,0.6396,0.6203,0.5352,0.529,0.5209,0.4362,0.4237,0.407,0.3288,0.3054,0.274,0.0,0.0,0.149,0.0707,0.055,0.0314,-0.0314,-0.0471,-0.0471,0.0,0.0,0.0,0.0,0.0,0.0,-0.289,0.0,-0.6054,-0.6136,-0.6136,-0.6136,-0.6136,-0.5736,-0.5497,-0.5416,-0.5416,-0.55,-0.5511,-0.3923,-0.2898,-0.2347,-0.2347,-0.3214,-0.4729,-0.4729,-0.2907,-0.0,-0.0,-0.0,-0.0,-0.0,-0.1178,-0.2912,-0.2518,-0.3387,-0.4406,-0.2067,-0.0682,-0.0,-0.0,-0.0,-0.0,-0.0,-0.0,-0.0146,-0.0875,-0.1093,-0.1021,-0.0584,-0.0803,-0.1169,-0.117,-0.1171,-0.1171,-0.1171,-0.1194,-0.1214,-0.1214,-0.1237,-0.1335,-0.1335,-0.1335,-0.1335,-0.1335,-0.1257,-0.1335,-0.1572,-0.1729,-0.1963,-0.2196,-0.2196,-0.2275,-0.2431,-0.251,-0.251,-0.2431,-0.2826,-0.3295,-0.3763,-0.4151,-0.4621,-0.5018,-0.5018,-0.5018,-0.5018,-0.5018,-0.5093,-0.5321,-0.5321,-0.5623,0.719,0.6793,0.6334,0.6137,0.6165,0.6007,0.5057,0.5061,0.4971,0.4059,0.3917,0.3995,0.0,0.0,0.0,0.3374,0.2585,0.0,0.1722,0.1722,0.0,-0.0,0.0,-0.0784,-0.1257,-0.1335,0.0,0.0,-0.1331,-0.2268,-0.3832,-0.391,-0.3912,-0.3917,-0.3839,-0.3602,-0.3287,-0.3287,-0.3921,-0.5121,-0.4721,-0.3141,-0.0628,-0.0628,-0.0863,-0.1256,-0.1256,-0.0785,-0.0,-0.0,-0.0,-0.0,-0.0,-0.0314,-0.0786,-0.0707,-0.0943,-0.1178,-0.0546,-0.0154,-0.0,-0.0,-0.0,-0.0,-0.0,-0.0,-0.0073,-0.0219,-0.0656,-0.1025,-0.0597,-0.0375,-0.0377,-0.0691,-0.0771,-0.0848,-0.1234,-0.124,-0.1245,-0.1245,-0.1252,-0.1335,-0.1335,-0.1335,-0.1335,-0.1335,-0.0785,-0.0627,-0.1492,-0.165,-0.1806,-0.2196,-0.2196,-0.2117,-0.1882,-0.2275,-0.2275,-0.1882,-0.2668,-0.3295,-0.3763,-0.4151,-0.4621,-0.5018,-0.5018,-0.5018,-0.5018,-0.5018,-0.5015,-0.5093,-0.5243,-0.5497,0.7917,0.7657,0.7256,0.6929,0.694,0.6838,0.5958,0.5957,0.5962,0.5506,0.5231,0.5098,0.5154,0.4779,0.447,0.0,0.0,0.0,0.3604,0.3604,0.3212,0.0,0.133,0.0,0.0392,0.0392,0.0549,0.0,0.0392,-0.047,-0.1643,-0.1721,-0.1722,-0.1724,-0.1724,-0.1645,-0.141,-0.141,-0.1882,-0.2829,-0.2829,-0.1806,-0.0,-0.0,-0.0,-0.0,-0.0,0.0864,0.22,0.22,0.1726,0.1097,0.1097,0.1097,0.1097,0.1097,0.1097,0.1097,0.1097,0.1087,0.0998,0.0231,-0.0,0.0302,0.1733,0.2186,0.1884,0.0452,0.0226,0.0377,-0.0153,0.0384,0.1233,0.1721,0.1177,0.0392,0.0157,-0.0471,-0.1021,-0.1257,-0.1021,-0.0706,-0.0706,-0.0392,-0.0157,-0.0157,0.0235,0.0392,-0.0235,-0.0471,-0.0863,-0.1569,-0.1726,-0.1648,-0.1176,-0.1725,-0.1803,-0.1176,-0.2118,-0.2902,-0.3368,-0.3992,-0.4621,-0.5018,-0.5018,-0.5018,-0.5018,-0.5018,-0.5018,-0.5018,-0.5143,-0.5357,0.8576,0.8576,0.8441,0.7787,0.766,0.7532,0.6869,0.6794,0.6956,0.6984,0.6522,0.6061,0.6026,0.5455,0.4857,0.4784,0.0,0.4711,0.4951,0.5029,0.5029,0.5029,0.3682,0.2817,0.2818,0.2818,0.2818,0.2818,0.1489,0.0549,0.0314,0.0314,0.0314,0.0314,0.0314,0.0314,0.0314,0.0314,0.0314,0.0314,0.0314,0.0314,0.0314,0.0314,0.0314,0.0314,0.0314,0.1962,0.4646,0.4886,0.4164,0.2818,0.2818,0.2818,0.2818,0.2818,0.2818,0.2818,0.2818,0.2818,0.2584,0.0863,0.0314,0.0863,0.3773,0.4805,0.4406,0.1488,0.1565,0.2192,0.102,0.1567,0.2898,0.4565,0.3614,0.2273,0.2037,0.0862,-0.0314,-0.0785,-0.0314,0.0235,0.0157,0.0784,0.1332,0.1332,0.141,0.1411,0.1332,0.0862,0.0235,-0.0628,-0.1021,-0.0943,-0.055,-0.1098,-0.1176,-0.055,-0.1491,-0.2272,-0.2817,-0.3756,-0.4462,-0.5018,-0.5018,-0.5018,-0.5018,-0.5018,-0.5018,-0.5021,-0.5135,-0.5409,0.9022,0.8958,0.9022,0.8447,0.8348,0.8154,0.7378,0.7309,0.0,0.0,0.673,0.6916,0.6868,0.6384,0.5935,0.5935,0.5401,0.494,0.5021,0.5021,0.5021,0.0,0.4781,0.4548,0.4553,0.4555,0.0,0.0,0.4318,0.3528,0.2113,0.2035,0.2035,0.2035,0.2035,0.2035,0.2035,0.2035,0.2035,0.2035,0.2035,0.2035,0.2035,0.2035,0.2035,0.2035,0.2035,0.0,0.3056,0.4399,0.4794,0.4555,0.4555,0.4555,0.4555,0.4555,0.4555,0.4555,0.4555,0.4555,0.4316,0.2584,0.2035,0.2192,0.274,0.3923,0.4875,0.4318,0.3368,0.274,0.3845,0.3292,0.2896,0.4636,0.4716,0.4081,0.2662,0.2348,0.2036,0.1254,0.1254,0.1254,0.1097,0.1175,0.1332,0.1332,0.1882,0.2038,0.141,0.0862,0.047,0.0157,-0.0235,-0.0314,0.0079,-0.0393,-0.055,0.0079,-0.0863,-0.188,-0.2738,-0.3285,-0.3988,-0.5018,-0.5018,-0.5018,-0.5018,-0.5018,-0.5018,-0.5021,-0.5135,-0.5281,0.9894,0.9958,1.0021,0.9454,0.9204,0.904,0.8498,0.0,0.0,0.0,0.7495,0.741,0.7677,0.7119,0.0,0.6227,0.5857,0.5476,0.5096,0.5018,0.5018,0.5018,0.5018,0.5018,0.5023,0.5023,0.5023,0.5023,0.5023,0.4628,0.3841,0.3763,0.3763,0.3763,0.3763,0.3763,0.3763,0.3763,0.3763,0.3763,0.3763,0.3763,0.3763,0.3763,0.3763,0.3763,0.3763,0.3839,0.3837,0.4706,0.5023,0.5023,0.5023,0.5023,0.5023,0.5098,0.5098,0.5023,0.5098,0.5176,0.5018,0.4073,0.3839,0.3763,0.3837,0.4389,0.5023,0.5023,0.4389,0.3995,0.4792,0.4392,0.3995,0.4787,0.5023,0.4787,0.3999,0.329,0.274,0.2195,0.2116,0.2193,0.1959,0.2272,0.2585,0.2585,0.2901,0.3057,0.2665,0.2037,0.141,0.0862,0.0314,0.0236,0.0786,0.0236,0.0157,0.0786,-0.0,-0.0862,-0.1722,-0.2581,-0.3679,-0.494,-0.5018,-0.5018,-0.5018,-0.5018,-0.5018,-0.5021,-0.52,-0.5366,1.0829,1.0892,1.1017,1.0388,1.0085,0.9901,0.9709,0.9145,0.0,0.9009,0.8415,0.8005,0.8398,0.7879,0.7244,0.0,0.6678,0.6395,0.5705,0.5631,0.5631,0.0,0.5631,0.0,0.5631,0.5631,0.0,0.5553,0.5553,0.5404,0.5026,0.5029,0.5029,0.5029,0.5029,0.5029,0.5029,0.5029,0.5029,0.5029,0.5029,0.5029,0.5029,0.5029,0.5029,0.5029,0.5029,0.5023,0.5018,0.5018,0.5015,0.5093,0.5093,0.5171,0.5401,0.5398,0.5476,0.5631,0.5398,0.5628,0.578,0.5323,0.5098,0.5026,0.5018,0.5018,0.5018,0.5018,0.5018,0.5018,0.5026,0.5023,0.5018,0.5018,0.5018,0.5018,0.5026,0.4077,0.321,0.2979,0.2978,0.2976,0.2823,0.337,0.3763,0.3763,0.3763,0.3763,0.3763,0.3059,0.2275,0.1646,0.0942,0.0707,0.1257,0.0786,0.0707,0.1257,0.0786,0.0157,-0.0627,-0.1801,-0.313,-0.4621,-0.4859,-0.5018,-0.5018,-0.5018,-0.5029,-0.5059,-0.5271,-0.5382,1.1524,1.1454,1.1578,1.108,1.064,1.0514,1.0766,0.0,0.9344,0.9618,0.9228,0.8805,0.8978,0.869,0.8524,0.8626,0.8266,0.7846,0.7613,0.7532,0.7532,0.7532,0.0,0.0,0.7532,0.7532,0.746,0.731,0.7234,0.6626,0.5096,0.5018,0.5018,0.5018,0.5018,0.5018,0.5018,0.5018,0.5018,0.5018,0.5018,0.5018,0.5018,0.5018,0.5018,0.5018,0.5018,0.5018,0.0,0.5018,0.509,0.5243,0.5243,0.586,0.6633,0.5867,0.6553,0.7625,0.6096,0.6553,0.7625,0.6018,0.5401,0.5246,0.5093,0.5018,0.5018,0.5018,0.5018,0.5018,0.5018,0.5018,0.5018,0.5018,0.5018,0.5018,0.5018,0.4779,0.4465,0.4229,0.4075,0.3921,0.3684,0.3763,0.3763,0.3763,0.3763,0.3763,0.3763,0.3059,0.251,0.2431,0.1649,0.1257,0.1257,0.1257,0.1257,0.1257,0.1257,0.0706,-0.0313,-0.0783,-0.18,-0.3517,-0.454,-0.5018,-0.5018,-0.5018,-0.5069,-0.5173,-0.5306,-0.5428,1.3364,1.3252,1.313,1.2512,1.195,1.1578,1.1516,0.0,1.0332,1.0521,0.9982,0.9658,0.9814,0.9474,0.9017,0.8927,0.8749,0.0,0.8058,0.7999,0.7999,0.7999,0.7999,0.0,0.0,0.0,0.7923,0.7851,0.7851,0.7544,0.6934,0.6626,0.6472,0.6472,0.6472,0.6472,0.6472,0.6472,0.6472,0.6472,0.6472,0.6546,0.6696,0.6696,0.6777,0.6857,0.6857,0.6857,0.0,0.6857,0.6934,0.7007,0.7007,0.7242,0.7625,0.7391,0.7621,0.8003,0.7468,0.7698,0.8152,0.7395,0.7088,0.678,0.5553,0.5093,0.5018,0.5018,0.5018,0.5018,0.5018,0.5018,0.5018,0.5018,0.5018,0.5018,0.5018,0.4937,0.4779,0.4462,0.4307,0.4153,0.3841,0.3763,0.3763,0.3763,0.3763,0.3763,0.3763,0.3059,0.2511,0.2511,0.1805,0.1335,0.1335,0.1335,0.1335,0.1335,0.1335,0.11,0.0706,-0.0313,-0.1488,-0.3051,-0.4384,-0.5018,-0.5018,-0.5018,-0.5075,-0.5189,-0.5311,-0.5434,1.4715,1.4538,1.424,1.3692,1.326,1.2818,0.0,0.0,1.1454,1.1392,1.0829,1.0327,1.0334,1.0067,0.9655,0.9227,0.932,0.9243,0.8881,0.8878,0.8917,0.8917,0.0,0.8917,0.8917,0.8841,0.8841,0.8841,0.8841,0.8841,0.8841,0.8533,0.8152,0.7693,0.7693,0.7693,0.7693,0.7693,0.7693,0.7693,0.7693,0.777,0.7918,0.7918,0.7999,0.808,0.808,0.808,0.0,0.808,0.8156,0.8156,0.8156,0.8385,0.8618,0.8537,0.8689,0.8917,0.8613,0.8761,0.9064,0.8461,0.8385,0.8232,0.67,0.6012,0.5705,0.5705,0.5705,0.5705,0.5705,0.5705,0.5705,0.5705,0.5705,0.5705,0.5705,0.5709,0.5553,0.5079,0.5002,0.4771,0.4384,0.4307,0.4307,0.4307,0.4153,0.4075,0.4075,0.3137,0.2511,0.2511,0.1805,0.1335,0.1335,0.1335,0.1335,0.1335,0.1335,0.1335,0.1335,0.0314,-0.094,-0.2582,-0.4153,-0.5021,-0.5018,-0.505,-0.5127,-0.5243,-0.5366,-0.5741,1.501,1.4893,1.4775,1.4309,1.4359,1.4291,0.0,0.0,1.2451,1.2328,1.1578,1.0829,1.0401,1.0523,1.0533,0.994,1.0311,1.0575,1.0437,1.058,1.0738,0.0,0.0,1.0738,1.0738,1.0588,1.0519,1.0519,1.0519,0.0,1.0519,1.0443,0.9755,0.8156,0.808,0.808,0.808,0.808,0.808,0.808,0.808,0.808,0.808,0.808,0.808,0.808,0.808,0.808,0.0,0.808,0.8232,0.838,0.838,0.8993,0.9765,0.9008,0.9679,1.0807,0.9231,0.9755,1.0807,0.9231,0.9074,0.9442,0.8609,0.7923,0.7464,0.7464,0.7464,0.7464,0.7464,0.7464,0.7464,0.7464,0.7464,0.7464,0.7464,0.7314,0.7007,0.6542,0.6314,0.6086,0.5622,0.5544,0.5544,0.5544,0.5085,0.4701,0.4701,0.337,0.2511,0.2511,0.1805,0.1335,0.1335,0.1335,0.1335,0.1335,0.1335,0.1335,0.1335,0.1257,0.0235,-0.1876,-0.3921,-0.5026,-0.5018,-0.5129,-0.5249,-0.5371,-0.5491,-0.63,1.6228,1.5836,1.5439,1.5254,1.502,1.4715,1.4529,1.4052,1.3631,1.3631,1.2757,1.195,1.1826,1.1479,1.1311,1.1604,1.1833,1.19,0.0,0.0,0.0,1.1855,1.2291,1.2652,0.0,0.0,1.2579,1.2579,1.2579,1.2579,1.2579,1.2579,1.1687,0.983,0.9755,0.9755,0.9755,0.9755,0.9755,0.9755,0.9755,0.983,0.9976,0.9976,1.0051,1.0126,1.0126,1.0126,1.0126,1.0126,1.0201,1.0293,1.0472,1.0699,1.0958,1.0891,1.119,1.1558,1.0838,1.0935,1.1288,1.057,1.0357,1.0357,1.0126,0.9064,0.7846,0.7766,0.7613,0.7464,0.7464,0.7464,0.7464,0.7464,0.7464,0.7464,0.7464,0.7464,0.7234,0.6619,0.6465,0.6237,0.5699,0.5622,0.5622,0.5622,0.547,0.5315,0.5315,0.4535,0.3756,0.3212,0.251,0.1884,0.1335,0.1335,0.1335,0.1335,0.1335,0.1335,0.1335,0.1335,0.0392,-0.1484,-0.3763,-0.5026,-0.5018,-0.5132,-0.5292,-0.5496,-0.5619,-0.6392,0.0,1.6524,1.5904,1.573,1.5556,0.0,0.0,1.4834,1.4666,1.4249,1.3631,1.3009,1.2573,1.2135,1.2007,1.2424,1.2543,1.2604,0.0,0.0,0.0,1.2806,0.0,0.0,0.0,1.3535,1.3535,1.3535,1.3535,1.3535,1.3535,1.3535,1.2945,1.1694,1.162,1.162,1.162,1.1329,1.1329,1.162,1.1037,1.0962,1.1335,1.1037,1.0962,1.1111,1.1111,1.1111,0.0,1.1111,1.1172,1.1286,1.1461,1.1594,1.1697,1.1866,1.192,1.1902,1.1739,1.1612,1.1504,1.1329,1.1127,1.0887,1.0887,0.9981,0.8841,0.8761,0.8533,0.838,0.838,0.838,0.838,0.838,0.838,0.838,0.838,0.838,0.8228,0.7464,0.731,0.7084,0.6472,0.6321,0.6321,0.6321,0.6089,0.6012,0.6012,0.5231,0.4377,0.3524,0.2823,0.2198,0.1335,0.1335,0.1335,0.1335,0.1335,0.1335,0.1335,0.11,0.0235,-0.1485,-0.3841,-0.5026,-0.5018,-0.5178,-0.5382,-0.5534,-0.5697,-0.6435,0.0,0.0,0.0,0.0,0.0,0.0,0.0,0.0,0.0,1.4488,1.4249,1.3932,1.2879,1.2712,1.2725,1.2644,1.291,0.0,0.0,1.3607,0.0,0.0,1.3745,0.0,1.368,1.368,1.3673,1.368,1.368,1.368,1.368,1.368,1.368,1.368,1.368,1.3608,1.3535,1.2739,1.2739,1.3462,1.199,1.1632,1.2372,1.1626,1.126,0.0,1.1186,1.1186,1.126,1.121,1.1368,1.1689,1.1648,1.1812,1.2111,1.2049,1.2061,1.2055,1.1956,1.1781,1.1552,1.1516,1.1323,1.1111,1.1111,1.0663,1.0218,1.0218,1.0067,0.9922,0.9922,0.9922,0.9922,0.9922,0.9922,0.9922,0.9922,0.9922,0.969,0.8856,0.8703,0.847,0.7638,0.7484,0.7484,0.7484,0.7022,0.6641,0.6641,0.5622,0.4533,0.3602,0.2979,0.2277,0.1339,0.1337,0.1337,0.1339,0.1337,0.1337,0.1339,0.0865,-0.0157,-0.1955,-0.4006,-0.5042,-0.5042,-0.5271,-0.5502,-0.5822,-0.5822,-0.652,0.0,0.0,0.0,0.0,0.0,0.0,0.0,0.0,0.0,0.0,0.0,0.0,0.0,0.0,1.5265,1.5242,0.0,1.5578,1.4638,0.0,0.0,1.5409,1.5833,1.5974,1.5551,1.5754,1.5692,1.5284,1.5284,1.5284,1.5284,1.5284,1.5284,1.5284,1.5284,1.4697,1.3535,1.3317,1.3317,1.3535,1.3091,1.3018,1.3244,1.3018,1.2945,1.2872,1.2291,1.2365,1.2893,1.1797,1.2222,1.339,1.324,1.3608,1.4247,1.3672,1.3509,1.34,1.2535,1.2047,1.1763,1.1347,1.1166,1.1111,1.1111,1.0812,1.0438,1.0438,1.0143,0.9922,0.9922,0.9922,0.9922,0.9922,0.9922,0.9922,0.9922,0.9922,0.969,0.8856,0.8703,0.847,0.7638,0.7484,0.7484,0.7484,0.7407,0.7253,0.7253,0.6784,0.5851,0.4297,0.3752,0.292,0.1451,0.1271,0.1267,0.129,0.127,0.1268,0.1291,0.119,-0.0078,-0.2582,-0.4302,-0.5195,-0.5287,-0.5436,-0.584,-0.6517,-0.6517,-0.7309,0.0,0.0,0.0,0.0,0.0,0.0,0.0,0.0,0.0,0.0,0.0,0.0,0.0,0.0,0.0,0.0,1.7096,0.0,0.0,0.0,1.6627,1.6941,1.7226,1.7235,0.0,1.689,1.6821,1.6551,1.656,1.656,1.656,1.6272,1.6132,1.6132,1.5938,1.5434,1.4553,1.4186,1.4186,1.4553,1.3825,1.3673,1.3962,1.3673,1.3535,1.347,1.3181,1.3319,1.3711,1.3119,1.3557,1.4414,1.4365,1.4667,1.5145,1.474,1.4636,1.4525,1.3951,1.3453,1.2923,1.196,1.1632,1.1558,1.1186,1.0887,1.0588,1.0513,1.0293,0.9992,0.9916,0.9922,0.9922,0.9922,0.9922,0.9922,0.9922,0.9922,0.969,0.8856,0.8703,0.847,0.7638,0.7484,0.7484,0.7484,0.7484,0.7484,0.7484,0.6784,0.5851,0.4528,0.371,0.272,0.1383,0.1288,0.1285,0.1301,0.1287,0.1279,0.1281,0.1266,-0.0394,-0.3985,-0.4836,-0.5273,-0.5453,-0.5518,-0.5953,-0.6779,-0.6779,-0.757,0.0,0.0,1.865,1.8159,1.7995,1.7831,0.0,0.0,0.0,0.0,0.0,0.0,0.0,1.6619,0.0,0.0,0.0,0.0,1.8783,1.868,1.8412,1.8162,1.8172,0.0,1.7647,1.7638,1.7579,1.751,1.7442,1.7373,1.7373,1.6959,1.6742,1.6742,1.6272,1.6008,1.6008,1.5196,1.5125,1.5805,1.4482,1.4178,1.4752,1.4114,1.3848,1.3915,1.4126,0.0,1.4426,1.4587,1.4956,1.537,1.5262,1.5464,1.5809,1.5643,1.5643,1.5538,1.5359,1.4853,1.4099,1.2845,1.2445,1.2372,1.17,1.1329,1.1105,1.0812,1.0443,1.0143,0.9916,0.9922,0.9922,0.9922,0.9922,0.9922,0.9922,0.9922,0.969,0.8856,0.8703,0.847,0.7638,0.7484,0.7484,0.7484,0.7484,0.7484,0.7484,0.6497,0.5494,0.4474,0.3441,0.2439,0.139,0.1305,0.1303,0.1303,0.1299,0.1284,0.1337,0.0945,-0.1194,-0.5294,-0.5314,-0.5344,-0.5464,-0.5653,-0.6144,-0.6953,-0.7041,-0.7834,2.1082,2.0993,2.0471,1.9121,1.8827,1.8709,1.8375,1.8007,0.0,0.0,0.0,0.0,0.0,1.8151,1.872,0.0,0.0,1.8752,0.0,0.0,1.8757,1.87,0.0,1.9121,1.8633,1.8566,1.8375,1.7969,1.7569,1.7373,1.7373,1.7304,1.7304,1.7304,1.7176,1.7176,1.7176,1.6132,1.5655,1.5805,1.5576,1.5505,1.5576,1.5505,1.5602,1.5894,0.0,1.5541,1.6396,1.5324,1.5802,1.7091,1.6589,1.6903,1.7538,1.6788,1.6535,1.6285,1.4996,1.4326,1.387,1.3433,1.3317,1.3317,1.3171,1.3091,1.2872,1.1774,1.0887,1.0143,0.9916,0.9922,0.9922,0.9922,0.9922,0.9922,0.9922,0.9922,0.969,0.8856,0.8703,0.847,0.7638,0.7484,0.7484,0.7484,0.7484,0.7484,0.7484,0.7144,0.6271,0.4586,0.404,0.3107,0.1422,0.1317,0.1303,0.1303,0.1279,0.1262,0.1336,-0.0559,-0.2749,-0.5378,-0.5401,-0.5427,-0.5464,-0.6256,-0.6933,-0.7658,-0.8273,-0.924,2.141,2.1541,2.15,2.0855,2.0219,1.9579,1.9004,1.8536,0.0,0.0,0.0,0.0,0.0,0.0,1.9815,1.9986,0.0,2.0096,2.0096,2.0096,2.0031,0.0,0.0,1.9977,1.9573,1.9309,1.9121,1.8854,1.8529,1.8327,1.8327,1.8056,1.7862,1.7862,1.7798,1.7764,1.7764,1.7565,1.7188,1.67,1.6899,1.6866,1.6536,1.6819,1.6867,1.667,0.0,1.6741,1.7167,1.6804,1.7119,1.7712,1.7471,1.7619,1.7951,1.7538,1.7324,1.6995,1.6081,1.5511,1.5078,1.4359,1.4106,1.4034,1.3608,1.3324,1.3032,1.2372,1.1632,1.0812,1.0067,0.9922,0.9922,0.9922,0.9922,0.9922,0.9922,0.9922,0.969,0.8856,0.8703,0.847,0.7638,0.7484,0.7484,0.7484,0.7484,0.7521,0.7618,0.69,0.5898,0.461,0.3848,0.2808,0.1406,0.1311,0.1303,0.1303,0.1274,0.1264,0.1281,-0.0887,-0.3202,-0.5496,-0.5504,-0.5497,-0.5648,-0.6398,-0.7129,-0.7834,-0.8536,-0.9501,2.1827,2.2002,2.2267,2.2128,0.0,2.0484,1.9837,1.9267,0.0,0.0,0.0,0.0,0.0,2.0536,0.0,2.1436,2.1463,2.14,2.1526,2.14,2.1273,2.0944,2.088,2.0752,2.0366,2.0053,1.9802,1.9726,1.9462,1.9264,1.9131,1.8865,1.8714,1.8622,1.8656,1.8652,1.8608,1.902,1.8711,1.7735,1.8109,1.8046,1.7579,1.7824,1.7641,1.7293,1.7424,1.7518,1.7629,1.792,1.804,1.804,1.804,1.804,1.804,1.804,1.774,1.7304,1.7021,1.661,1.6012,1.5135,1.4903,1.476,1.4186,1.376,1.3331,1.2959,1.2445,1.1774,1.0588,1.0218,1.0143,1.0143,0.9997,0.9922,0.9922,0.9922,0.969,0.8856,0.8703,0.847,0.7638,0.7484,0.7484,0.7484,0.7521,0.7602,0.774,0.682,0.5782,0.4728,0.3716,0.2559,0.1375,0.1292,0.1295,0.1302,0.1281,0.1278,0.1301,-0.0902,-0.327,-0.5664,-0.5589,-0.564,-0.5733,-0.6605,-0.7305,-0.7834,-0.8798,-0.9878,2.2663,2.2799,2.2694,2.2221,2.1718,2.1313,2.1264,2.0459,0.0,1.9888,0.0,0.0,0.0,2.1124,2.1952,2.2445,2.2113,2.2002,2.2421,0.0,2.1815,2.1815,2.1815,2.1639,2.1158,2.0764,2.0377,2.0107,2.0031,1.9781,1.9131,1.9649,1.9852,1.9696,1.9954,2.0163,2.0226,2.0267,1.9735,1.8724,1.8753,1.8699,1.8699,1.8175,1.801,1.8267,1.7761,1.7672,1.7997,1.8031,1.804,1.804,1.804,1.804,1.804,1.804,1.7578,1.6953,1.6927,1.6447,1.5831,1.5735,1.5726,1.5726,1.5655,1.5355,1.484,1.389,1.3382,1.2872,1.1848,1.1186,1.0738,1.0738,1.0293,0.9922,0.9922,0.9922,0.969,0.8856,0.8703,0.847,0.7638,0.7484,0.7484,0.7484,0.763,0.7744,0.7836,0.7496,0.6592,0.4919,0.4188,0.3222,0.142,0.1339,0.1273,0.1301,0.1301,0.13,0.1303,-0.0929,-0.3288,-0.5667,-0.5673,-0.5725,-0.5733,-0.7044,-0.7746,-0.7834,-0.9671,-1.0927,2.3068,2.326,2.3377,2.3098,2.2694,0.0,0.0,2.1355,2.0953,2.0782,2.0884,0.0,0.0,0.0,2.2767,2.2628,2.2482,2.2421,2.2592,2.2482,2.2359,2.2359,2.2359,2.2175,2.1702,2.1565,2.1376,2.0944,2.0996,2.0921,2.0666,2.0893,2.1019,2.094,2.107,2.1182,2.1207,2.1282,2.1056,2.0672,2.039,2.0028,1.9668,1.9725,1.9611,1.9279,1.9054,1.9058,1.9204,1.9204,1.9204,1.9204,1.9204,1.9204,1.9097,1.8469,1.7965,1.7411,1.6793,1.6233,1.5805,1.5805,1.5805,1.5805,1.5805,1.5363,1.4776,1.4338,1.384,1.3112,1.2003,1.1558,1.1335,1.1335,1.1186,1.1037,1.1037,1.0513,0.9911,0.9377,0.8775,0.8174,0.7561,0.7577,0.7655,0.7655,0.7805,0.7918,0.776,0.7573,0.6826,0.5415,0.3939,0.2613,0.1415,0.1275,0.129,0.1302,0.1303,0.0906,-0.0085,-0.1462,-0.3319,-0.5684,-0.5716,-0.5908,-0.6343,-0.7305,-0.8009,-0.854,-1.0074,-1.1165,2.3436,2.3523,2.3696,2.3595,0.0,0.0,2.2543,2.21,2.1724,2.1513,2.2106,2.2771,2.2959,0.0,0.0,0.0,2.2919,2.2919,2.304,2.2919,2.2859,2.2859,2.2859,2.2677,2.2175,2.2175,2.2113,2.1628,2.1803,2.1803,2.1616,2.1981,2.207,2.1844,2.2184,2.219,2.1913,2.1943,2.1959,2.1797,2.1487,2.1107,2.0732,2.0804,2.0624,2.0216,1.9982,1.9904,1.9904,1.9904,1.9904,1.9904,1.9904,1.9828,1.9599,1.8942,1.8366,1.7807,1.6952,1.6393,1.6,1.5876,1.5805,1.5805,1.5805,1.5221,1.4569,1.4569,1.4065,1.3346,1.2452,1.2157,1.2003,1.2003,1.1855,1.1706,1.1706,1.1111,1.0438,1.0051,0.9155,0.8345,0.8018,0.7907,0.778,0.7833,0.7939,0.7934,0.7851,0.7484,0.6728,0.5214,0.3321,0.1884,0.1335,0.1285,0.1307,0.1316,0.1326,0.059,-0.0954,-0.2008,-0.3529,-0.5657,-0.5738,-0.6083,-0.6779,-0.7482,-0.83,-0.9248,-1.0637,-1.16,2.3797,2.3696,2.3595,0.0,0.0,0.0,2.3595,2.2725,2.1941,2.2095,2.314,2.404,2.4082,2.4584,0.0,2.4229,2.37,2.3582,2.4054,2.37,2.3403,2.3403,2.3403,2.3198,2.2665,2.2592,2.247,2.2163,2.2408,2.2347,2.1678,2.2819,2.3171,2.2343,2.3213,2.3293,2.2467,2.2402,2.2176,2.1807,2.1807,2.1807,2.1807,2.1175,2.0944,2.0867,2.0216,1.9894,1.9904,1.9904,1.9904,1.9904,1.9894,1.9657,1.9231,1.9231,1.8693,1.7915,1.7351,1.6946,1.6542,1.6,1.5805,1.5797,1.5797,1.5221,1.4641,1.4569,1.4065,1.3492,1.3492,1.3046,1.2599,1.2599,1.215,1.1706,1.1706,1.1558,1.126,1.0887,0.9981,0.9214,0.9042,0.8308,0.7821,0.7992,0.8016,0.8016,0.8012,0.7454,0.6248,0.4075,0.2352,0.1335,0.1336,0.1286,0.1316,0.1262,0.1377,0.0696,-0.0956,-0.2478,-0.4028,-0.5657,-0.5738,-0.6083,-0.6779,-0.7482,-0.8541,-1.0078,-1.1163,-1.2224,2.4109,2.3982,0.0,2.3882,0.0,0.0,0.0,2.3421,0.0,0.0,2.3992,2.4283,2.5159,2.5135,0.0,2.4778,2.4274,2.3936,2.4054,2.3995,2.3878,2.3878,2.3878,2.3688,2.3198,2.3437,2.3497,2.3078,2.3424,2.3556,2.3365,2.4092,2.4427,2.4186,2.4578,2.4685,2.4469,2.3756,2.3316,2.3169,2.283,2.2478,2.2252,2.2025,2.209,2.2392,2.2155,2.1918,2.1624,2.1318,2.1252,2.1221,2.0898,2.0622,2.0441,1.9374,1.8848,1.8514,1.7665,1.7269,1.7166,1.6968,1.6899,1.683,1.6473,1.5833,1.5117,1.4705,1.4065,1.3492,1.3492,1.3346,1.32,1.32,1.3119,1.2973,1.2973,1.2365,1.1761,1.1477,1.079,0.9932,0.9144,0.909,0.8892,0.8283,0.8207,0.8034,0.7458,0.6889,0.583,0.399,0.3363,0.2603,0.1367,0.1317,0.1347,0.1376,0.1406,0.0444,-0.1683,-0.2763,-0.4026,-0.5649,-0.5735,-0.6257,-0.7482,-0.7864,-0.9029,-1.0721,-1.1757,-1.2538,2.4208,2.4082,0.0,2.3982,2.3882,2.3782,2.3839,0.0,0.0,0.0,2.5058,2.5236,2.6044,2.592,0.0,2.537,2.4991,2.4765,2.4765,2.4607,2.4447,2.4447,2.4229,2.3995,2.37,2.3936,2.3995,2.37,2.3936,2.4112,2.4112,2.4671,2.5026,2.5,2.5344,2.5395,2.5322,2.4469,2.3963,2.3818,2.3475,2.3128,2.2852,2.2703,2.2777,2.3001,2.2852,2.2628,2.2402,2.1959,2.1807,2.1756,2.13,2.1,2.0679,1.9666,1.9152,1.8891,1.8008,1.7794,1.7716,1.7451,1.7373,1.7304,1.7028,1.6464,1.5895,1.548,1.4911,1.4338,1.3985,1.3912,1.384,1.3564,1.3492,1.3492,1.3492,1.2886,1.2285,1.2224,1.1538,1.0745,1.0221,0.9901,0.9545,0.8963,0.833,0.7722,0.7126,0.6383,0.547,0.4377,0.3706,0.2875,0.1867,0.1508,0.1372,0.1391,0.0798,-0.0268,-0.1786,-0.3401,-0.475,-0.5644,-0.5994,-0.6726,-0.7934,-0.8579,-0.9795,-1.1613,-1.2352,-1.3197,2.425,0.0,0.0,2.4094,2.4067,0.0,2.3982,2.4369,2.4881,2.5495,0.0,2.6634,2.6776,2.6736,2.651,2.596,2.5837,2.5783,2.5783,2.537,2.5061,2.5061,2.4607,2.4229,2.4171,2.4171,2.4171,2.4112,2.4112,2.4112,2.4112,2.4661,2.5039,2.5039,2.5572,2.577,2.5463,2.4909,2.4409,2.4036,2.4036,2.3913,2.3813,2.3372,2.315,2.3075,2.2628,2.2478,2.2402,2.1959,2.1776,2.1694,2.1238,2.0772,2.0307,1.9862,1.9505,1.8998,1.8539,1.8405,1.8269,1.7716,1.7579,1.7579,1.752,1.7088,1.6673,1.6603,1.6105,1.5463,1.4887,1.4601,1.433,1.3775,1.3564,1.3492,1.3492,1.32,1.298,1.2935,1.227,1.1702,1.1822,1.0744,0.9868,0.9661,0.8354,0.7284,0.6961,0.6005,0.5237,0.494,0.3599,0.2679,0.2529,0.1781,0.1392,0.1397,-0.0177,-0.1163,-0.1518,-0.4214,-0.5662,-0.5733,-0.6444,-0.731,-0.8182,-0.9479,-1.0871,-1.2388,-1.298,-1.4075,0.0,2.4679,0.0,0.0,2.4426,2.4124,2.4024,2.4864,2.5712,2.574,2.6296,2.6894,2.7339,2.6997,2.6669,2.651,2.6122,2.5783,2.5783,2.5687,2.5632,2.5632,2.5522,2.5258,2.4835,2.4778,2.462,2.4112,2.4112,2.4112,2.4112,2.4661,2.5162,2.561,2.6181,2.6673,2.7027,2.6483,2.6139,2.607,2.5639,2.5429,2.537,2.4492,2.4009,2.3897,2.315,2.2852,2.2852,2.2101,2.159,2.1217,2.0752,2.0296,1.9851,1.9385,1.9158,1.9065,1.8998,1.8942,1.8942,1.8798,1.8731,1.8664,1.8202,1.7706,1.7139,1.6742,1.5745,1.4958,1.5313,1.4617,1.384,1.4258,1.3912,1.3492,1.3492,1.3419,1.3345,1.3208,1.3271,1.3101,1.2343,1.194,1.1172,0.9426,0.8028,0.713,0.6883,0.6405,0.559,0.4172,0.3714,0.3043,0.1792,0.1469,0.14,0.1425,-0.0268,-0.1789,-0.286,-0.4661,-0.5744,-0.5733,-0.6538,-0.742,-0.8182,-0.9749,-1.1164,-1.2393,-1.307,-1.4262,0.0,0.0,0.0,2.4902,0.0,2.4679,2.4261,2.5521,2.6717,2.6378,2.6822,2.7384,2.7615,2.7408,2.7152,2.7152,2.6878,2.6654,2.6654,2.639,2.6229,2.6229,2.596,2.5687,2.5425,2.537,2.516,2.4563,2.4505,2.439,2.4112,2.44,2.4818,2.5393,2.5707,2.6255,2.7105,2.6575,2.6435,2.6714,2.6427,2.6289,2.6289,2.5487,2.5075,2.4957,2.3852,2.3412,2.3338,2.2241,2.1538,2.1073,2.0607,2.0151,1.9775,1.9241,1.9075,1.9075,1.9075,1.9075,1.9075,1.9075,1.9075,1.9065,1.8741,1.8327,1.7842,1.7569,1.6872,1.6167,1.5807,1.5117,1.4482,1.4122,1.3775,1.3492,1.3492,1.3462,1.339,1.332,1.3491,1.3487,1.2862,1.1924,1.0781,0.9271,0.7824,0.6962,0.6876,0.6624,0.5912,0.453,0.4131,0.3382,0.2079,0.1578,0.1063,0.0269,-0.0805,-0.2324,-0.4389,-0.5338,-0.582,-0.5814,-0.696,-0.7982,-0.8784,-1.0575,-1.1972,-1.2958,-1.3699,-1.4892,0.0,0.0,2.502,2.5098,2.5313,0.0,2.4639,2.6172,2.7582,2.7148,2.7551,2.7974,2.7925,2.7775,2.7625,2.7625,2.7625,2.7625,2.7625,2.7152,2.6841,2.6841,2.639,2.6054,2.596,2.596,2.5742,2.516,2.516,2.4892,2.4287,2.4287,2.4491,2.5009,2.5022,2.5471,2.6517,2.6051,2.6019,2.6569,2.6671,2.671,2.671,2.6308,2.607,2.5861,2.4469,2.3891,2.3818,2.2531,2.1636,2.1032,2.0648,2.017,1.9592,1.921,1.9075,1.9075,1.9075,1.9075,1.9075,1.9075,1.9075,1.9075,1.9075,1.8808,1.8482,1.8482,1.8144,1.7579,1.6385,1.5886,1.5392,1.4201,1.3775,1.3637,1.3499,1.3443,1.3369,1.3348,1.3505,1.3534,1.3193,1.157,1.0073,0.9262,0.7876,0.6872,0.6902,0.6709,0.6086,0.4997,0.4411,0.3648,0.2529,0.1775,0.0717,-0.0984,-0.1519,-0.2955,-0.5684,-0.5858,-0.6015,-0.6146,-0.753,-0.8676,-0.9623,-1.1572,-1.2868,-1.3608,-1.427,-1.5344,0.0,0.0,2.5503,0.0,2.5726,2.5465,0.0,0.0,2.7664,0.0,2.8215,2.8669,2.8431,2.8057,2.774,2.7625,2.7625,2.7625,2.7625,2.7524,2.7458,2.7458,2.7408,2.7137,2.6616,2.6563,2.6336,2.5742,2.5687,2.5481,2.4892,2.4892,2.4945,2.5009,2.5022,2.5275,2.5929,2.5866,2.5842,2.5933,2.6427,2.6726,2.6739,2.7102,2.6769,2.5849,2.4767,2.4337,2.4264,2.3276,2.2101,2.1002,2.0938,2.018,1.9225,1.9096,1.9075,1.9075,1.9075,1.9075,1.9075,1.9075,1.9075,1.9075,1.9075,1.8808,1.8482,1.8482,1.7774,1.7148,1.7588,1.6733,1.5675,1.5463,1.4895,1.4258,1.363,1.3518,1.3584,1.3705,1.3648,1.3467,1.2906,1.1438,1.0175,0.9818,0.8169,0.6917,0.7062,0.6701,0.5915,0.4363,0.4146,0.3408,0.1694,0.1433,0.0627,-0.1253,-0.2415,-0.3877,-0.589,-0.5901,-0.6371,-0.726,-0.8126,-0.92,-1.04,-1.2026,-1.3127,-1.3853,-1.4158,-1.5454,2.5059,2.5615,2.6033,0.0,2.6139,2.6168,2.6119,0.0,2.8495,2.8672,2.931,2.9556,2.8842,2.8701,2.8511,2.794,2.7959,2.7993,2.7725,2.7625,2.7625,2.7625,2.7625,2.7524,2.7255,2.7203,2.693,2.6336,2.6283,2.6068,2.5481,2.5425,2.5326,2.4994,2.4994,2.511,2.5341,2.5341,2.5511,2.5824,2.6073,2.636,2.6687,2.6935,2.6945,2.6756,2.5767,2.5334,2.5264,2.4337,2.2954,2.1516,2.1516,2.054,1.9075,1.9075,1.9075,1.9075,1.9075,1.9075,1.9075,1.9075,1.9075,1.9075,1.9075,1.8808,1.8482,1.8482,1.8066,1.751,1.7432,1.6872,1.6158,1.5313,1.4816,1.4449,1.3866,1.3708,1.3705,1.3707,1.3439,1.306,1.2869,1.1294,1.0013,0.9906,0.8152,0.6924,0.7092,0.6789,0.5933,0.4319,0.4204,0.3454,0.1523,0.1436,0.0627,-0.1251,-0.3619,-0.5218,-0.5907,-0.65,-0.7384,-0.8564,-0.8856,-0.9769,-1.1139,-1.2639,-1.363,-1.4187,-1.4943,-1.6064,0.0,0.0,2.6262,2.6297,2.6505,2.6741,0.0,0.0,2.9104,0.0,3.0199,3.0393,2.9483,2.9377,2.9225,2.8494,2.8574,2.8559,2.8107,2.791,2.776,2.7675,2.7625,2.7625,2.7625,2.7625,2.7408,2.6945,2.6945,2.6669,2.6068,2.6014,2.5797,2.5216,2.5216,2.5208,2.5189,2.5097,2.5143,2.5393,2.5537,2.5903,2.6465,2.6608,2.6987,2.7456,2.662,2.6264,2.6195,2.5322,2.3921,2.2332,2.2332,2.1196,1.9584,1.9584,1.9518,1.933,1.933,1.9264,1.9075,1.9075,1.9075,1.9075,1.9075,1.8808,1.8482,1.8482,1.8279,1.7872,1.7295,1.7148,1.6862,1.5525,1.5095,1.4839,1.4094,1.3895,1.3729,1.3568,1.3106,1.2802,1.2721,1.1151,0.9895,0.982,0.8196,0.6988,0.7075,0.6658,0.5791,0.427,0.3986,0.313,0.1075,0.0806,-0.009,-0.1979,-0.458,-0.6043,-0.5994,-0.7114,-0.8315,-0.9567,-0.9951,-1.0895,-1.2237,-1.3254,-1.408,-1.4509,-1.5639,-1.6683,0.0,2.5888,0.0,2.6708,2.6792,0.0,0.0,0.0,2.9194,2.9918,3.0644,3.1015,3.0518,2.9978,2.954,2.9361,2.9316,2.918,2.8732,2.8559,2.8286,2.7825,2.7675,2.7625,2.7625,2.7625,2.7575,2.7575,2.756,2.7306,2.6683,2.6669,2.6404,2.5797,2.5742,2.5756,2.5784,2.5257,2.4731,2.4217,2.4753,2.5315,2.589,2.6425,2.6987,2.7469,2.6918,2.6645,2.6645,2.607,2.4869,2.3435,2.3435,2.2402,2.0996,2.0996,2.0613,2.0042,2.0042,1.9649,1.9075,1.9075,1.9075,1.9075,1.9075,1.8808,1.8482,1.8482,1.8279,1.8008,1.794,1.794,1.7725,1.6941,1.6448,1.5716,1.4108,1.381,1.3666,1.3306,1.2966,1.2735,1.2371,1.0956,0.982,0.9674,0.816,0.7079,0.699,0.6132,0.5226,0.4362,0.3487,0.2058,-0.0089,-0.0895,-0.1984,-0.3858,-0.5259,-0.6112,-0.6241,-0.7501,-0.8706,-0.9936,-1.1639,-1.2956,-1.3788,-1.3567,-1.4091,-1.5052,-1.5796,-1.6985,0.0,0.0,0.0,2.6606,2.6775,2.7165,2.8352,2.8808,2.933,3.0565,3.1021,3.1151,3.0975,3.0781,3.0435,2.9777,2.9821,2.9805,2.9361,2.9073,2.8888,2.8701,2.8304,2.8076,2.8076,2.776,2.7625,2.7625,2.7625,2.7524,2.7306,2.7255,2.6982,2.6404,2.6404,2.6014,2.5258,2.5118,2.4677,2.4112,2.4321,2.4922,2.5837,2.6033,2.6648,2.7456,2.7323,2.7188,2.7188,2.6985,2.5749,2.4006,2.4006,2.2846,2.1123,2.1123,2.0933,2.0741,2.0741,2.0549,2.0355,2.0355,2.0107,1.9715,1.9715,1.9131,1.8482,1.8482,1.8279,1.8008,1.8008,1.8008,1.7724,1.6697,1.599,1.5154,1.4052,1.3824,1.3689,1.303,1.2672,1.2425,1.2318,1.0944,0.9868,0.972,0.8251,0.713,0.7143,0.6196,0.5234,0.4368,0.358,0.2059,-0.0537,-0.1431,-0.2798,-0.5163,-0.58,-0.6203,-0.6263,-0.828,-0.9734,-1.047,-1.2489,-1.3601,-1.391,-1.4284,-1.4924,-1.5822,-1.696,-1.8417,2.54,0.0,0.0,0.0,0.0,2.7284,2.8779,0.0,2.9397,3.0886,3.119,3.119,3.119,3.119,3.0975,3.0368,3.0543,3.0567,2.9978,2.9701,2.9508,2.9284,2.8748,2.8352,2.8288,2.7894,2.7625,2.7625,2.7625,2.7625,2.7625,2.7625,2.7408,2.6982,2.6982,2.6563,2.5605,2.555,2.516,2.439,2.439,2.4879,2.5824,2.5824,2.6452,2.7523,2.7523,2.7523,2.751,2.7327,2.6258,2.472,2.4467,2.334,2.1877,2.1815,2.1628,2.1439,2.1439,2.1313,2.1123,2.1123,2.0805,2.042,2.0161,1.9518,1.8798,1.8549,1.8279,1.8008,1.8008,1.8115,1.7865,1.6541,1.5963,1.534,1.3944,1.367,1.3536,1.2939,1.2505,1.2224,1.1929,1.0871,0.9842,0.9375,0.8167,0.7191,0.7154,0.5921,0.4925,0.437,0.3312,0.1612,-0.1162,-0.2161,-0.3559,-0.5874,-0.6183,-0.6512,-0.7162,-0.9141,-1.0703,-1.1576,-1.3418,-1.4295,-1.4214,-1.4594,-1.5417,-1.6567,-1.7952,-2.0059,0.0,0.0,0.0,0.0,0.0,0.0,2.8779,0.0,2.9468,3.0886,3.119,3.119,3.119,3.119,3.123,3.119,3.1449,3.1414,3.0642,3.0435,3.0123,2.9496,2.8919,2.8463,2.8352,2.7879,2.7625,2.7625,2.7625,2.7625,2.7625,2.7625,2.7625,2.7625,2.7625,2.7306,2.6736,2.6683,2.6136,2.5005,2.5005,2.5279,2.5824,2.5824,2.6452,2.7523,2.7523,2.7523,2.7458,2.6896,2.6283,2.5521,2.4816,2.4055,2.3403,2.3198,2.2689,2.2113,2.2113,2.1678,2.1135,2.1135,2.1135,2.0996,2.0355,1.9901,1.9497,1.8741,1.8279,1.8008,1.8008,1.8311,1.819,1.6602,1.651,1.6221,1.3874,1.3355,1.3272,1.2885,1.2498,1.2003,1.126,1.0565,0.9792,0.8462,0.7887,0.7435,0.6932,0.538,0.4287,0.4289,0.2506,0.0358,-0.1878,-0.3099,-0.4374,-0.5989,-0.6299,-0.7057,-0.8729,-1.0163,-1.1572,-1.3109,-1.4366,-1.4974,-1.4727,-1.4455,-1.535,-1.7265,-1.8762,-2.1512,2.4934,0.0,0.0,0.0,0.0,0.0,0.0,0.0,3.0099,3.1043,3.119,3.119,3.119,3.1389,3.1487,3.123,3.1291,3.1252,3.1055,3.0878,3.0716,3.0493,2.9629,2.898,2.8889,2.8091,2.7625,0.0,2.7625,2.7625,2.7625,2.7625,2.7625,2.7625,2.7625,2.7306,2.6736,2.6683,2.6351,2.5577,2.516,2.5513,2.6417,2.5998,2.6452,2.7523,2.7523,2.7288,2.6896,2.6739,2.6283,2.5521,2.4816,2.4055,2.3403,2.3198,2.3005,2.2811,2.2811,2.2689,2.2567,2.2567,2.2249,2.1803,2.1491,2.0921,2.0139,1.9309,1.8921,1.8586,1.8144,1.8096,1.7827,1.6541,1.611,1.5526,1.378,1.3187,1.2952,1.2499,1.2358,1.2003,1.126,1.0406,0.9607,0.8554,0.7796,0.7042,0.6101,0.4987,0.4113,0.3671,0.1253,-0.072,-0.1733,-0.3954,-0.5624,-0.6206,-0.7106,-0.8028,-0.8729,-1.0965,-1.2481,-1.3115,-1.4199,-1.4977,-1.5288,-1.5208,-1.6414,-1.8746,-2.208,-2.4441,0.0,0.0,0.0,0.0,0.0,0.0,2.8575,2.9479,3.0277,3.0807,3.1055,3.119,3.119,3.1351,3.1428,3.123,3.119,3.119,3.119,3.1151,3.1032,3.0912,2.9935,2.9225,2.912,2.8189,2.7625,2.7625,2.7625,2.7625,2.7625,2.7625,2.7625,2.7625,2.7625,2.7408,2.71,2.71,2.6774,2.6176,2.5865,2.6049,2.6685,2.6647,2.7085,2.7897,2.7666,2.7415,2.707,2.6277,2.5709,2.5283,2.4455,2.385,2.345,2.3198,2.3078,2.3078,2.3078,2.3078,2.3078,2.3078,2.2823,2.2433,2.2113,2.1553,2.0782,1.9759,1.9044,1.8502,1.8291,1.8271,1.7903,1.6622,1.6067,1.5347,1.3592,1.2952,1.2673,1.2378,1.2305,1.1968,1.0872,1.0245,0.9516,0.8334,0.7684,0.6957,0.58,0.4914,0.4024,0.3406,0.0541,-0.1639,-0.2394,-0.4782,-0.6409,-0.7024,-0.7913,-0.9046,-1.0348,-1.1952,-1.3143,-1.3802,-1.4383,-1.5388,-1.6658,-1.5948,-1.7123,-2.0288,-2.3913,-2.5936,0.0,0.0,0.0,0.0,2.6384,0.0,2.7948,2.9148,3.0224,3.0468,3.0861,3.123,3.123,3.123,3.123,3.119,3.119,3.119,3.119,3.119,3.1112,3.0855,2.9995,2.9287,2.9074,2.814,2.7625,2.7625,2.7625,2.7625,2.7625,2.7625,2.7625,2.7625,2.7625,2.7625,2.7625,2.7625,2.7306,2.6788,2.6721,2.6734,2.6835,2.7326,2.7917,2.8372,2.7913,2.7639,2.7427,2.5855,2.5143,2.4909,2.3966,2.3628,2.3569,2.3198,2.3078,2.3078,2.3078,2.3078,2.3078,2.3078,2.3078,2.3005,2.2359,2.199,2.1428,2.0085,1.8854,1.8096,1.8467,1.8494,1.8132,1.6685,1.6169,1.5486,1.3316,1.2746,1.2539,1.2419,1.2277,1.1752,1.0456,1.0072,0.9403,0.7831,0.7396,0.6881,0.5719,0.4736,0.3848,0.2876,0.0091,-0.2312,-0.3809,-0.548,-0.6964,-0.8225,-0.8788,-1.0167,-1.2609,-1.309,-1.3707,-1.4721,-1.4967,-1.616,-1.8394,-1.7109,-1.8358,-2.2089,-2.4845,-2.643,0.0,0.0,0.0,0.0,2.6333,0.0,2.7809,2.922,3.0516,3.0551,3.0965,3.1274,3.1274,3.1274,3.1274,3.123,3.119,3.119,3.119,3.119,3.1015,3.0477,2.9821,2.918,2.8654,2.7993,2.7625,2.7625,2.7625,2.7625,2.7625,2.7625,2.7625,2.7625,2.7625,2.7625,2.7625,2.7625,2.7524,2.7408,2.693,2.6949,2.7391,2.706,2.7227,2.7771,2.7652,2.7315,2.6872,2.6521,2.5801,2.4909,2.3966,2.3628,2.3569,2.3198,2.3078,2.3078,2.3078,2.3078,2.3078,2.3078,2.3078,2.3078,2.2836,2.2592,2.2161,2.0484,1.9054,1.8027,1.8115,1.8135,1.7703,1.621,1.5715,1.5119,1.3266,1.2746,1.26,1.2688,1.2113,1.1278,1.0328,0.9557,0.8737,0.7765,0.6692,0.5719,0.4734,0.3937,0.2522,-0.0092,-0.1104,-0.2803,-0.561,-0.6149,-0.7033,-0.8535,-0.9722,-1.124,-1.2939,-1.3947,-1.4459,-1.4714,-1.652,-1.8184,-1.9585,-2.1211,-2.2641,-2.3886,-2.591,-2.6915,0.0,0.0,0.0,2.5149,0.0,0.0,0.0,2.9212,3.0502,3.0302,3.0828,3.1295,3.1406,3.1406,3.1368,3.1291,3.1252,3.1252,3.119,3.1015,3.0699,3.0335,2.9601,2.8982,2.8559,2.8008,2.7675,2.7625,2.7625,2.7625,2.7625,2.7625,2.7625,2.7625,2.7625,2.7625,2.7625,2.7625,2.7625,2.7625,2.7306,2.7314,2.7586,2.7642,2.7799,2.8062,2.7768,2.747,2.7142,2.6483,2.591,2.5341,2.4411,2.3852,2.3569,2.3198,2.3078,2.3078,2.3078,2.3078,2.3078,2.3078,2.3078,2.3078,2.3017,2.258,2.1889,2.0484,1.932,1.8444,1.8331,1.8164,1.7636,1.6342,1.566,1.4887,1.3251,1.279,1.2565,1.2171,1.1557,1.1014,1.0439,0.9478,0.8475,0.7714,0.6474,0.5361,0.4378,0.3038,0.1262,-0.1197,-0.2419,-0.3885,-0.6168,-0.7066,-0.8185,-0.975,-1.1162,-1.2542,-1.3875,-1.4377,-1.5165,-1.6071,-1.8437,-2.0317,-2.1695,-2.3909,-2.4958,-2.4806,-2.6336,-2.7206,0.0,0.0,0.0,0.0,0.0,2.7133,0.0,0.0,0.0,2.9832,0.0,0.0,0.0,0.0,0.0,3.1235,0.0,0.0,0.0,3.0699,0.0,3.0208,2.9438,2.8764,2.8479,2.8155,2.7875,2.7625,2.771,2.771,2.7625,2.7625,2.7625,2.7625,2.7625,2.7625,2.7625,2.7625,2.7625,2.7625,2.7625,2.7625,2.764,2.8143,2.8412,2.8397,2.788,2.7652,2.7623,2.659,2.6054,2.5892,2.5007,2.4408,2.3897,2.3424,2.3305,2.3245,2.3125,2.3078,2.3078,2.3078,2.3078,2.3078,2.3078,2.2384,2.1428,2.0409,1.9573,1.8936,1.8557,1.8262,1.7743,1.6705,1.5816,1.4807,1.3397,1.2988,1.2529,1.1642,1.1156,1.0716,1.0282,0.931,0.8291,0.7394,0.6163,0.5095,0.4202,0.206,-0.0,-0.1853,-0.3685,-0.5207,-0.6301,-0.7895,-0.9353,-1.0672,-1.2278,-1.3532,-1.4628,-1.4763,-1.5763,-1.7799,-2.0144,-2.2065,-2.3738,-2.5703,-2.6336,-2.5516,-2.6645,-2.7422,0.0,0.0,0.0,0.0,2.5849,0.0,2.7318,0.0,2.9257,2.9287,0.0,0.0,0.0,0.0,0.0,0.0,0.0,0.0,3.119,3.0452,2.9881,2.9837,2.9303,2.8716,2.8268,2.8431,2.8319,2.766,2.8091,2.814,2.7625,2.7625,2.7625,2.7625,2.7625,2.7625,2.7625,2.7625,2.7625,2.7625,2.7625,2.7625,2.7625,2.77,2.773,2.7694,2.7629,2.7629,2.7629,2.7437,2.7086,2.651,2.5618,2.5231,2.5119,2.4292,2.4015,2.3897,2.3305,2.3078,2.3078,2.3078,2.3078,2.3078,2.2969,2.2322,2.1428,2.0526,1.9694,1.8865,1.8261,1.8047,1.7803,1.6996,1.5974,1.495,1.4042,1.328,1.2588,1.1897,1.1105,1.0282,0.9447,0.8578,0.765,0.6422,0.5267,0.4202,0.3494,0.0909,-0.1575,-0.3216,-0.5023,-0.6206,-0.641,-0.7844,-0.9353,-1.0672,-1.2278,-1.3532,-1.4628,-1.5232,-1.6633,-1.9168,-2.0848,-2.2654,-2.465,-2.6173,-2.6881,-2.6763,-2.7206,-2.753,0.0,0.0,0.0,0.0,0.0,0.0,2.7397,0.0,2.881,0.0,0.0,0.0,0.0,0.0,0.0,0.0,3.0377,0.0,0.0,0.0,2.9881,3.0182,0.0,0.0,2.8103,2.8479,2.8415,2.766,2.814,2.8238,2.7625,2.7625,2.7625,2.7625,2.7625,2.7625,2.7625,2.7625,2.7625,2.7625,2.7625,2.7625,2.7625,2.7625,2.7625,2.7625,2.7625,2.7625,2.7625,2.7625,2.7458,2.7203,2.6721,2.6068,2.5342,2.4794,2.4624,2.4509,2.3884,2.3662,2.3603,2.3258,2.3078,2.3078,2.2969,2.2261,2.1428,2.0526,1.9683,1.8854,1.8134,1.8008,1.7725,1.6515,1.5666,1.4864,1.3852,1.2862,1.2055,1.1432,1.0585,0.9623,0.8603,0.7534,0.6605,0.5983,0.465,0.3326,0.2091,-0.0092,-0.2146,-0.3952,-0.5458,-0.6738,-0.7727,-0.9112,-1.0615,-1.205,-1.3355,-1.4277,-1.4944,-1.5657,-1.7483,-2.0345,-2.1634,-2.3431,-2.6109,-2.6654,-2.7206,-2.753,-2.7638,-2.7853,2.2867,0.0,0.0,0.0,0.0,0.0,0.0,0.0,0.0,0.0,0.0,0.0,0.0,0.0,0.0,0.0,0.0,2.9848,0.0,2.9705,0.0,0.0,0.0,0.0,0.0,2.8842,2.881,2.7894,2.8415,2.8415,2.761,2.7625,2.7625,2.7625,2.7625,2.7625,2.7625,2.7625,2.7625,2.7625,2.7625,2.7625,2.7625,2.7625,2.7625,2.7625,2.7625,2.7625,2.7625,2.7625,2.7625,2.7575,2.7437,2.6788,2.5837,2.5453,2.53,2.5133,2.458,2.4234,2.4015,2.3305,2.3078,2.3078,2.2969,2.2322,2.1428,2.059,1.9683,1.8854,1.8134,1.8008,1.7647,1.6298,1.5593,1.5025,1.3819,1.272,1.1752,1.0934,1.0128,0.9061,0.7669,0.6694,0.5891,0.5361,0.4139,0.2542,0.046,-0.121,-0.2938,-0.4783,-0.593,-0.7111,-0.8564,-1.0083,-1.1706,-1.3431,-1.4371,-1.4974,-1.5415,-1.6567,-1.861,-2.1495,-2.2664,-2.4505,-2.6989,-2.7206,-2.7422,-2.7853,-2.7853,-2.8067,0.0,0.0,0.0,2.53,0.0,0.0,0.0,0.0,2.794,0.0,0.0,0.0,0.0,0.0,0.0,0.0,0.0,0.0,0.0,0.0,0.0,0.0,0.0,0.0,0.0,2.9821,2.9892,2.8559,2.9042,2.8857,2.766,2.7625,2.7625,2.7625,2.7625,2.7625,2.7625,2.7625,2.7625,2.7625,2.7625,2.7625,2.7625,2.7625,2.7625,2.7625,2.7625,2.7625,2.7625,2.7625,2.7625,2.7575,2.7437,2.7284,2.7063,2.6336,2.5974,2.577,2.5189,2.4567,2.4015,2.3305,2.3078,2.3078,2.3078,2.2372,2.1491,2.0782,1.9814,1.8854,1.8134,1.8008,1.7794,1.6784,1.6065,1.5315,1.4381,1.3186,1.1964,1.0783,0.9781,0.8528,0.6508,0.6157,0.5711,0.4556,0.3734,0.2123,-0.12,-0.2865,-0.4403,-0.6182,-0.6785,-0.7483,-0.8336,-1.023,-1.2317,-1.4541,-1.4956,-1.5433,-1.6287,-1.8198,-2.0317,-2.2437,-2.4156,-2.5744,-2.6989,-2.7638,-2.7853,-2.7853,-2.7853,-2.8067,0.0,0.0,2.3492,2.5126,0.0,0.0,0.0,0.0,0.0,0.0,0.0,0.0,0.0,0.0,0.0,0.0,0.0,0.0,0.0,0.0,0.0,0.0,0.0,0.0,0.0,0.0,2.9196,2.8559,2.8701,2.8448,2.761,2.7625,2.7625,2.7625,2.7625,2.7625,2.7625,2.7625,2.7625,2.7625,2.7625,2.7625,2.7625,2.7625,2.7625,2.7625,2.7625,2.7625,2.7625,2.7625,2.7625,2.7575,2.7524,2.7386,2.7181,2.6817,2.6606,2.634,2.5356,2.4337,2.3424,2.3185,2.3078,2.3078,2.3078,2.2113,2.091,2.0655,1.9497,1.8269,1.8076,1.7647,1.7075,1.6331,1.5471,1.4569,1.3358,1.2161,1.1098,1.0137,0.9018,0.7841,0.6334,0.5445,0.4578,0.3739,0.1745,-0.0186,-0.153,-0.3983,-0.5713,-0.6377,-0.6656,-0.7724,-0.977,-1.2214,-1.3896,-1.4622,-1.5157,-1.5834,-1.668,-1.8666,-2.0589,-2.2469,-2.4283,-2.5854,-2.7323,-2.7638,-2.796,-2.8184,-2.8184,-2.8038,2.2721,2.3103,0.0,2.4957,2.5204,0.0,2.6144,0.0,2.6549,0.0,0.0,0.0,0.0,0.0,0.0,0.0,0.0,0.0,0.0,2.8411,0.0,0.0,0.0,0.0,0.0,2.9028,2.8982,2.8511,2.8511,2.8238,2.7625,2.7625,2.7625,2.7625,2.7625,2.7625,2.7625,2.7625,2.7625,2.7625,2.7625,2.7625,2.7625,2.7625,2.7625,2.7625,2.7625,2.7625,2.7625,2.7625,2.7625,2.7625,2.7625,2.7423,2.7181,2.7093,2.6937,2.6606,2.5412,2.4439,2.3708,2.3245,2.3078,2.3078,2.3078,2.1928,2.059,2.059,1.9365,1.8008,1.8008,1.7546,1.6856,1.6015,1.5,1.3988,1.2701,1.145,1.0293,0.9557,0.836,0.6959,0.5711,0.4587,0.3817,0.3321,0.065,-0.1605,-0.2339,-0.473,-0.647,-0.6531,-0.7178,-0.8643,-1.1367,-1.3502,-1.4757,-1.4853,-1.5583,-1.633,-1.7076,-1.9534,-2.1322,-2.2521,-2.4777,-2.6454,-2.7311,-2.7785,-2.8174,-2.8291,-2.8408,-2.8278]},{"header":{"parameterUnit":"m.s-1","parameterCategory":1,"la1":30.6,"la2":29.2853,"lo1":-89.7004,"lo2":-87.6739,"dx":0.0162,"dy":0.0183,"nx":112,"ny":82,"refTime":"2023-02-06T06:00:00:Z","depth":0,"parameterNumber":3,"parameterNumberName":"V-component_of_WINDS"},"data":[0.0,0.0,0.0,0.0,0.0,0.0,0.0,0.0,0.0,0.0,0.0,0.0,0.0,0.0,0.0,0.0,0.0,0.0,0.0,0.0,0.0,0.0,0.0,0.0,0.0,0.0,0.0,0.0,0.0,0.0,0.0,0.0,0.0,0.0,0.0,0.0,0.0,0.0,0.0,0.0,0.0,0.0,0.0,0.0,0.0,0.0,0.0,0.0,0.0,0.0,0.0,0.0,0.0,0.0,0.0,0.0,0.0,0.0,0.0,0.0,0.0,0.0,0.0,0.0,0.0,0.0,0.0,0.0,0.0,0.0,0.0,0.0,0.0,0.0,0.0,0.0,0.0,0.0,0.0,0.0,0.0,0.0,0.0,0.0,0.0,0.0,0.0,0.0,0.0,0.0,-2.789,-2.7195,-2.7085,-2.7149,-2.7303,-2.8293,-2.8767,-2.8434,0.0,0.0,0.0,0.0,0.0,0.0,0.0,0.0,0.0,0.0,0.0,0.0,0.0,0.0,0.0,0.0,0.0,0.0,0.0,0.0,0.0,0.0,0.0,0.0,0.0,0.0,0.0,0.0,0.0,0.0,0.0,0.0,0.0,0.0,0.0,0.0,0.0,0.0,0.0,0.0,0.0,0.0,0.0,0.0,0.0,0.0,0.0,0.0,0.0,0.0,0.0,0.0,0.0,0.0,0.0,0.0,0.0,0.0,0.0,0.0,0.0,0.0,0.0,0.0,0.0,0.0,0.0,0.0,0.0,0.0,0.0,0.0,0.0,0.0,0.0,0.0,0.0,0.0,0.0,0.0,0.0,0.0,0.0,0.0,0.0,0.0,0.0,0.0,0.0,0.0,0.0,0.0,0.0,0.0,0.0,0.0,0.0,0.0,0.0,0.0,0.0,0.0,0.0,0.0,-2.7348,-2.6825,-2.694,-2.7135,-2.7448,-2.7848,-2.818,-2.8398,0.0,0.0,0.0,0.0,0.0,0.0,0.0,0.0,0.0,0.0,0.0,0.0,0.0,0.0,0.0,0.0,0.0,0.0,0.0,0.0,0.0,0.0,0.0,0.0,0.0,0.0,0.0,0.0,0.0,0.0,0.0,0.0,0.0,0.0,0.0,0.0,0.0,0.0,0.0,0.0,0.0,0.0,0.0,0.0,0.0,0.0,0.0,0.0,0.0,0.0,0.0,0.0,0.0,0.0,0.0,0.0,0.0,0.0,0.0,0.0,0.0,0.0,0.0,0.0,0.0,0.0,0.0,0.0,0.0,0.0,0.0,0.0,0.0,0.0,0.0,0.0,0.0,0.0,0.0,0.0,0.0,0.0,0.0,0.0,0.0,0.0,0.0,0.0,0.0,0.0,0.0,0.0,0.0,0.0,0.0,0.0,0.0,0.0,0.0,0.0,0.0,0.0,0.0,-2.7334,-2.6858,-2.6623,-2.6607,-2.6825,-2.7369,-2.7547,-2.784,-2.8353,-3.0202,0.0,0.0,0.0,0.0,0.0,0.0,0.0,0.0,0.0,0.0,0.0,0.0,0.0,0.0,0.0,0.0,0.0,0.0,0.0,0.0,0.0,0.0,0.0,0.0,0.0,0.0,0.0,0.0,0.0,0.0,0.0,0.0,0.0,0.0,0.0,0.0,0.0,0.0,0.0,0.0,0.0,0.0,0.0,0.0,0.0,0.0,0.0,0.0,0.0,0.0,0.0,0.0,0.0,0.0,0.0,0.0,0.0,0.0,0.0,0.0,0.0,0.0,0.0,0.0,0.0,0.0,0.0,0.0,0.0,0.0,0.0,0.0,0.0,0.0,0.0,0.0,0.0,0.0,0.0,0.0,0.0,0.0,0.0,0.0,0.0,0.0,0.0,0.0,0.0,0.0,0.0,0.0,0.0,0.0,0.0,0.0,0.0,0.0,0.0,0.0,0.0,0.0,-2.6908,-2.6606,-2.6537,-2.6538,-2.6757,-2.7334,-2.7547,-2.7869,-2.8353,-2.9916,0.0,0.0,0.0,0.0,0.0,0.0,0.0,0.0,0.0,0.0,0.0,0.0,0.0,0.0,0.0,0.0,0.0,0.0,0.0,0.0,0.0,0.0,0.0,0.0,0.0,0.0,0.0,0.0,0.0,0.0,0.0,0.0,0.0,0.0,0.0,0.0,0.0,0.0,0.0,0.0,0.0,0.0,0.0,0.0,0.0,0.0,0.0,0.0,0.0,0.0,0.0,0.0,0.0,0.0,0.0,0.0,0.0,0.0,0.0,0.0,0.0,0.0,0.0,0.0,0.0,0.0,0.0,0.0,0.0,0.0,0.0,0.0,0.0,0.0,0.0,0.0,0.0,0.0,0.0,0.0,0.0,0.0,0.0,0.0,0.0,0.0,0.0,0.0,0.0,0.0,0.0,0.0,0.0,0.0,0.0,0.0,0.0,0.0,0.0,0.0,0.0,0.0,-2.6808,-2.6691,-2.6691,-2.7051,-2.7396,-2.7565,-2.8101,-2.8414,-2.8406,-2.9916,0.0,0.0,0.0,0.0,0.0,0.0,0.0,0.0,0.0,0.0,0.0,0.0,0.0,0.0,0.0,0.0,0.0,0.0,0.0,0.0,0.0,0.0,0.0,0.0,0.0,0.0,0.0,0.0,0.0,0.0,0.0,0.0,0.0,0.0,0.0,0.0,0.0,0.0,0.0,0.0,0.0,0.0,0.0,0.0,0.0,0.0,0.0,0.0,0.0,0.0,0.0,0.0,0.0,0.0,0.0,0.0,0.0,0.0,0.0,0.0,0.0,0.0,0.0,0.0,0.0,0.0,0.0,0.0,0.0,0.0,0.0,0.0,0.0,0.0,0.0,0.0,0.0,0.0,0.0,0.0,0.0,0.0,0.0,0.0,0.0,0.0,0.0,0.0,0.0,0.0,0.0,0.0,0.0,0.0,0.0,0.0,0.0,0.0,0.0,0.0,0.0,0.0,-2.6808,-2.6674,-2.6657,-2.6906,-2.7224,-2.753,-2.7926,-2.8264,-2.8458,0.0,0.0,0.0,0.0,0.0,0.0,0.0,0.0,0.0,0.0,0.0,0.0,0.0,0.0,0.0,0.0,0.0,0.0,0.0,0.0,0.0,0.0,0.0,0.0,0.0,0.0,0.0,0.0,0.0,0.0,0.0,0.0,0.0,0.0,0.0,0.0,0.0,0.0,0.0,0.0,0.0,0.0,0.0,0.0,0.0,0.0,0.0,0.0,0.0,0.0,0.0,0.0,0.0,0.0,0.0,0.0,0.0,0.0,0.0,0.0,0.0,0.0,0.0,0.0,0.0,0.0,0.0,0.0,0.0,0.0,0.0,0.0,0.0,0.0,0.0,0.0,0.0,0.0,0.0,0.0,0.0,0.0,0.0,0.0,0.0,0.0,0.0,0.0,0.0,0.0,0.0,0.0,0.0,0.0,0.0,0.0,0.0,0.0,0.0,0.0,0.0,0.0,-2.704,-2.6973,-2.6908,-2.6792,-2.7066,-2.7374,-2.7672,-2.801,-2.8291,-2.8492,0.0,0.0,0.0,0.0,0.0,0.0,0.0,0.0,0.0,0.0,0.0,0.0,0.0,0.0,0.0,0.0,0.0,0.0,0.0,0.0,0.0,0.0,0.0,0.0,0.0,0.0,0.0,0.0,0.0,0.0,0.0,0.0,0.0,0.0,0.0,0.0,0.0,0.0,0.0,0.0,0.0,0.0,0.0,0.0,0.0,0.0,0.0,0.0,0.0,0.0,0.0,0.0,0.0,0.0,0.0,0.0,0.0,0.0,0.0,0.0,0.0,0.0,0.0,0.0,0.0,0.0,0.0,0.0,0.0,0.0,0.0,0.0,0.0,0.0,0.0,0.0,0.0,0.0,0.0,0.0,0.0,0.0,0.0,0.0,0.0,0.0,0.0,0.0,0.0,0.0,0.0,0.0,0.0,0.0,0.0,0.0,0.0,0.0,0.0,0.0,0.0,0.0,-2.7072,-2.731,-2.7434,-2.7213,-2.7736,-2.8102,-2.8102,-2.8396,-2.8562,0.0,0.0,0.0,0.0,0.0,0.0,0.0,0.0,0.0,0.0,0.0,0.0,0.0,0.0,0.0,0.0,0.0,0.0,0.0,0.0,0.0,0.0,0.0,0.0,0.0,0.0,0.0,0.0,0.0,0.0,0.0,0.0,0.0,0.0,0.0,0.0,0.0,0.0,0.0,0.0,0.0,0.0,0.0,0.0,0.0,0.0,0.0,0.0,0.0,0.0,0.0,0.0,0.0,0.0,0.0,0.0,0.0,0.0,0.0,0.0,0.0,0.0,0.0,0.0,0.0,0.0,0.0,0.0,0.0,0.0,0.0,0.0,0.0,0.0,0.0,0.0,0.0,0.0,0.0,0.0,0.0,0.0,0.0,0.0,0.0,0.0,0.0,0.0,0.0,0.0,0.0,0.0,0.0,0.0,0.0,0.0,0.0,0.0,0.0,0.0,0.0,0.0,0.0,-2.7666,-2.7713,-2.7713,-2.7582,-2.788,-2.8102,-2.8102,-2.8396,-2.8587,-2.8562,0.0,0.0,0.0,0.0,0.0,0.0,0.0,0.0,0.0,0.0,0.0,0.0,0.0,0.0,0.0,0.0,0.0,0.0,0.0,0.0,0.0,0.0,0.0,0.0,0.0,0.0,0.0,0.0,0.0,0.0,0.0,0.0,0.0,0.0,0.0,0.0,0.0,0.0,0.0,0.0,0.0,0.0,0.0,0.0,0.0,0.0,0.0,0.0,0.0,0.0,0.0,0.0,0.0,0.0,0.0,0.0,0.0,0.0,0.0,0.0,0.0,0.0,0.0,0.0,0.0,0.0,0.0,0.0,0.0,0.0,0.0,0.0,0.0,0.0,0.0,0.0,0.0,0.0,0.0,0.0,0.0,0.0,0.0,0.0,0.0,0.0,0.0,0.0,0.0,0.0,0.0,0.0,0.0,0.0,0.0,0.0,0.0,0.0,0.0,0.0,0.0,0.0,-2.7982,-2.8037,-2.8055,-2.7897,-2.8147,-2.8299,-2.8299,-2.8492,-2.8732,-2.9065,0.0,0.0,0.0,0.0,0.0,0.0,0.0,0.0,0.0,0.0,0.0,0.0,0.0,0.0,0.0,0.0,0.0,0.0,0.0,0.0,0.0,0.0,0.0,0.0,0.0,0.0,0.0,0.0,0.0,0.0,0.0,0.0,0.0,0.0,0.0,0.0,0.0,0.0,0.0,0.0,0.0,0.0,0.0,0.0,0.0,0.0,0.0,0.0,0.0,0.0,0.0,0.0,0.0,0.0,0.0,0.0,0.0,0.0,0.0,0.0,0.0,0.0,0.0,0.0,0.0,0.0,0.0,0.0,0.0,0.0,0.0,0.0,0.0,0.0,0.0,0.0,0.0,0.0,0.0,0.0,0.0,0.0,0.0,0.0,0.0,0.0,0.0,0.0,0.0,0.0,0.0,0.0,0.0,0.0,0.0,0.0,0.0,0.0,0.0,0.0,0.0,0.0,-2.812,-2.8317,-2.8396,-2.8281,-2.8474,-2.8612,-2.8612,-2.8612,-2.8956,-2.9761,0.0,0.0,0.0,0.0,0.0,0.0,0.0,0.0,0.0,0.0,0.0,0.0,0.0,0.0,0.0,0.0,0.0,0.0,0.0,0.0,0.0,0.0,0.0,0.0,0.0,0.0,0.0,0.0,0.0,0.0,0.0,0.0,0.0,0.0,0.0,0.0,0.0,0.0,0.0,0.0,0.0,0.0,0.0,0.0,0.0,0.0,0.0,0.0,0.0,0.0,0.0,0.0,0.0,0.0,0.0,0.0,0.0,0.0,0.0,0.0,-2.8797,-2.8971,0.0,0.0,0.0,0.0,0.0,0.0,0.0,0.0,0.0,0.0,0.0,0.0,0.0,0.0,0.0,0.0,0.0,0.0,0.0,0.0,0.0,0.0,0.0,0.0,0.0,0.0,0.0,0.0,0.0,0.0,0.0,0.0,0.0,0.0,0.0,0.0,0.0,0.0,0.0,0.0,-2.8743,-2.8767,-2.8767,-2.8694,-2.8737,-2.8737,-2.8669,-2.8669,-2.8989,-2.9761,-3.098,0.0,0.0,0.0,0.0,0.0,0.0,0.0,0.0,0.0,0.0,0.0,0.0,0.0,0.0,0.0,0.0,0.0,0.0,0.0,0.0,0.0,0.0,0.0,0.0,0.0,0.0,0.0,0.0,0.0,0.0,0.0,0.0,0.0,0.0,0.0,0.0,0.0,0.0,0.0,0.0,0.0,0.0,0.0,0.0,0.0,0.0,0.0,0.0,0.0,0.0,0.0,0.0,0.0,0.0,0.0,0.0,0.0,0.0,0.0,-2.8558,-2.8959,0.0,0.0,0.0,0.0,0.0,0.0,0.0,0.0,0.0,0.0,0.0,0.0,0.0,0.0,0.0,0.0,0.0,0.0,0.0,0.0,0.0,0.0,0.0,0.0,0.0,0.0,0.0,0.0,0.0,0.0,0.0,0.0,0.0,0.0,0.0,0.0,0.0,0.0,0.0,0.0,-2.8952,-2.8929,-2.8881,-2.8858,-2.881,-2.8785,-2.8712,-2.8694,-2.9234,-3.0494,-3.1207,0.0,0.0,0.0,0.0,0.0,0.0,0.0,0.0,0.0,0.0,0.0,0.0,0.0,0.0,0.0,0.0,0.0,0.0,0.0,0.0,0.0,0.0,0.0,0.0,0.0,0.0,0.0,0.0,0.0,0.0,0.0,0.0,0.0,0.0,0.0,0.0,0.0,0.0,0.0,0.0,0.0,0.0,0.0,0.0,0.0,0.0,0.0,0.0,0.0,0.0,0.0,0.0,0.0,-2.8743,-2.8669,-2.8651,-2.8386,-2.8412,-2.8669,-2.8531,-2.9061,-3.0122,-3.0646,0.0,0.0,0.0,0.0,0.0,0.0,0.0,0.0,0.0,0.0,0.0,0.0,0.0,0.0,0.0,0.0,0.0,0.0,0.0,0.0,0.0,0.0,-3.1472,-3.0596,-3.0676,-3.0931,-3.0612,0.0,0.0,0.0,0.0,0.0,0.0,0.0,0.0,0.0,0.0,0.0,-2.8994,-2.8952,-2.8929,-2.8929,-2.8858,-2.881,-2.8718,-2.8743,-2.9521,-3.128,-3.147,-3.24,0.0,0.0,0.0,0.0,0.0,0.0,0.0,0.0,0.0,0.0,0.0,0.0,0.0,0.0,0.0,0.0,0.0,0.0,0.0,0.0,0.0,0.0,0.0,0.0,0.0,0.0,0.0,0.0,0.0,0.0,0.0,0.0,-3.0251,-3.0227,0.0,0.0,0.0,0.0,0.0,0.0,0.0,0.0,0.0,0.0,0.0,0.0,0.0,-2.8858,-2.8651,-2.8881,-2.8881,-2.8669,-2.8858,-2.8947,-2.8947,-2.8905,-2.8905,-2.8965,-2.9637,0.0,-3.084,-3.1891,0.0,0.0,0.0,0.0,0.0,0.0,0.0,0.0,0.0,0.0,0.0,0.0,0.0,0.0,0.0,0.0,0.0,0.0,0.0,0.0,0.0,0.0,-3.0051,-3.0184,-2.9752,-2.9305,-2.9258,-2.9837,-3.0338,-3.0161,-2.9617,-2.9104,0.0,0.0,0.0,0.0,0.0,0.0,-2.8994,-2.8994,-2.8994,-2.8994,-2.8994,-2.8905,-2.8785,-2.8943,-2.9715,-3.1305,-3.1775,-3.2735,-3.433,-3.4495,0.0,0.0,0.0,0.0,0.0,0.0,0.0,0.0,0.0,0.0,0.0,0.0,0.0,0.0,0.0,0.0,0.0,0.0,0.0,0.0,0.0,0.0,0.0,0.0,0.0,0.0,0.0,0.0,0.0,-3.0075,-2.9876,-2.9903,-2.9725,-2.9613,0.0,0.0,0.0,0.0,0.0,0.0,0.0,0.0,0.0,-2.8834,-2.8791,-2.8791,-2.8815,-2.8929,-2.8881,-2.8601,-2.8881,-2.8905,-2.8767,-2.8929,-2.9255,-2.9732,-3.0522,-3.1254,-3.19,-3.2397,-3.2894,-3.339,0.0,0.0,0.0,0.0,-3.3807,-3.3807,-3.3807,-3.3807,-3.3807,-3.3807,0.0,0.0,0.0,0.0,0.0,0.0,0.0,-3.1178,-3.1046,-3.0384,-2.9652,-2.9551,-2.925,-2.8994,-2.8994,-2.9292,-2.9483,-2.9345,-2.9143,-2.8952,-2.8791,-2.8905,0.0,0.0,0.0,-2.8994,-2.8994,-2.8994,-2.8994,-2.8994,-2.8994,-2.8998,-2.903,-2.906,-2.9894,-3.1744,-3.2006,-3.2879,-3.4595,-3.4626,-3.4561,0.0,0.0,0.0,0.0,0.0,0.0,0.0,0.0,0.0,0.0,0.0,0.0,0.0,0.0,0.0,0.0,0.0,0.0,0.0,0.0,0.0,0.0,0.0,0.0,0.0,0.0,0.0,0.0,-2.9857,-2.963,-2.9638,-2.95,-2.9339,0.0,0.0,0.0,0.0,0.0,0.0,-2.8773,-2.8594,-2.8601,-2.8881,-2.8694,-2.8718,-2.8994,-2.8929,-2.8834,-2.87,-2.8905,-2.8905,-2.8718,-2.8905,-2.9457,-3.0246,-3.1035,-3.1861,-3.2632,-3.2834,-3.3203,-3.368,-3.378,-3.3734,-3.368,-3.378,-3.3807,-3.3807,-3.3807,-3.3807,-3.3807,-3.3807,-3.366,-3.3495,-3.3495,0.0,0.0,0.0,0.0,-3.0646,-3.0308,-2.9856,-2.9428,-2.9075,-2.8994,-2.8994,-2.8994,-2.8994,-2.8929,-2.8743,-2.8858,-2.8929,-2.8743,-2.8881,0.0,-2.8994,-2.8994,-2.8994,-2.8994,-2.9044,-2.9089,-2.9089,-2.9115,-2.9185,-2.9254,-2.9275,-3.0105,-3.209,-3.2184,-3.3015,-3.4832,-3.471,-3.4602,-3.4602,0.0,0.0,0.0,0.0,0.0,0.0,0.0,0.0,0.0,0.0,0.0,0.0,0.0,0.0,0.0,0.0,0.0,0.0,0.0,0.0,0.0,0.0,0.0,0.0,0.0,0.0,0.0,0.0,0.0,-2.9539,-2.9444,0.0,0.0,0.0,0.0,-2.8272,-2.7959,-2.7866,-2.8127,-2.8136,-2.8281,-2.8601,-2.8601,-2.8718,-2.8994,-2.8743,-2.8743,-2.8994,-2.8994,-2.8994,-2.8994,-2.8994,-2.9457,-3.0246,-3.1035,-3.1861,-3.2669,-3.3421,-3.3588,-3.335,-3.368,-3.3625,-3.3379,-3.368,-3.3807,-3.3807,-3.3807,-3.3807,-3.3807,-3.3807,-3.3293,-3.2669,-3.2669,-3.21,0.0,0.0,-3.087,-3.0222,-3.021,-2.9617,-2.903,-2.9012,-2.8994,-2.8994,-2.8994,-2.8994,-2.8994,-2.8994,-2.8994,-2.8994,-2.8994,0.0,-2.8994,-2.8994,-2.8994,-2.8994,-2.8994,-2.9181,-2.9272,-2.9272,-2.9455,-2.9551,-2.9495,-2.9663,-3.047,-3.209,-3.2316,-3.3127,-3.4832,-3.471,-3.4602,-3.4602,-3.4396,0.0,0.0,0.0,0.0,0.0,0.0,0.0,0.0,0.0,0.0,0.0,0.0,0.0,0.0,0.0,0.0,0.0,0.0,0.0,0.0,0.0,0.0,0.0,0.0,0.0,0.0,0.0,0.0,-2.9444,-2.9407,0.0,-2.9057,-2.8824,-2.8639,-2.8461,-2.8156,-2.7983,-2.8081,-2.811,-2.8156,-2.8264,-2.8482,-2.8644,-2.8743,-2.8834,-2.9089,-2.9526,-2.9698,-2.9948,-3.0272,-2.9936,-3.0503,-3.1733,-3.1494,-3.2155,-3.3385,-3.3678,-3.3734,-3.3625,-3.3734,-3.3734,-3.3652,-3.378,-3.3807,-3.3807,-3.3807,-3.3807,-3.3715,-3.3201,-3.2834,-3.2504,-3.1971,-3.1274,-3.0632,-3.0632,-3.0063,-2.9439,-2.9439,-2.9195,-2.8994,-2.8994,-2.8994,-2.8994,-2.8994,-2.8994,-2.8994,-2.8994,-2.8994,-2.8994,-2.8994,-2.8994,-2.8994,-2.8994,-2.8994,-2.9044,-2.9181,-2.927,-2.9355,-2.9494,-2.957,-2.9644,-2.9751,-2.9786,-3.0557,-3.233,-3.246,-3.32,-3.4832,-3.479,-3.4687,-3.4602,-3.4427,-3.4721,0.0,0.0,0.0,0.0,0.0,0.0,0.0,0.0,0.0,0.0,0.0,0.0,0.0,0.0,0.0,0.0,0.0,0.0,0.0,0.0,0.0,0.0,0.0,0.0,0.0,-2.9725,-2.9537,-2.9388,-2.9388,-2.9299,-2.9062,-2.8811,-2.8649,-2.8496,-2.8152,-2.8003,-2.8102,-2.8102,-2.8156,-2.8281,-2.8482,-2.8753,-2.9143,-2.9235,-2.9637,-3.0345,-3.0521,-3.0796,-3.1117,-3.0759,-3.1182,-3.2192,-3.1916,-3.2412,-3.3421,-3.3705,-3.3815,-3.3815,-3.3807,-3.3807,-3.3807,-3.3807,-3.3807,-3.3752,-3.3495,-3.3403,-3.3256,-3.2467,-3.2008,-3.1696,-3.1164,-3.043,-2.9806,-2.9806,-2.942,-2.8994,-2.8994,-2.8994,-2.8994,-2.8994,-2.8994,-2.8994,-2.8994,-2.8994,-2.8994,-2.8994,-2.8994,-2.8994,-2.8994,-2.8994,-2.8994,-2.8994,-2.9067,-2.916,-2.9272,-2.9415,-2.9551,-2.9681,-2.9751,-2.9872,-2.9988,-2.9953,-3.0674,-3.2488,-3.253,-3.3218,-3.4832,-3.483,-3.4747,-3.4583,-3.4409,-3.4697,-3.5472,0.0,0.0,0.0,0.0,0.0,0.0,0.0,0.0,0.0,0.0,0.0,0.0,0.0,0.0,0.0,0.0,0.0,0.0,0.0,0.0,0.0,0.0,0.0,-2.9942,-2.9746,-2.9518,-2.933,-2.937,-2.9222,-2.8755,-2.8705,-2.858,-2.8255,-2.7897,-2.7829,-2.8102,-2.8102,-2.8255,-2.8576,-2.8637,-2.9143,-3.0167,-2.9963,-3.0363,-3.1439,-3.1439,-3.1439,-3.1458,-3.1439,-3.1439,-3.1513,-3.2247,-3.2596,-3.2669,-3.3519,-3.3858,-3.3858,-3.3815,-3.3788,-3.3788,-3.3807,-3.3815,-3.3642,-3.2852,-3.2577,-3.243,-3.1623,-3.0834,-3.021,-3.0173,-2.9622,-2.8994,-2.8994,-2.8994,-2.8994,-2.8994,-2.8994,-2.8994,-2.8994,-2.8994,-2.8994,-2.8994,-2.8994,-2.9017,-2.9017,-2.9017,-2.8994,-2.8994,-2.8994,-2.9017,-2.9017,-2.9181,0.0,-2.9314,-2.9662,-2.9888,-2.9905,-3.0079,-3.0204,-3.0204,-3.0142,-3.0822,-3.2488,-3.253,-3.3218,-3.4832,-3.483,-3.4747,-3.4583,-3.434,-3.4618,-3.5388,0.0,0.0,0.0,0.0,0.0,0.0,0.0,0.0,0.0,0.0,0.0,0.0,0.0,0.0,0.0,0.0,0.0,0.0,0.0,0.0,0.0,-3.0398,-3.0286,-2.9952,-2.9851,-2.9706,-2.9407,-2.9388,-2.9344,-2.9152,-2.8868,-2.8658,-2.8576,-2.8201,-2.802,-2.8102,-2.8102,-2.8129,-2.8237,-2.906,-2.9606,-2.9919,-3.0611,-3.1382,-3.2284,-3.2284,-3.2577,-3.3109,-3.254,-3.2603,-3.3151,-3.2213,-3.2164,-3.2766,-3.3013,-3.3105,-3.316,-3.3674,-3.3868,-3.3895,-3.4049,-3.3728,-3.3093,-3.2084,-3.1733,-3.1604,-3.0797,-3.0375,-3.0099,-2.9512,-2.9177,-2.8994,-2.8994,-2.8994,-2.8994,-2.8994,-2.8994,-2.8994,-2.8994,-2.8994,-2.8994,-2.8994,-2.8994,-2.9044,-2.9185,-2.9093,-2.8994,-2.8994,-2.8994,-2.9044,-2.9185,-2.9251,0.0,-2.9698,-2.9839,-2.9972,-3.0113,-3.0157,-3.0204,-3.0204,-3.0171,-3.0867,-3.2488,-3.2566,-3.3273,-3.4832,-3.4889,-3.4791,-3.4583,-3.434,-3.4618,0.0,0.0,0.0,0.0,0.0,0.0,0.0,0.0,0.0,0.0,0.0,0.0,0.0,0.0,0.0,0.0,0.0,0.0,0.0,0.0,0.0,0.0,-3.0398,-3.0299,-3.0007,-2.9941,-2.9793,-2.951,-2.9429,-2.9516,-2.9805,-2.9613,-2.9586,-2.9929,-2.9254,-2.8846,-2.8846,-2.8514,-2.8452,-2.8793,-2.9569,-3.0298,-3.0972,-3.1583,-3.2327,-3.3136,-3.3136,-3.3401,-3.385,-3.339,-3.3287,-3.3393,-3.2447,-3.214,-3.2299,-3.2323,-3.2395,0.0,0.0,0.0,0.0,0.0,-3.3026,-3.2481,-3.1511,-3.1188,-3.1058,-3.0259,-2.9981,-2.9906,-2.9442,-2.9228,-2.92,-2.927,-2.9206,-2.916,-2.9228,-2.9249,-2.9228,-2.916,-2.9115,-2.9093,-2.9017,-2.8994,-2.9067,-2.9251,-2.9206,0.0,-2.9228,-2.9181,-2.9181,-2.9272,-2.9455,-2.9644,-2.9872,-2.9953,-3.0064,-3.0204,-3.0204,-3.0204,-3.0204,-3.0204,0.0,0.0,0.0,-3.3308,-3.4925,-3.4926,0.0,0.0,0.0,-3.454,-3.4884,-3.4884,0.0,0.0,-3.7311,-3.8007,0.0,0.0,0.0,0.0,0.0,0.0,0.0,0.0,0.0,0.0,0.0,0.0,0.0,0.0,0.0,0.0,-3.0475,-3.0477,-3.0303,-3.0235,-3.0092,-2.9776,-2.9716,-2.9986,-3.0671,-3.068,-3.0932,-3.1654,-3.0699,-3.0079,-3.0079,-2.9355,0.0,0.0,0.0,-3.1189,-3.2596,-3.2713,-3.3143,-3.3895,-3.3895,-3.3947,-3.3998,-3.3998,-3.3573,-3.2798,-3.2754,-3.2255,-3.152,-3.1589,-3.1766,-3.2008,-3.2729,-3.3004,-3.2935,-3.222,-3.1977,-3.1883,-3.1054,0.0,0.0,-2.9922,-2.9696,-2.9696,-2.9696,-2.957,-2.9474,-2.9663,-2.9532,-2.9375,-2.957,-2.9608,-2.957,-2.9375,-2.9334,-2.9272,-2.9112,-2.9067,-2.9115,-2.9334,-2.9355,-2.9395,-2.9608,-2.9474,-2.9334,-2.9375,-2.9681,-2.9905,-2.9921,-3.0098,-3.0204,-3.0204,0.0,0.0,-3.0204,-3.0204,-3.0882,-3.2518,-3.2803,-3.3582,-3.5047,-3.498,-3.4888,-3.4832,-3.4694,-3.4505,-3.4245,-3.4245,-3.4661,-3.5451,-3.6833,-3.7919,0.0,0.0,0.0,0.0,0.0,0.0,0.0,0.0,0.0,0.0,0.0,0.0,0.0,0.0,0.0,-3.0398,-3.0987,-3.1436,-3.1392,-3.1833,-3.1751,-3.0697,-3.1184,-3.1591,-3.1563,-3.1514,-3.1501,-3.1621,-3.1407,-3.1243,-3.1195,-3.1096,-3.1102,-3.1243,-3.1937,-3.2435,-3.2748,-3.3393,-3.3825,-3.3972,0.0,0.0,-3.3998,-3.3998,-3.358,-3.2858,-3.237,-3.1696,-3.0973,-3.113,-3.133,-3.1578,-3.2147,-3.2468,-3.2502,-3.1505,-3.1257,-3.1301,-3.0277,-2.9922,-2.9903,-2.9753,-2.9696,-2.9696,-2.9716,-2.9644,0.0,-2.9681,-2.9626,-2.957,-2.9644,-2.9644,-2.9589,-2.9551,-2.9551,-2.9532,-2.9494,-2.9494,-2.9551,-2.9734,-2.9662,-2.9608,-2.9822,-2.9681,-2.9608,-2.9751,-2.9855,-2.9972,-3.0128,-3.019,-3.0204,-3.0204,-3.0204,-3.0204,-3.0204,-3.0204,-3.0934,-3.2651,-3.4093,-3.4936,-3.5086,-3.5083,-3.5066,-3.5053,-3.4907,-3.4734,-3.4517,-3.4517,-3.4834,-3.5491,-3.6396,-3.7174,0.0,0.0,0.0,0.0,0.0,0.0,0.0,0.0,0.0,0.0,0.0,-3.0626,0.0,0.0,-3.1094,-3.1056,-3.1756,-3.2295,-3.2295,-3.2974,-3.3038,-3.1891,-3.2051,-3.2374,-3.2671,-3.2582,-3.268,-3.3086,-3.2672,-3.2385,-3.2344,-3.2067,-3.2075,-3.2486,-3.2895,-3.3258,-3.3547,-3.3956,-3.4111,-3.4049,-3.4197,-3.4269,-3.4293,-3.4413,-3.4011,-3.3227,-3.2522,-3.1714,-3.0921,-3.0693,-3.0666,-3.0801,-3.1172,-3.1374,-3.1379,-3.0848,-3.0729,-3.0762,-3.0238,-3.0037,-3.0037,-3.0037,-3.0037,-3.0037,-3.0041,-2.9927,-2.9826,-2.9958,-2.9899,-2.9834,-2.9969,-2.9984,-2.9934,-2.9817,-2.9801,-2.9767,-2.9681,-2.9644,-2.9698,-2.9872,-2.9822,-2.9803,-3.0019,-2.9969,-2.9905,-2.9888,-2.9988,-3.0098,-3.0204,-3.0204,-3.0204,-3.0204,-3.0204,-3.0213,-3.0241,-3.1072,-3.2134,-3.3415,-3.4687,-3.5359,-3.5297,-3.5302,-3.5258,-3.5197,-3.5146,-3.4977,-3.4753,-3.4651,-3.4811,-3.5221,-3.5777,-3.6655,0.0,0.0,0.0,0.0,0.0,0.0,0.0,0.0,-3.0833,-3.0942,-3.0969,-3.0973,-3.1033,-3.1611,-3.2048,-3.1989,-3.2639,-3.3179,-3.3141,-3.3891,-3.4139,-3.3336,-3.3067,-3.3178,-3.3789,-3.3714,-3.3895,-3.4591,-3.3947,-3.3513,-3.3513,-3.2996,-3.3015,-3.3658,-3.3696,-3.3918,-3.4423,-3.4423,-3.4353,-3.425,-3.4476,-3.4604,-3.4668,-3.4831,-3.4339,-3.3317,-3.2348,-3.1678,-3.1159,-3.0629,-3.0494,-3.0661,-3.0823,-3.0891,-3.0852,-3.0513,-3.0398,-3.0398,-3.0398,-3.0398,-3.0398,-3.0398,-3.0398,-3.0398,-3.0379,-3.0222,-3.0089,-3.026,-3.0182,-3.0085,-3.0247,-3.0292,-3.0266,-3.0085,-3.0056,-3.0011,-2.9853,-2.9822,-2.9855,-2.9953,-2.9969,-3.0034,-3.0185,-3.0226,-3.0185,-2.9988,-3.0098,-3.0199,-3.0226,-3.0226,-3.0221,-3.0266,-3.0247,-3.0356,-3.0568,-3.2259,-3.3557,-3.4174,-3.5005,-3.5476,-3.5504,-3.5526,-3.5477,-3.5372,-3.5372,-3.5239,-3.4978,-3.4794,-3.4774,-3.4908,-3.5214,-3.6186,-3.0735,-3.0753,-3.08,-3.08,-3.0797,-3.0801,0.0,0.0,-3.1014,-3.1794,-3.1906,-3.209,-3.2844,-3.3031,-3.3017,-3.2948,-3.3624,-3.4121,-3.4071,-3.4795,-3.5301,-3.5191,-3.5021,-3.4859,-3.4756,-3.4737,-3.4737,-3.4773,-3.4737,-3.468,-3.4602,-3.4623,-3.4624,-3.4718,-3.4718,-3.4775,-3.4831,-3.4831,-3.4831,-3.4812,-3.4831,-3.487,-3.487,-3.4889,-3.4036,-3.2444,-3.0994,-3.0852,-3.1629,-3.1558,-3.1943,-3.2577,-3.2622,-3.2622,-3.2449,-3.0948,-3.0398,-3.0398,-3.0398,-3.0398,-3.0398,-3.0398,-3.0398,-3.0398,-3.0336,-3.0304,-3.0273,-3.0285,-3.0286,-3.0279,-3.0292,-3.0299,-3.0292,-3.0266,-3.0266,-3.0266,-3.024,-3.024,-3.024,-3.0253,-3.0253,-3.0266,-3.0279,-3.0336,-3.0336,-3.0185,-3.019,-3.0207,-3.0285,-3.0278,-3.0325,-3.0452,-3.0462,-3.0781,-3.1574,-3.3294,-3.4292,-3.4212,-3.5175,-3.5679,-3.5516,-3.5604,-3.5643,-3.557,-3.557,-3.5464,-3.5251,-3.5165,-3.5047,-3.4888,-3.4965,-3.5687,-3.0707,-3.0721,-3.0749,-3.0749,-3.0736,-3.0878,-3.1425,-3.1561,-3.1793,-3.2678,-3.282,-3.2904,-3.3234,-3.3691,-3.3985,0.0,-3.4583,-3.5107,-3.5078,-3.5396,-3.5629,-3.5629,-3.5507,-3.5383,-3.5258,-3.5141,-3.5072,-3.5035,-3.5072,-3.5072,-3.5035,-3.5157,-3.5242,-3.5242,-3.5242,-3.5174,-3.5072,-3.5072,-3.5019,-3.4889,-3.5019,-3.5072,-3.5072,-3.5209,-3.4305,-3.2656,-3.2018,-3.1725,-3.1737,-3.2218,-3.2602,-3.2891,-3.2935,-3.2967,-3.28,-3.1602,-3.116,-3.1083,-3.0571,-3.0398,-3.0398,-3.0398,-3.0398,-3.0379,-3.0367,-3.0367,-3.0367,-3.0367,-3.0394,-3.0409,-3.0359,-3.043,-3.0463,-3.043,-3.0452,-3.0472,-3.0472,-3.0472,-3.0462,-3.0414,-3.0414,-3.0414,-3.0414,-3.0443,-3.0617,-3.1049,-3.0698,-3.0378,-3.0402,-3.0413,-3.0626,-3.1197,-3.1756,-3.241,-3.3292,-3.41,-3.475,-3.5154,-3.5566,-3.5754,-3.5689,-3.5697,-3.5684,-3.5673,-3.5673,-3.5608,-3.5483,-3.5316,-3.5258,-3.5228,-3.5015,-3.5456,-3.0667,-3.0661,-3.0673,-3.0696,-3.0879,-3.1245,-3.1947,-3.2283,-3.2715,-3.3586,-3.3754,-3.3821,-3.4012,-3.4569,-3.4959,-3.4899,-3.539,-3.5745,-3.5702,-3.5693,-3.5693,-3.5693,-3.566,-3.5607,-3.5547,-3.5398,-3.5273,-3.5273,-3.5273,-3.5273,-3.5273,-3.5417,-3.5493,-3.5493,-3.5493,-3.5432,-3.5273,-3.5273,-3.5209,-3.5072,-3.5207,-3.527,-3.5285,-3.5191,-3.4494,-3.3301,-3.3051,-3.2781,-3.2519,-3.3096,-3.3481,-3.368,-3.3724,-3.373,-3.3646,-3.2793,-3.2319,-3.1965,-3.1102,-3.0821,-3.0775,-3.0525,-3.0467,-3.0467,-3.0467,-3.0467,-3.0448,-3.0455,-3.0491,-3.052,-3.0462,-3.0537,-3.0579,-3.0535,-3.0548,-3.0593,-3.0591,-3.0785,-3.094,-3.0905,-3.108,-3.1243,-3.1243,-3.1251,-3.1499,-3.212,-3.1697,-3.1285,-3.1261,-3.1288,-3.1538,-3.2178,-3.3048,-3.3842,-3.4464,-3.4795,-3.5226,-3.585,-3.5852,-3.5826,-3.5799,-3.5737,-3.5706,-3.5704,-3.5704,-3.5673,-3.5631,-3.5457,-3.5432,-3.5515,-3.5212,-3.5472,-3.0588,0.0,-3.0626,-3.0684,-3.1339,-3.1998,-3.2087,-3.2744,-3.3611,-3.4473,-3.4661,-3.492,-3.5757,-3.5932,-3.5942,-3.5875,-3.5889,-3.5846,-3.5729,-3.5693,-3.5693,-3.5693,-3.5693,-3.5706,0.0,-3.5572,-3.5493,-3.5493,-3.5493,-3.5493,-3.5493,-3.5493,-3.5493,-3.5493,-3.5493,-3.5493,-3.5493,-3.5493,-3.5493,-3.5493,-3.5495,-3.5483,-3.5464,-3.4692,-3.4338,-3.4306,-3.3469,-3.36,-3.4424,-3.4443,-3.4918,-3.5622,-3.5622,-3.5618,-3.5514,-3.4711,-3.3843,-3.2952,-3.2135,-3.1854,-3.1715,-3.0883,-3.0583,-3.0583,-3.0583,-3.0583,-3.0598,-3.0588,-3.0604,-3.0602,-3.0598,-3.0593,-3.0593,-3.0593,-3.0593,-3.0593,-3.0593,-3.1254,-3.1863,-3.1863,-3.255,-3.3114,-3.3114,-3.3174,-3.3223,-3.3243,-3.3293,-3.3273,-3.3122,-3.3231,-3.3317,-3.3356,-3.4077,-3.4564,-3.4583,-3.5363,-3.5869,-3.5908,-3.5898,-3.5864,-3.5799,-3.5727,-3.5698,-3.5704,-3.5704,-3.5704,-3.5704,-3.5631,-3.5589,-3.5591,-3.5515,-3.5801,0.0,0.0,-3.0607,-3.0634,-3.1297,-3.2098,-3.2683,-3.3502,-3.4382,-3.5315,-3.5502,-3.5604,-3.5937,-3.5996,-3.5993,-3.5962,-3.5974,-3.5951,-3.5914,-3.5895,-3.5895,-3.5895,-3.5856,0.0,0.0,0.0,0.0,-3.5565,-3.5584,-3.5565,-3.5493,-3.5493,-3.5501,-3.5509,-3.5509,-3.5522,-3.5573,-3.5573,-3.5573,-3.5573,-3.5573,-3.5586,-3.5618,-3.5341,-3.4955,-3.448,-3.471,-3.4695,-3.4539,-3.5075,-3.5474,-3.5697,-3.5756,-3.5765,-3.5743,-3.5516,-3.5223,-3.4756,-3.3266,-3.2388,-3.1845,-3.1554,-3.1061,-3.0607,-3.0607,-3.0591,-3.06,-3.0594,-3.0633,-3.0788,-3.1319,-3.1538,-3.1737,-3.2255,-3.2426,-3.2467,-3.2467,-3.2701,-3.2892,-3.2892,-3.313,-3.3325,-3.3325,-3.3353,-3.3555,-3.414,-3.3766,-3.3384,-3.3336,-3.3873,-3.4243,-3.4199,-3.4954,-3.546,-3.546,-3.5733,-3.5908,-3.5908,-3.5898,-3.5864,-3.5799,-3.5736,-3.5698,-3.5704,-3.5704,-3.5704,-3.5704,-3.5673,-3.5643,-3.5608,-3.5572,-3.557,0.0,-3.0356,-3.0451,-3.0511,-3.14,-3.2416,-3.306,-3.4112,-3.5132,-3.5734,-3.5869,-3.588,-3.5945,-3.5966,-3.5973,-3.5992,-3.6009,-3.6007,-3.6001,-3.6001,-3.6001,-3.6001,-3.5962,-3.594,0.0,0.0,0.0,-3.5635,-3.5631,-3.5622,-3.5584,-3.5584,-3.5578,-3.5566,-3.5573,-3.5598,-3.5642,-3.5642,-3.5662,-3.5681,-3.5673,-3.5688,-3.5737,-3.5737,-3.5474,-3.5029,-3.5543,-3.5496,-3.5073,-3.5591,-3.5806,-3.5806,-3.5845,-3.5875,-3.5885,-3.5917,-3.5939,-3.5727,-3.4257,-3.3379,-3.2845,-3.2533,-3.2062,-3.1594,-3.1594,-3.1601,-3.161,-3.1597,-3.1625,-3.1792,-3.2304,-3.2494,-3.269,-3.3216,-3.3363,-3.3398,-3.3398,-3.3632,-3.3866,-3.3866,-3.412,-3.4334,-3.4334,-3.4334,-3.453,-3.5076,-3.4697,-3.4335,-3.4328,-3.4827,-3.5134,-3.5061,-3.5568,-3.5894,-3.5908,-3.5908,-3.5908,-3.5908,-3.5898,-3.5864,-3.5799,-3.5736,-3.5698,-3.5704,-3.5704,-3.5704,-3.5704,-3.5704,-3.5673,-3.5601,-3.5608,-3.5656,-3.0095,-3.0089,-3.015,-3.0352,-3.1611,-3.2891,-3.3132,-3.4506,-3.5726,-3.5787,-3.5807,-3.5813,0.0,0.0,-3.5926,-3.5989,-3.5992,-3.5995,-3.5995,-3.5993,-3.5993,0.0,0.0,0.0,0.0,0.0,0.0,-3.5723,0.0,-3.5701,-3.5707,-3.5707,-3.5707,-3.5707,-3.5714,-3.5712,-3.5705,-3.5705,-3.5732,-3.5809,-3.5821,-3.582,-3.5802,-3.5802,-3.5833,-3.592,-3.592,-3.5937,-3.5996,-3.5996,-3.5996,-3.5996,-3.5996,-3.5996,-3.5996,-3.6006,-3.5993,-3.5883,-3.5056,-3.4739,-3.4551,-3.373,-3.3437,-3.3398,-3.3398,-3.3398,-3.3398,-3.3406,-3.34,-3.3402,-3.3452,-3.3467,-3.3476,-3.3515,-3.3534,-3.3534,-3.3534,-3.4178,-3.4764,-3.4764,-3.5428,-3.5991,-3.5991,-3.5991,-3.5991,-3.5991,-3.5994,-3.5991,-3.6001,-3.5994,-3.5962,-3.5909,-3.5909,-3.5904,-3.5894,-3.5889,-3.5889,-3.5894,-3.5905,-3.5864,-3.5799,-3.5736,-3.5698,-3.5704,-3.5704,-3.5704,-3.5704,-3.5704,-3.5673,-3.5601,-3.5601,-3.6009,-2.995,-3.0022,-3.0122,-3.0163,-3.0994,-3.2019,-3.2855,-3.3862,-3.4823,-3.5629,-3.5763,-3.5754,0.0,0.0,0.0,-3.5857,-3.5844,0.0,-3.5857,-3.5857,0.0,-3.5918,0.0,-3.5948,-3.5994,-3.5991,0.0,0.0,-3.5874,-3.5807,-3.5713,-3.5704,-3.5724,-3.5763,-3.5771,-3.5776,-3.5767,-3.5767,-3.5801,-3.5867,-3.5862,-3.5898,-3.5951,-3.5951,-3.5966,-3.5974,-3.5974,-3.5987,-3.5996,-3.5996,-3.5996,-3.5996,-3.5996,-3.5995,-3.6007,-3.6009,-3.6003,-3.5977,-3.5757,-3.5234,-3.4668,-3.4434,-3.3926,-3.3398,-3.3398,-3.3398,-3.3398,-3.3398,-3.3392,-3.3558,-3.4194,-3.4373,-3.4529,-3.5188,-3.5343,-3.5341,-3.533,-3.5506,-3.5662,-3.5662,-3.5857,-3.5991,-3.5991,-3.5991,-3.5991,-3.5991,-3.5968,-3.5932,-3.5985,-3.5997,-3.597,-3.5909,-3.5909,-3.5895,-3.5908,-3.5904,-3.5904,-3.5908,-3.5897,-3.5864,-3.5799,-3.5736,-3.5698,-3.5704,-3.5704,-3.5704,-3.5704,-3.5704,-3.5684,-3.5673,-3.5612,-3.5712,-2.9806,-2.9874,-2.9934,-3.0011,-3.067,-3.1493,-3.2148,-3.2942,-3.3814,-3.4762,-3.5002,-3.516,-3.5546,-3.5697,-3.5757,0.0,0.0,0.0,-3.5795,-3.5795,-3.5813,0.0,-3.5854,0.0,-3.5916,-3.5916,-3.5914,0.0,-3.5935,-3.5915,-3.5841,-3.5838,-3.5857,-3.5896,-3.5896,-3.588,-3.589,-3.589,-3.5908,-3.5943,-3.5943,-3.597,-3.5996,-3.5996,-3.5996,-3.5996,-3.5996,-3.5986,-3.5968,-3.5968,-3.5935,-3.5901,-3.5901,-3.5901,-3.5901,-3.5901,-3.5901,-3.5901,-3.5901,-3.5589,-3.5181,-3.5253,-3.4941,-3.4549,-3.4507,-3.4501,-3.4499,-3.4509,-3.4472,-3.4588,-3.5136,-3.5232,-3.531,-3.5838,-3.5957,-3.5955,-3.5957,-3.5973,-3.6001,-3.5994,-3.5982,-3.597,-3.597,-3.5955,-3.5957,-3.5957,-3.5917,-3.5916,-3.5956,-3.5954,-3.5947,-3.5942,-3.5935,-3.5939,-3.5938,-3.5916,-3.5912,-3.5938,-3.5914,-3.5879,-3.5799,-3.5735,-3.5698,-3.5704,-3.5704,-3.5704,-3.5704,-3.5704,-3.5704,-3.5704,-3.6021,-3.6385,-2.9664,-2.9664,-2.9682,-2.9841,-3.0438,-3.1073,-3.1306,-3.1962,-3.2726,-3.3578,-3.3949,-3.4372,-3.5072,-3.5442,-3.5687,-3.5736,0.0,-3.5785,-3.5792,-3.5781,-3.5781,-3.5781,-3.5788,-3.5788,-3.5807,-3.5807,-3.5807,-3.5807,-3.5907,-3.5972,-3.5975,-3.5975,-3.5975,-3.5975,-3.5975,-3.5975,-3.5975,-3.5975,-3.5975,-3.5975,-3.5975,-3.5975,-3.5975,-3.5975,-3.5975,-3.5975,-3.5975,-3.5942,-3.5892,-3.5899,-3.5853,-3.5807,-3.5807,-3.5807,-3.5807,-3.5807,-3.5807,-3.5807,-3.5807,-3.5807,-3.5825,-3.5947,-3.5975,-3.5966,-3.5896,-3.5891,-3.5883,-3.5887,-3.5845,-3.5831,-3.5942,-3.5884,-3.582,-3.5883,-3.5893,-3.5885,-3.588,-3.5927,-3.5975,-3.5987,-3.5936,-3.5898,-3.5898,-3.5909,-3.5893,-3.5893,-3.589,-3.591,-3.5893,-3.5908,-3.5917,-3.5971,-3.5982,-3.6003,-3.5992,-3.594,-3.5938,-3.5992,-3.5946,-3.5866,-3.5788,-3.5741,-3.5699,-3.5704,-3.5704,-3.5704,-3.5704,-3.5704,-3.5704,-3.5723,-3.6535,-3.7305,-2.9511,-2.9531,-2.9511,-2.9701,-2.9851,-3.0167,-3.1029,-3.1347,0.0,0.0,-3.3451,-3.3991,-3.414,-3.487,-3.5464,-3.5464,-3.5608,-3.5715,-3.5723,-3.5723,-3.5723,0.0,-3.5716,-3.5747,-3.5786,-3.5805,0.0,0.0,-3.5815,-3.5823,-3.5836,-3.5841,-3.5841,-3.5841,-3.5841,-3.5841,-3.5841,-3.5841,-3.5841,-3.5841,-3.5841,-3.5841,-3.5841,-3.5841,-3.5841,-3.5841,-3.5841,0.0,-3.5827,-3.5825,-3.5813,-3.5805,-3.5805,-3.5805,-3.5805,-3.5805,-3.5805,-3.5805,-3.5805,-3.5805,-3.5795,-3.5825,-3.5841,-3.5831,-3.5813,-3.5821,-3.5822,-3.5815,-3.5799,-3.5813,-3.5829,-3.5826,-3.5801,-3.5814,-3.5824,-3.5823,-3.5819,-3.5821,-3.586,-3.5916,-3.5916,-3.5896,-3.5901,-3.5899,-3.5893,-3.5893,-3.5908,-3.5899,-3.589,-3.5908,-3.5895,-3.5918,-3.5976,-3.5995,-3.5996,-3.5994,-3.5992,-3.5996,-3.5947,-3.5869,-3.5794,-3.5748,-3.5696,-3.5704,-3.5704,-3.5704,-3.5704,-3.5704,-3.5704,-3.5723,-3.6535,-3.6988,-2.9148,-2.9126,-2.9104,-2.9314,-2.9414,-2.9567,-3.0133,0.0,0.0,0.0,-3.2145,-3.2746,-3.3587,-3.4228,0.0,-3.5315,-3.5477,-3.5577,-3.5693,-3.5704,-3.5704,-3.5704,-3.5704,-3.5704,-3.5742,-3.5742,-3.5742,-3.5742,-3.5742,-3.5756,-3.5791,-3.5799,-3.5799,-3.5799,-3.5799,-3.5799,-3.5799,-3.5799,-3.5799,-3.5799,-3.5799,-3.5799,-3.5799,-3.5799,-3.5799,-3.5799,-3.5799,-3.5771,-3.5752,-3.5746,-3.5742,-3.5742,-3.5742,-3.5742,-3.5742,-3.5712,-3.5712,-3.5742,-3.5712,-3.5701,-3.5704,-3.5745,-3.5771,-3.5799,-3.5752,-3.5747,-3.5742,-3.5742,-3.5747,-3.5754,-3.5794,-3.5766,-3.5754,-3.5755,-3.5742,-3.5755,-3.5793,-3.5806,-3.5813,-3.589,-3.5875,-3.5851,-3.5884,-3.5866,-3.5844,-3.5844,-3.5859,-3.5846,-3.5858,-3.588,-3.589,-3.5908,-3.5956,-3.5995,-3.6007,-3.5995,-3.5996,-3.6007,-3.5976,-3.5927,-3.5857,-3.5786,-3.5749,-3.5715,-3.5704,-3.5704,-3.5704,-3.5704,-3.5704,-3.5723,-3.7,-3.7588,-2.8772,-2.8748,-2.87,-2.8934,-2.9082,-2.9166,-2.923,-2.9453,0.0,-3.0412,-3.0866,-3.1519,-3.2769,-3.346,-3.4082,0.0,-3.5172,-3.5364,-3.5521,-3.5553,-3.5553,0.0,-3.5553,0.0,-3.5553,-3.5553,0.0,-3.5565,-3.5565,-3.5628,-3.5762,-3.5781,-3.5781,-3.5781,-3.5781,-3.5781,-3.5781,-3.5781,-3.5781,-3.5781,-3.5781,-3.5781,-3.5781,-3.5781,-3.5781,-3.5781,-3.5781,-3.5742,-3.5704,-3.5704,-3.5684,-3.5673,-3.5673,-3.5662,-3.5608,-3.5589,-3.5577,-3.5553,-3.5589,-3.5534,-3.5489,-3.562,-3.5712,-3.5762,-3.5704,-3.5704,-3.5704,-3.5704,-3.5704,-3.5704,-3.5762,-3.5742,-3.5704,-3.5704,-3.5704,-3.5704,-3.5762,-3.5784,-3.5794,-3.5853,-3.5833,-3.5814,-3.5866,-3.5818,-3.5799,-3.5799,-3.5799,-3.5799,-3.5799,-3.5866,-3.5904,-3.59,-3.5964,-3.6009,-3.5994,-3.6007,-3.6009,-3.5994,-3.6007,-3.5976,-3.5893,-3.5853,-3.5781,-3.5698,-3.5706,-3.5704,-3.5704,-3.5704,-3.5781,-3.5994,-3.7502,-3.8295,-2.8522,-2.8529,-2.8478,-2.8676,-2.8842,-2.8888,-2.8795,0.0,-2.9411,-2.9384,-3.0183,-3.096,-3.1052,-3.243,-3.3563,-3.3658,-3.4432,-3.503,-3.5062,-3.5059,-3.5059,-3.5059,0.0,0.0,-3.5059,-3.5059,-3.5095,-3.5146,-3.5162,-3.5321,-3.5693,-3.5704,-3.5704,-3.5704,-3.5704,-3.5704,-3.5704,-3.5704,-3.5704,-3.5704,-3.5704,-3.5704,-3.5704,-3.5704,-3.5704,-3.5704,-3.5704,-3.5704,0.0,-3.5704,-3.5654,-3.5612,-3.5612,-3.5496,-3.536,-3.5534,-3.5355,-3.5119,-3.5476,-3.5355,-3.5119,-3.5489,-3.5608,-3.5631,-3.5673,-3.5704,-3.5704,-3.5704,-3.5704,-3.5704,-3.5704,-3.5704,-3.5704,-3.5704,-3.5704,-3.5704,-3.5704,-3.5697,-3.5718,-3.5727,-3.5765,-3.5801,-3.5807,-3.5799,-3.5799,-3.5799,-3.5799,-3.5799,-3.5799,-3.5866,-3.5889,-3.5894,-3.5958,-3.5994,-3.5994,-3.5994,-3.5994,-3.5994,-3.5994,-3.597,-3.5897,-3.589,-3.5834,-3.5706,-3.5689,-3.5704,-3.5704,-3.5704,-3.6071,-3.6806,-3.7754,-3.8624,-2.7707,-2.7783,-2.784,-2.8102,-2.8324,-2.8478,-2.8504,0.0,-2.8975,-2.8906,-2.9407,-2.9946,-3.0429,-3.1231,-3.2239,-3.3317,-3.3828,0.0,-3.4902,-3.4996,-3.4996,-3.4996,-3.4996,0.0,0.0,0.0,-3.5013,-3.5049,-3.5049,-3.5117,-3.5262,-3.5321,-3.535,-3.535,-3.535,-3.535,-3.535,-3.535,-3.535,-3.535,-3.535,-3.5316,-3.5268,-3.5268,-3.5273,-3.5277,-3.5277,-3.5277,0.0,-3.5277,-3.5262,-3.5228,-3.5228,-3.52,-3.5119,-3.5149,-3.51,-3.5015,-3.5133,-3.5083,-3.4961,-3.5168,-3.5232,-3.5292,-3.5565,-3.5673,-3.5704,-3.5704,-3.5704,-3.5704,-3.5704,-3.5704,-3.5704,-3.5704,-3.5704,-3.5704,-3.5704,-3.5695,-3.5697,-3.5699,-3.5718,-3.5756,-3.5791,-3.5799,-3.5799,-3.5799,-3.5799,-3.5799,-3.5799,-3.5866,-3.5908,-3.5908,-3.5951,-3.5991,-3.5991,-3.5991,-3.5991,-3.5991,-3.5991,-3.5999,-3.595,-3.5917,-3.5868,-3.5768,-3.5708,-3.5704,-3.5704,-3.5704,-3.611,-3.6922,-3.7793,-3.8663,-2.7103,-2.7198,-2.7355,-2.7612,-2.78,-2.7964,0.0,0.0,-2.8529,-2.8554,-2.8772,-2.9163,-2.9802,-3.0305,-3.1094,-3.2444,-3.3047,-3.3615,-3.4339,-3.4642,-3.4793,-3.4793,0.0,-3.4793,-3.4793,-3.4813,-3.4813,-3.4813,-3.4813,-3.4813,-3.4813,-3.487,-3.4961,-3.5064,-3.5064,-3.5064,-3.5064,-3.5064,-3.5064,-3.5064,-3.5064,-3.5047,-3.4994,-3.4994,-3.4996,-3.4997,-3.4997,-3.4997,0.0,-3.4997,-3.498,-3.498,-3.498,-3.4925,-3.4889,-3.4889,-3.4851,-3.4793,-3.487,-3.4813,-3.4735,-3.4907,-3.4925,-3.4962,-3.5288,-3.5451,-3.5521,-3.5521,-3.5521,-3.5521,-3.5521,-3.5521,-3.5521,-3.5521,-3.5521,-3.5521,-3.5521,-3.554,-3.5565,-3.5577,-3.5588,-3.5639,-3.5708,-3.5718,-3.5718,-3.5718,-3.5756,-3.5765,-3.5765,-3.5859,-3.5908,-3.5908,-3.5951,-3.5991,-3.5991,-3.5991,-3.5991,-3.5991,-3.5991,-3.5991,-3.5991,-3.5956,-3.5886,-3.5805,-3.5756,-3.5723,-3.5704,-3.5936,-3.6477,-3.7309,-3.8179,-3.8994,-2.694,-2.7006,-2.707,-2.7341,-2.7293,-2.7307,0.0,0.0,-2.8129,-2.8183,-2.8478,-2.8772,-2.8971,-2.9715,-3.0374,-3.0593,-3.1972,-3.3036,-3.3101,-3.3813,-3.4316,0.0,0.0,-3.4316,-3.4316,-3.4363,-3.4404,-3.4404,-3.4404,0.0,-3.4404,-3.4427,-3.4588,-3.498,-3.4997,-3.4997,-3.4997,-3.4997,-3.4997,-3.4997,-3.4997,-3.4997,-3.4997,-3.4997,-3.4997,-3.4997,-3.4997,-3.4997,0.0,-3.4997,-3.4962,-3.4906,-3.4906,-3.4774,-3.4626,-3.4831,-3.4609,-3.4274,-3.4752,-3.4588,-3.4274,-3.4752,-3.4773,-3.4634,-3.4851,-3.5013,-3.5114,-3.5114,-3.5114,-3.5114,-3.5114,-3.5114,-3.5114,-3.5114,-3.5114,-3.5114,-3.5114,-3.5165,-3.5228,-3.5297,-3.5359,-3.5418,-3.5495,-3.5507,-3.5507,-3.5507,-3.5615,-3.5707,-3.5707,-3.5818,-3.5908,-3.5908,-3.5951,-3.5991,-3.5991,-3.5991,-3.5991,-3.5991,-3.5991,-3.5991,-3.5991,-3.5994,-3.5937,-3.5791,-3.5801,-3.5762,-3.5704,-3.6497,-3.7348,-3.8218,-3.9069,-3.9778,-2.6225,-2.6486,-2.6742,-2.6825,-2.6957,-2.7103,-2.7181,-2.743,-2.7642,-2.7642,-2.7992,-2.8324,-2.8376,-2.8771,-2.9466,-3.0629,-3.1232,-3.2041,0.0,0.0,0.0,-3.3947,-3.377,-3.3616,0.0,0.0,-3.3643,-3.3643,-3.3643,-3.3643,-3.3643,-3.3643,-3.3943,-3.4567,-3.4588,-3.4588,-3.4588,-3.4588,-3.4588,-3.4588,-3.4588,-3.4567,-3.4505,-3.4505,-3.4483,-3.4461,-3.4461,-3.4461,-3.4461,-3.4461,-3.4439,-3.4473,-3.5071,-3.5268,-3.5291,-3.5904,-3.6037,-3.5838,-3.545,-3.5216,-3.5002,-3.4573,-3.4413,-3.4413,-3.4461,-3.4735,-3.503,-3.5028,-3.5062,-3.5114,-3.5114,-3.5114,-3.5114,-3.5114,-3.5114,-3.5114,-3.5114,-3.5114,-3.5162,-3.5283,-3.5311,-3.5372,-3.5483,-3.5495,-3.5495,-3.5495,-3.5538,-3.5562,-3.5562,-3.565,-3.5741,-3.5813,-3.5889,-3.5947,-3.5991,-3.5991,-3.5991,-3.5991,-3.5991,-3.5991,-3.5991,-3.5991,-3.5935,-3.5789,-3.5799,-3.5762,-3.5704,-3.6516,-3.7657,-3.9108,-3.9978,-4.0356,0.0,-2.6063,-2.6468,-2.6572,-2.6674,0.0,0.0,-2.7038,-2.7152,-2.7373,-2.7642,-2.7897,-2.8075,-2.8246,-2.8809,-3.018,-3.0658,-3.1392,0.0,0.0,0.0,-3.3578,0.0,0.0,0.0,-3.3291,-3.3291,-3.3291,-3.3291,-3.3291,-3.3291,-3.3291,-3.3504,-3.3961,-3.3986,-3.3986,-3.3986,-3.4105,-3.4105,-3.3986,-3.4221,-3.4245,-3.4124,-3.4221,-3.4245,-3.4197,-3.4197,-3.4197,0.0,-3.4197,-3.4383,-3.4736,-3.5274,-3.5683,-3.5999,-3.6519,-3.6686,-3.663,-3.6129,-3.5739,-3.5404,-3.4866,-3.45,-3.4269,-3.4269,-3.4524,-3.4813,-3.4813,-3.487,-3.4906,-3.4906,-3.4906,-3.4906,-3.4906,-3.4906,-3.4906,-3.4906,-3.4906,-3.4943,-3.5114,-3.5146,-3.5212,-3.535,-3.5397,-3.5397,-3.5397,-3.5438,-3.5451,-3.5451,-3.5535,-3.565,-3.5784,-3.5866,-3.5929,-3.5991,-3.5991,-3.5991,-3.5991,-3.5991,-3.5991,-3.5991,-3.5999,-3.5937,-3.5809,-3.5791,-3.5762,-3.5704,-3.6845,-3.8295,-4.001,-4.0539,-4.0626,0.0,0.0,0.0,0.0,0.0,0.0,0.0,0.0,0.0,-2.7247,-2.7373,-2.7491,-2.7936,-2.8055,-2.8413,-2.943,-3.023,0.0,0.0,-3.2649,0.0,0.0,-3.3184,0.0,-3.3232,-3.3232,-3.3214,-3.3232,-3.3232,-3.3232,-3.3232,-3.3232,-3.3232,-3.3232,-3.3232,-3.3262,-3.3291,-3.3625,-3.3625,-3.3321,-3.3858,-3.4023,-3.3762,-3.4005,-3.4148,0.0,-3.4173,-3.4173,-3.4148,-3.4247,-3.473,-3.5447,-3.5583,-3.6085,-3.6727,-3.6809,-3.6846,-3.6827,-3.6798,-3.6259,-3.5553,-3.5442,-3.4847,-3.4197,-3.4197,-3.434,-3.4495,-3.4495,-3.4539,-3.4602,-3.4602,-3.4602,-3.4602,-3.4602,-3.4602,-3.4602,-3.4602,-3.4602,-3.4647,-3.487,-3.4908,-3.4945,-3.5176,-3.5209,-3.5209,-3.5209,-3.5304,-3.5398,-3.5398,-3.5495,-3.5631,-3.5776,-3.5853,-3.5943,-3.6088,-3.603,-3.603,-3.6088,-3.603,-3.603,-3.6088,-3.6025,-3.5937,-3.5806,-3.5851,-3.5878,-3.5878,-3.7502,-3.9146,-4.0778,-4.0778,-4.0593,0.0,0.0,0.0,0.0,0.0,0.0,0.0,0.0,0.0,0.0,0.0,0.0,0.0,0.0,-2.8115,-2.9124,0.0,-3.0905,-3.2307,0.0,0.0,-3.2488,-3.2283,-3.2214,-3.242,-3.23,-3.2352,-3.259,-3.259,-3.259,-3.259,-3.259,-3.259,-3.259,-3.259,-3.2816,-3.3291,-3.3379,-3.3379,-3.3291,-3.3447,-3.3476,-3.3408,-3.3476,-3.3504,-3.3532,-3.377,-3.3743,-3.3587,-3.4752,-3.4998,-3.4882,-3.6376,-3.6886,-3.6875,-3.7819,-3.8147,-3.8103,-3.7738,-3.7076,-3.6203,-3.4922,-3.4364,-3.4197,-3.4197,-3.4293,-3.4409,-3.4409,-3.4517,-3.4602,-3.4602,-3.4602,-3.4602,-3.4602,-3.4602,-3.4602,-3.4602,-3.4602,-3.4647,-3.487,-3.4908,-3.4945,-3.5176,-3.5209,-3.5209,-3.5209,-3.5226,-3.5258,-3.5258,-3.5311,-3.5438,-3.564,-3.5702,-3.6093,-3.6925,-3.6384,-3.6286,-3.695,-3.6364,-3.6306,-3.697,-3.6348,-3.5937,-3.5805,-3.6348,-3.6961,-3.7618,-3.8682,-3.967,-4.0574,-4.0574,-4.0419,0.0,0.0,0.0,0.0,0.0,0.0,0.0,0.0,0.0,0.0,0.0,0.0,0.0,0.0,0.0,0.0,-2.9462,0.0,0.0,0.0,-3.1771,-3.1694,-3.1562,-3.1579,0.0,-3.1765,-3.1802,-3.1965,-3.1982,-3.1982,-3.1982,-3.2108,-3.2179,-3.2179,-3.2319,-3.2541,-3.288,-3.3019,-3.3019,-3.288,-3.3172,-3.3214,-3.3093,-3.3214,-3.3291,-3.3339,-3.3894,-3.4029,-3.3936,-3.5089,-3.5549,-3.5675,-3.6703,-3.7235,-3.7486,-3.815,-3.8378,-3.8337,-3.8071,-3.7213,-3.5993,-3.4489,-3.4023,-3.4049,-3.4173,-3.4269,-3.4363,-3.4386,-3.4473,-3.4561,-3.4583,-3.4602,-3.4602,-3.4602,-3.4602,-3.4602,-3.4602,-3.4602,-3.4647,-3.487,-3.4908,-3.4945,-3.5176,-3.5209,-3.5209,-3.5209,-3.5209,-3.5209,-3.5209,-3.5311,-3.5438,-3.5592,-3.606,-3.6598,-3.7259,-3.6872,-3.6794,-3.7262,-3.6852,-3.6638,-3.6696,-3.6247,-3.6131,-3.6384,-3.6734,-3.7522,-3.8798,-3.9262,-3.9831,-4.0511,-4.0511,-4.0351,0.0,0.0,-2.4415,-2.4879,-2.4997,-2.5114,0.0,0.0,0.0,0.0,0.0,0.0,0.0,-2.6856,0.0,0.0,0.0,0.0,-3.0501,-3.0633,-3.0794,-3.0988,-3.1004,0.0,-3.1351,-3.1334,-3.1389,-3.1428,-3.1466,-3.1504,-3.1504,-3.1728,-3.1821,-3.1821,-3.2108,-3.2284,-3.2284,-3.2588,-3.2621,-3.2406,-3.2912,-3.3001,-3.2749,-3.305,-3.3226,-3.3388,-3.4104,0.0,-3.4614,-3.5435,-3.6107,-3.6654,-3.6847,-3.7334,-3.7931,-3.8,-3.8,-3.798,-3.7778,-3.6761,-3.5338,-3.4128,-3.3734,-3.3762,-3.3979,-3.4105,-3.4179,-3.4293,-3.4427,-3.4517,-3.4583,-3.4602,-3.4602,-3.4602,-3.4602,-3.4602,-3.4602,-3.4602,-3.4647,-3.487,-3.4908,-3.4945,-3.5176,-3.5209,-3.5209,-3.5209,-3.5209,-3.5209,-3.5209,-3.5484,-3.5693,-3.5796,-3.6577,-3.7205,-3.7474,-3.7379,-3.7301,-3.7301,-3.7184,-3.6774,-3.603,-3.6101,-3.6465,-3.7085,-3.722,-3.8025,-3.9507,-3.9598,-3.992,-4.0462,-4.0446,-4.03,-2.2509,-2.2512,-2.2935,-2.4147,-2.4426,-2.4492,-2.4719,-2.5013,0.0,0.0,0.0,0.0,0.0,-2.6534,-2.7494,0.0,0.0,-3.0451,0.0,0.0,-3.0608,-3.0666,0.0,-3.0452,-3.0707,-3.0747,-3.0885,-3.1123,-3.1372,-3.1504,-3.1504,-3.1542,-3.1542,-3.1542,-3.1634,-3.1634,-3.1634,-3.2179,-3.2457,-3.2406,-3.2473,-3.2507,-3.2473,-3.2507,-3.2894,-3.3511,0.0,-3.43,-3.4765,-3.6101,-3.6342,-3.6035,-3.7041,-3.7306,-3.7185,-3.7487,-3.7578,-3.7453,-3.6429,-3.5457,-3.4546,-3.3669,-3.3379,-3.3379,-3.3437,-3.3447,-3.3532,-3.3954,-3.4269,-3.4517,-3.4583,-3.4602,-3.4602,-3.4602,-3.4602,-3.4602,-3.4602,-3.4602,-3.4647,-3.487,-3.4908,-3.4945,-3.5176,-3.5209,-3.5209,-3.5209,-3.5209,-3.5209,-3.5209,-3.5917,-3.6496,-3.6687,-3.6889,-3.7391,-3.8313,-3.7711,-3.7301,-3.7301,-3.6618,-3.615,-3.601,-3.6597,-3.6988,-3.7093,-3.8431,-3.9236,-3.9507,-4.0061,-4.0346,-4.0334,-4.0212,-4.0021,-2.217,-2.2016,-2.1974,-2.256,-2.3157,-2.3752,-2.4214,-2.4599,0.0,0.0,0.0,0.0,0.0,0.0,-2.7273,-2.8279,0.0,-2.9793,-2.9793,-2.9793,-2.9837,0.0,0.0,-2.9897,-3.014,-3.0309,-3.0452,-3.0617,-3.0838,-3.0958,-3.0958,-3.1117,-3.1252,-3.1252,-3.1781,-3.2047,-3.2047,-3.2689,-3.2668,-3.191,-3.2291,-3.2572,-3.2806,-3.3188,-3.3646,-3.4179,0.0,-3.5098,-3.5392,-3.645,-3.6712,-3.6517,-3.7044,-3.7147,-3.7009,-3.7185,-3.694,-3.6447,-3.5492,-3.4634,-3.3865,-3.3221,-3.3032,-3.3063,-3.3262,-3.3397,-3.3512,-3.3762,-3.4023,-3.4293,-3.4539,-3.4602,-3.4602,-3.4602,-3.4602,-3.4602,-3.4602,-3.4602,-3.4647,-3.487,-3.4908,-3.4945,-3.5176,-3.5209,-3.5209,-3.5209,-3.5209,-3.5381,-3.584,-3.6343,-3.6717,-3.6881,-3.74,-3.7786,-3.7884,-3.7536,-3.7301,-3.7301,-3.6482,-3.6208,-3.6677,-3.6962,-3.7539,-3.8496,-3.9166,-3.9739,-4.0191,-4.0395,-4.0431,-4.03,-4.0157,-3.996,-2.1732,-2.1527,-2.1224,-2.1369,0.0,-2.295,-2.3537,-2.4006,0.0,0.0,0.0,0.0,0.0,-2.5817,0.0,-2.8576,-2.8873,-2.892,-2.8826,-2.892,-2.9013,-2.9227,-2.9273,-2.9364,-2.9633,-2.987,-3.006,-3.0087,-3.0258,-3.0384,-3.0468,-3.0634,-3.084,-3.1146,-3.183,-3.2307,-3.2557,-3.3109,-3.2904,-3.1995,-3.2502,-3.2894,-3.3235,-3.3878,-3.4436,-3.4874,-3.5528,-3.5917,-3.6145,-3.6742,-3.6987,-3.6987,-3.6987,-3.6987,-3.6987,-3.6987,-3.6373,-3.5478,-3.4898,-3.4056,-3.3196,-3.2831,-3.2702,-3.2766,-3.3019,-3.322,-3.3415,-3.3541,-3.3734,-3.3954,-3.4363,-3.4495,-3.4517,-3.4517,-3.458,-3.4602,-3.4602,-3.4602,-3.4647,-3.487,-3.4908,-3.4945,-3.5176,-3.5209,-3.5209,-3.5209,-3.5381,-3.5763,-3.6413,-3.6795,-3.7032,-3.7161,-3.7728,-3.7784,-3.7064,-3.7009,-3.7087,-3.7282,-3.6677,-3.6599,-3.7262,-3.7567,-3.8337,-3.9676,-3.9765,-4.0133,-4.079,-4.0559,-4.0399,-4.03,-4.0101,-3.9989,-2.0858,-2.0709,-2.0795,-2.1272,-2.1813,-2.2263,-2.231,-2.3024,0.0,-2.3493,0.0,0.0,0.0,-2.597,-2.7109,-2.7841,-2.8304,-2.8415,-2.8061,0.0,-2.8559,-2.8559,-2.8559,-2.8716,-2.9121,-2.938,-2.9649,-2.981,-2.9837,-3.0027,-3.0468,-3.0113,-3.0424,-3.152,-3.1473,-3.1803,-3.2685,-3.2752,-3.3007,-3.3434,-3.3485,-3.356,-3.356,-3.4002,-3.4597,-3.5278,-3.5622,-3.6233,-3.69,-3.697,-3.6987,-3.6987,-3.6987,-3.6987,-3.6987,-3.6987,-3.6039,-3.4758,-3.4705,-3.3722,-3.2458,-3.244,-3.2422,-3.2422,-3.2457,-3.2557,-3.2752,-3.3124,-3.3332,-3.3532,-3.3928,-3.4173,-3.4316,-3.4316,-3.4473,-3.4602,-3.4602,-3.4602,-3.4647,-3.487,-3.4908,-3.4945,-3.5176,-3.5209,-3.5209,-3.5209,-3.5897,-3.6432,-3.6472,-3.7261,-3.7868,-3.8003,-3.7482,-3.6832,-3.6144,-3.6088,-3.6443,-3.7243,-3.7243,-3.7223,-3.7301,-3.8719,-3.9571,-3.9695,-4.0365,-4.0732,-4.079,-4.0466,-4.0317,-4.03,-3.9899,-4.008,-2.0409,-2.022,-2.0055,-2.0346,-2.0795,0.0,0.0,-2.2114,-2.2469,-2.268,-2.3194,0.0,0.0,0.0,-2.7375,-2.7819,-2.8012,-2.8061,-2.7898,-2.8012,-2.811,-2.811,-2.811,-2.8255,-2.8669,-2.8748,-2.8889,-2.9227,-2.9166,-2.9196,-2.9377,-2.9838,-3.0298,-3.0755,-3.1984,-3.2774,-3.3129,-3.373,-3.4193,-3.4404,-3.3935,-3.3832,-3.4066,-3.4686,-3.5198,-3.5693,-3.5835,-3.6032,-3.6308,-3.6308,-3.6308,-3.6308,-3.6308,-3.6308,-3.6298,-3.6052,-3.5257,-3.4356,-3.4053,-3.3283,-3.2406,-3.2406,-3.2406,-3.2406,-3.2406,-3.2574,-3.2802,-3.2975,-3.3208,-3.3502,-3.3895,-3.4049,-3.4124,-3.4124,-3.4173,-3.4221,-3.4221,-3.4386,-3.4564,-3.4693,-3.487,-3.5056,-3.5193,-3.5649,-3.6012,-3.6012,-3.6719,-3.7254,-3.7307,-3.7644,-3.7747,-3.7344,-3.6703,-3.6234,-3.6027,-3.6501,-3.695,-3.7282,-3.7301,-3.7762,-3.8808,-3.9406,-3.994,-4.0442,-4.0674,-4.0746,-4.0621,-4.0399,-4.0266,-4.0177,-4.0404,-4.0602,-2.0016,-1.9914,-1.9708,-1.9798,0.0,0.0,-2.093,-2.1342,-2.1724,-2.1988,-2.2692,-2.3787,-2.561,0.0,0.0,0.0,-2.768,-2.768,-2.758,-2.768,-2.773,-2.773,-2.773,-2.7879,-2.8255,-2.8255,-2.8304,-2.8701,-2.8543,-2.8543,-2.8685,-2.9437,-3.01,-3.0625,-3.2128,-3.321,-3.3743,-3.4444,-3.4804,-3.4883,-3.4386,-3.4276,-3.4504,-3.5143,-3.5543,-3.5732,-3.5864,-3.5907,-3.5907,-3.5907,-3.5907,-3.5907,-3.5907,-3.577,-3.554,-3.5253,-3.4542,-3.3667,-3.345,-3.2878,-3.2267,-3.2371,-3.2406,-3.2406,-3.2406,-3.2641,-3.2916,-3.2916,-3.3135,-3.3452,-3.3753,-3.386,-3.3895,-3.3895,-3.3947,-3.3998,-3.3998,-3.4197,-3.4409,-3.4483,-3.4772,-3.5096,-3.5432,-3.6037,-3.6604,-3.6852,-3.7349,-3.7729,-3.7747,-3.7622,-3.7209,-3.6524,-3.6137,-3.5947,-3.5991,-3.6794,-3.7419,-3.7692,-3.7965,-3.8628,-3.9754,-3.9989,-4.0334,-4.09,-4.0829,-4.07,-4.0511,-4.0367,-4.0346,-4.046,-4.0764,-4.113,-1.9617,-1.9708,-1.9798,0.0,0.0,0.0,-1.9798,-2.0733,-2.1561,-2.1431,-2.2346,-2.3521,-2.4721,-2.5458,0.0,-2.6674,-2.7144,-2.7248,-2.6832,-2.7144,-2.7401,-2.7401,-2.7401,-2.7524,-2.7864,-2.7898,-2.7997,-2.824,-2.8046,-2.8094,-2.8638,-2.8817,-2.9658,-3.1324,-3.1804,-3.2806,-3.4431,-3.4497,-3.4643,-3.4899,-3.4899,-3.4899,-3.4899,-3.5241,-3.5379,-3.5424,-3.5732,-3.589,-3.5907,-3.5907,-3.5907,-3.5907,-3.589,-3.5463,-3.4873,-3.4873,-3.3898,-3.2655,-3.298,-3.2553,-3.1948,-3.2267,-3.2406,-3.2388,-3.2388,-3.2641,-3.2884,-3.2916,-3.3135,-3.3393,-3.3393,-3.3549,-3.3698,-3.3698,-3.3842,-3.3998,-3.3998,-3.4049,-3.4148,-3.4269,-3.4524,-3.4999,-3.593,-3.6348,-3.6795,-3.7597,-3.7712,-3.7712,-3.7693,-3.7051,-3.6362,-3.5765,-3.588,-3.5991,-3.601,-3.6813,-3.7672,-3.8553,-3.9429,-3.9877,-3.9813,-4.051,-4.0896,-4.09,-4.0829,-4.07,-4.0511,-4.0367,-4.0616,-4.1187,-4.0947,-4.16,-1.9263,-1.942,0.0,-1.9512,0.0,0.0,0.0,-2.0003,0.0,0.0,-2.2669,-2.3552,-2.4723,-2.5466,0.0,-2.6111,-2.6606,-2.6937,-2.6832,-2.6884,-2.6989,-2.6989,-2.6989,-2.713,-2.7524,-2.7321,-2.7269,-2.7625,-2.7306,-2.7218,-2.7357,-2.8584,-2.9501,-3.0,-3.1459,-3.2462,-3.2917,-3.3459,-3.3767,-3.3869,-3.4168,-3.4448,-3.4594,-3.4739,-3.4675,-3.448,-3.461,-3.4738,-3.4944,-3.5131,-3.5195,-3.5144,-3.4609,-3.432,-3.4019,-3.322,-3.2645,-3.2229,-3.2034,-3.1806,-3.1617,-3.1746,-3.1783,-3.1819,-3.1984,-3.2283,-3.2603,-3.2834,-3.3135,-3.3393,-3.3393,-3.3452,-3.3509,-3.3509,-3.352,-3.3577,-3.3577,-3.3743,-3.3917,-3.4055,-3.475,-3.5512,-3.6005,-3.7146,-3.8137,-3.8554,-3.861,-3.8207,-3.707,-3.6285,-3.5798,-3.5715,-3.5741,-3.6098,-3.685,-3.7711,-3.857,-3.939,-4.0268,-4.0681,-4.057,-4.0785,-4.0876,-4.0842,-4.081,-4.0654,-4.0367,-4.0931,-4.115,-4.1085,-4.2039,-4.2669,-1.917,-1.9328,0.0,-1.942,-1.9512,-1.9604,-1.9565,0.0,0.0,0.0,-2.2463,-2.3226,-2.4393,-2.4921,0.0,-2.5481,-2.5879,-2.6096,-2.6096,-2.6272,-2.6447,-2.6447,-2.6674,-2.6884,-2.7144,-2.6937,-2.6884,-2.7144,-2.6937,-2.6779,-2.6779,-2.8008,-2.8916,-2.9401,-3.0744,-3.1784,-3.2266,-3.2917,-3.3287,-3.3391,-3.3681,-3.3968,-3.4201,-3.43,-3.425,-3.4101,-3.4201,-3.4349,-3.4497,-3.4804,-3.4899,-3.4816,-3.4087,-3.3607,-3.3255,-3.225,-3.1717,-3.1441,-3.1348,-3.1291,-3.1312,-3.1483,-3.1504,-3.1542,-3.1691,-3.1966,-3.2231,-3.2454,-3.2719,-3.2975,-3.3147,-3.3178,-3.3208,-3.3364,-3.3393,-3.3393,-3.3393,-3.3569,-3.3752,-3.3815,-3.4735,-3.5703,-3.6242,-3.7605,-3.8643,-3.8822,-3.8364,-3.7534,-3.6239,-3.5743,-3.5538,-3.565,-3.6021,-3.6528,-3.718,-3.8369,-3.9292,-3.9819,-4.0617,-4.1015,-4.0898,-4.0933,-4.0897,-4.0803,-4.0713,-4.0737,-4.0818,-4.1246,-4.1597,-4.1876,-4.2723,-4.3164,-1.9117,0.0,0.0,-1.9251,-1.9316,0.0,-1.942,-2.0089,-2.0878,-2.1393,0.0,-2.2647,-2.3794,-2.4073,-2.4292,-2.4851,-2.4951,-2.5007,-2.5007,-2.5481,-2.5839,-2.5839,-2.6272,-2.6674,-2.6727,-2.6727,-2.6727,-2.6779,-2.6779,-2.6779,-2.6779,-2.7389,-2.8177,-2.9317,-2.9941,-3.0848,-3.2155,-3.261,-3.2986,-3.3235,-3.3235,-3.3371,-3.3539,-3.3848,-3.4,-3.405,-3.4349,-3.4448,-3.4497,-3.4804,-3.4849,-3.4717,-3.3988,-3.3243,-3.2497,-3.1785,-3.1064,-3.0551,-3.0855,-3.0935,-3.1015,-3.1312,-3.1389,-3.1389,-3.1445,-3.1637,-3.1858,-3.1894,-3.2127,-3.2419,-3.2666,-3.2795,-3.2957,-3.3256,-3.3364,-3.3393,-3.3393,-3.3509,-3.3595,-3.3696,-3.4649,-3.5751,-3.6656,-3.7779,-3.8502,-3.8393,-3.7298,-3.6208,-3.5396,-3.5412,-3.5574,-3.5715,-3.6542,-3.715,-3.7336,-3.8846,-3.9858,-3.9995,-4.0625,-4.098,-4.0909,-4.0956,-4.0938,-4.079,-4.0684,-4.0934,-4.1605,-4.1469,-4.2035,-4.32,-4.3128,-4.3318,0.0,-1.8429,0.0,0.0,-1.8827,-1.9275,-1.9368,-2.0224,-2.1008,-2.1313,-2.1773,-2.2368,-2.3144,-2.378,-2.4118,-2.4292,-2.4681,-2.5007,-2.5007,-2.5133,-2.5189,-2.5189,-2.53,-2.5591,-2.6056,-2.6111,-2.6286,-2.6779,-2.6779,-2.6779,-2.6779,-2.7389,-2.8068,-2.882,-2.9462,-3.0148,-3.0955,-3.1422,-3.1709,-3.1766,-3.2089,-3.2256,-3.2327,-3.2949,-3.3351,-3.3503,-3.4,-3.4201,-3.4201,-3.4691,-3.4551,-3.3955,-3.321,-3.2481,-3.1769,-3.1023,-3.0659,-3.051,-3.0551,-3.0609,-3.0609,-3.0675,-3.0716,-3.0757,-3.1055,-3.1295,-3.1565,-3.1821,-3.2283,-3.2634,-3.2468,-3.283,-3.3208,-3.2988,-3.3178,-3.3393,-3.3393,-3.3422,-3.3662,-3.4407,-3.5261,-3.624,-3.7431,-3.7869,-3.7716,-3.678,-3.659,-3.6259,-3.5411,-3.5422,-3.5797,-3.6618,-3.6884,-3.7611,-3.908,-3.9582,-4.0093,-4.0795,-4.0937,-4.0976,-4.0896,-4.0907,-4.0868,-4.079,-4.1282,-4.155,-4.1605,-4.265,-4.3169,-4.3219,-4.3774,-4.4222,0.0,0.0,0.0,-1.8093,0.0,-1.8429,-1.904,-1.9583,-2.0041,-2.0517,-2.1624,-2.2573,-2.2967,-2.3305,-2.3603,-2.3603,-2.3884,-2.4105,-2.4105,-2.4394,-2.4567,-2.4567,-2.4851,-2.5133,-2.5425,-2.5481,-2.5715,-2.634,-2.6394,-2.65,-2.6779,-2.7099,-2.7563,-2.8202,-2.855,-2.916,-3.0103,-3.0572,-3.0951,-3.1278,-3.1495,-3.161,-3.161,-3.2185,-3.2532,-3.2672,-3.3439,-3.3748,-3.3799,-3.4578,-3.4468,-3.3723,-3.2978,-3.2249,-3.1494,-3.0791,-3.0526,-3.0526,-3.0526,-3.0526,-3.0526,-3.0526,-3.0526,-3.051,-3.0733,-3.0958,-3.1218,-3.1372,-3.1731,-3.2074,-3.2231,-3.2603,-3.2912,-3.3068,-3.3256,-3.3393,-3.3393,-3.3742,-3.4211,-3.4699,-3.5846,-3.6806,-3.7091,-3.6972,-3.6691,-3.6174,-3.6035,-3.5814,-3.5373,-3.5739,-3.6299,-3.6891,-3.7724,-3.8661,-3.9672,-4.0164,-4.0591,-4.1034,-4.0988,-4.093,-4.0898,-4.1238,-4.1409,-4.1371,-4.159,-4.2042,-4.2699,-4.3217,-4.354,-4.3746,-4.4461,-4.4508,0.0,0.0,-1.7929,-1.782,-1.7479,0.0,-1.8483,-1.8669,-1.8868,-1.9454,-2.1236,-2.2653,-2.2714,-2.2896,-2.3078,-2.3078,-2.3078,-2.3078,-2.3078,-2.3603,-2.3956,-2.3956,-2.4394,-2.4724,-2.4851,-2.4851,-2.5077,-2.5715,-2.5715,-2.6002,-2.6621,-2.6621,-2.6963,-2.7654,-2.7668,-2.8289,-2.945,-2.9837,-3.033,-3.0835,-3.0954,-3.0998,-3.0998,-3.1492,-3.1766,-3.1936,-3.2917,-3.3339,-3.3391,-3.4366,-3.4292,-3.3495,-3.2883,-3.2122,-3.1355,-3.0742,-3.0526,-3.0526,-3.0526,-3.0526,-3.0526,-3.0526,-3.0526,-3.0526,-3.0526,-3.0692,-3.0912,-3.0912,-3.1112,-3.1389,-3.1985,-3.2214,-3.2453,-3.3055,-3.3256,-3.3334,-3.3411,-3.4127,-3.4827,-3.5002,-3.6362,-3.7184,-3.6248,-3.5876,-3.5716,-3.5814,-3.5524,-3.5354,-3.5507,-3.62,-3.6864,-3.7323,-3.8714,-3.9696,-3.992,-4.0645,-4.1068,-4.1004,-4.0948,-4.0968,-4.1093,-4.168,-4.2131,-4.2389,-4.2165,-4.2642,-4.3859,-4.3567,-4.3793,-4.4509,-4.4917,-4.4561,0.0,0.0,-1.7202,0.0,-1.6866,-1.7257,0.0,0.0,-1.8747,0.0,-2.0312,-2.1702,-2.2013,-2.2519,-2.2969,-2.3078,-2.3078,-2.3078,-2.3078,-2.3198,-2.3245,-2.3245,-2.3305,-2.359,-2.4176,-2.4234,-2.4452,-2.5077,-2.5133,-2.537,-2.6002,-2.6002,-2.6517,-2.7654,-2.7668,-2.8071,-2.8797,-2.8853,-2.8953,-2.9055,-2.9609,-2.9813,-2.9828,-3.0499,-3.1204,-3.1921,-3.2718,-3.3039,-3.3093,-3.3866,-3.355,-3.2495,-3.2397,-3.1677,-3.0617,-3.0559,-3.0526,-3.0526,-3.0526,-3.0526,-3.0526,-3.0526,-3.0526,-3.0526,-3.0526,-3.0692,-3.0912,-3.0912,-3.1257,-3.1582,-3.1406,-3.1804,-3.2317,-3.2419,-3.2684,-3.2988,-3.3316,-3.4098,-3.4932,-3.5702,-3.6747,-3.7,-3.5459,-3.5467,-3.5484,-3.4814,-3.5037,-3.5584,-3.6332,-3.6599,-3.7347,-3.9054,-3.9451,-3.9953,-4.0844,-4.103,-4.1069,-4.0996,-4.0944,-4.1205,-4.1912,-4.199,-4.2632,-4.3975,-4.3843,-4.375,-4.3741,-4.4113,-4.4674,-4.5312,-4.4563,-4.4564,-1.7875,-1.7034,-1.6425,0.0,-1.6255,-1.6431,-1.737,0.0,-1.7719,-1.8354,-1.9308,-2.0409,-2.1439,-2.1628,-2.1877,-2.2726,-2.2641,-2.2567,-2.2957,-2.3078,-2.3078,-2.3078,-2.3078,-2.3198,-2.3484,-2.3543,-2.3826,-2.4452,-2.4509,-2.4738,-2.537,-2.5425,-2.5772,-2.6686,-2.6686,-2.7164,-2.8144,-2.8144,-2.8332,-2.8681,-2.8956,-2.9276,-2.9639,-2.9914,-3.0456,-3.119,-3.1962,-3.2281,-3.2336,-3.3039,-3.2782,-3.1898,-3.1898,-3.1328,-3.0526,-3.0526,-3.0526,-3.0526,-3.0526,-3.0526,-3.0526,-3.0526,-3.0526,-3.0526,-3.0526,-3.0692,-3.0912,-3.0912,-3.1134,-3.1428,-3.1449,-3.1731,-3.2056,-3.2468,-3.2699,-3.3033,-3.3894,-3.48,-3.5702,-3.6662,-3.6428,-3.5881,-3.5119,-3.5021,-3.4921,-3.4545,-3.4961,-3.5622,-3.6485,-3.7079,-3.7997,-3.9432,-3.9994,-4.0497,-4.1046,-4.1108,-4.105,-4.0957,-4.1365,-4.1745,-4.2028,-4.285,-4.3538,-4.4058,-4.402,-4.4067,-4.4264,-4.4814,-4.4931,-4.4656,-4.4985,-4.4743,0.0,0.0,-1.6093,-1.6036,-1.569,-1.5751,0.0,0.0,-1.6973,0.0,-1.8415,-1.9177,-2.0549,-2.0666,-2.0846,-2.1963,-2.1827,-2.1815,-2.2457,-2.2702,-2.2884,-2.3017,-2.3078,-2.3078,-2.3078,-2.3078,-2.3305,-2.3839,-2.3839,-2.4118,-2.4738,-2.4794,-2.5021,-2.566,-2.566,-2.6104,-2.7011,-2.715,-2.7559,-2.8202,-2.8361,-2.8768,-2.9392,-2.9552,-2.9972,-3.0628,-3.1306,-3.158,-3.1637,-3.2266,-3.2034,-3.1308,-3.1308,-3.084,-3.0156,-3.0156,-3.0199,-3.0342,-3.0342,-3.0384,-3.0526,-3.0526,-3.0526,-3.0526,-3.0526,-3.0692,-3.0912,-3.0912,-3.1032,-3.1269,-3.1524,-3.1582,-3.1714,-3.2368,-3.2743,-3.333,-3.4666,-3.5502,-3.6236,-3.7026,-3.6009,-3.4935,-3.4715,-3.4574,-3.4508,-3.4529,-3.5151,-3.5948,-3.6826,-3.7757,-3.8749,-3.9791,-4.0468,-4.0915,-4.106,-4.1066,-4.1113,-4.1202,-4.182,-4.2325,-4.2647,-4.3682,-4.4324,-4.4531,-4.4426,-4.4526,-4.4885,-4.5105,-4.4997,-4.4655,-4.51,-4.462,0.0,-1.6652,0.0,-1.5498,-1.5313,0.0,0.0,0.0,-1.6855,-1.736,-1.7782,-1.8269,-1.8977,-1.9748,-2.0398,-2.0655,-2.0719,-2.091,-2.1553,-2.1815,-2.2199,-2.2836,-2.3017,-2.3078,-2.3078,-2.3078,-2.3138,-2.3138,-2.3125,-2.3424,-2.4131,-2.4118,-2.4408,-2.5021,-2.5077,-2.509,-2.5118,-2.5702,-2.629,-2.6895,-2.749,-2.8115,-2.8753,-2.9348,-2.9972,-3.0642,-3.1102,-3.1336,-3.1336,-3.1766,-3.1404,-3.0541,-3.0541,-3.0,-2.9166,-2.9166,-2.9438,-2.9853,-2.9853,-3.0113,-3.0526,-3.0526,-3.0526,-3.0526,-3.0526,-3.0692,-3.0912,-3.0912,-3.1032,-3.119,-3.123,-3.123,-3.1329,-3.1694,-3.2632,-3.3897,-3.5587,-3.5976,-3.6072,-3.6311,-3.5624,-3.4752,-3.399,-3.4227,-3.4529,-3.4591,-3.57,-3.6846,-3.7717,-3.8717,-3.9696,-4.0645,-4.0887,-4.0983,-4.0996,-4.1006,-4.13,-4.1991,-4.2075,-4.2808,-4.4407,-4.4232,-4.4787,-4.6249,-4.583,-4.5557,-4.5455,-4.4726,-4.5034,-4.6327,-4.4299,-4.3962,0.0,0.0,0.0,-1.5672,-1.5381,-1.5448,-1.6205,-1.6548,-1.6934,-1.7646,-1.791,-1.8076,-1.8337,-1.8586,-1.911,-2.0085,-2.002,-2.0009,-2.0655,-2.1026,-2.1279,-2.153,-2.2113,-2.2433,-2.2433,-2.2884,-2.3078,-2.3078,-2.3078,-2.3198,-2.3424,-2.3484,-2.3767,-2.4408,-2.4408,-2.4794,-2.5591,-2.5784,-2.6233,-2.6779,-2.7012,-2.7679,-2.8695,-2.8913,-2.9595,-3.0628,-3.0747,-3.0866,-3.0866,-3.1043,-3.0687,-3.0044,-3.0044,-2.9639,-2.9074,-2.9074,-2.9212,-2.9348,-2.9348,-2.9483,-2.9617,-2.9617,-2.981,-3.007,-3.007,-3.0468,-3.0912,-3.0912,-3.1032,-3.119,-3.119,-3.119,-3.1487,-3.2593,-3.3336,-3.4237,-3.5672,-3.6012,-3.5896,-3.5559,-3.4816,-3.4137,-3.3844,-3.4189,-3.4698,-3.5348,-3.61,-3.7114,-3.8543,-3.9122,-3.9755,-4.0704,-4.0918,-4.1003,-4.0992,-4.0991,-4.1311,-4.2047,-4.2615,-4.3446,-4.4562,-4.5225,-4.5793,-4.6272,-4.5808,-4.5552,-4.5499,-4.5649,-4.5259,-4.4373,-4.4473,-4.4462,-1.7457,0.0,0.0,0.0,0.0,-1.5436,-1.6283,0.0,-1.6973,-1.7832,-1.8008,-1.8008,-1.8008,-1.8008,-1.8337,-1.9253,-1.89,-1.8824,-1.9748,-2.0128,-2.0375,-2.0696,-2.1467,-2.2051,-2.2101,-2.2689,-2.3078,-2.3078,-2.3078,-2.3078,-2.3078,-2.3078,-2.3305,-2.3767,-2.3767,-2.4234,-2.5272,-2.5328,-2.5715,-2.65,-2.65,-2.727,-2.8681,-2.8681,-2.9377,-3.0568,-3.0568,-3.0568,-3.0553,-3.035,-2.9941,-2.946,-2.9289,-2.8951,-2.8511,-2.8559,-2.8701,-2.8842,-2.8842,-2.8935,-2.9074,-2.9074,-2.9303,-2.9572,-2.975,-3.0199,-3.0675,-3.0871,-3.1032,-3.119,-3.119,-3.1376,-3.1901,-3.3175,-3.3846,-3.4454,-3.5399,-3.5611,-3.5495,-3.5072,-3.4357,-3.3815,-3.3921,-3.4479,-3.5192,-3.5926,-3.684,-3.7878,-3.9077,-3.9618,-4.0109,-4.0723,-4.094,-4.1023,-4.096,-4.1232,-4.1723,-4.2467,-4.3311,-4.423,-4.5218,-4.5955,-4.6359,-4.643,-4.6034,-4.5687,-4.5426,-4.5592,-4.5094,-4.4017,-4.4714,-4.5053,0.0,0.0,0.0,0.0,0.0,0.0,-1.6283,0.0,-1.6928,-1.7832,-1.8008,-1.8008,-1.8008,-1.8008,-1.794,-1.8008,-1.7432,-1.7413,-1.8777,-1.911,-1.9562,-2.0462,-2.1302,-2.1939,-2.2051,-2.2677,-2.3078,-2.3078,-2.3078,-2.3078,-2.3078,-2.3078,-2.3078,-2.3078,-2.3078,-2.3424,-2.4073,-2.4131,-2.4694,-2.5893,-2.5893,-2.6873,-2.8681,-2.8681,-2.9377,-3.0568,-3.0568,-3.0568,-3.0495,-2.9871,-2.9319,-2.8846,-2.8297,-2.7794,-2.7401,-2.7524,-2.7894,-2.8304,-2.8304,-2.8638,-2.909,-2.909,-2.909,-2.9166,-2.9617,-2.9924,-3.0166,-3.0733,-3.1032,-3.119,-3.119,-3.1715,-3.248,-3.3298,-3.4039,-3.4588,-3.4776,-3.479,-3.4801,-3.4926,-3.4339,-3.3895,-3.4148,-3.5105,-3.5916,-3.6292,-3.7919,-3.9164,-3.9315,-4.0188,-4.0791,-4.081,-4.0978,-4.1053,-4.0953,-4.1701,-4.251,-4.3299,-4.4123,-4.5194,-4.6532,-4.632,-4.6411,-4.6873,-4.6626,-4.6085,-4.5324,-4.4488,-4.458,-4.5569,-4.5016,-4.587,-1.8116,0.0,0.0,0.0,0.0,0.0,0.0,0.0,-1.7203,-1.7833,-1.8008,-1.8008,-1.8008,-1.7579,-1.7364,-1.794,-1.7794,-1.7862,-1.8202,-1.8462,-1.8731,-1.9054,-2.0268,-2.1152,-2.1376,-2.2445,-2.3078,0.0,-2.3078,-2.3078,-2.3078,-2.3078,-2.3078,-2.3078,-2.3078,-2.3424,-2.4073,-2.4131,-2.4465,-2.5245,-2.5715,-2.6651,-2.8082,-2.8497,-2.9377,-3.0568,-3.0568,-3.0306,-2.9871,-2.9697,-2.9319,-2.8846,-2.8297,-2.7794,-2.7401,-2.7524,-2.766,-2.7795,-2.7795,-2.7894,-2.7993,-2.7993,-2.8222,-2.8543,-2.8779,-2.9196,-2.9717,-3.0309,-3.0576,-3.0781,-3.1112,-3.1343,-3.1832,-3.3175,-3.3213,-3.3296,-3.454,-3.4353,-3.3962,-3.411,-3.3954,-3.3895,-3.4148,-3.5132,-3.6168,-3.7053,-3.8316,-3.9435,-4.0223,-4.0613,-4.0848,-4.0929,-4.0996,-4.1244,-4.178,-4.2021,-4.2717,-4.4156,-4.4238,-4.4953,-4.6532,-4.6117,-4.6175,-4.6892,-4.6085,-4.5755,-4.6023,-4.5782,-4.5405,-4.498,-4.6293,-4.7455,0.0,0.0,0.0,0.0,0.0,0.0,-1.6832,-1.7105,-1.748,-1.8237,-1.8202,-1.8008,-1.8008,-1.7647,-1.751,-1.794,-1.8008,-1.8008,-1.8008,-1.8076,-1.8279,-1.8482,-1.9814,-2.0846,-2.106,-2.2322,-2.3078,-2.3078,-2.3078,-2.3078,-2.3078,-2.3078,-2.3078,-2.3078,-2.3078,-2.3305,-2.3662,-2.3662,-2.4002,-2.4624,-2.4978,-2.5823,-2.7037,-2.7593,-2.8418,-2.9397,-2.9668,-2.9528,-2.9156,-2.8929,-2.8679,-2.8327,-2.7886,-2.7558,-2.7335,-2.7524,-2.7625,-2.7625,-2.7625,-2.7625,-2.7625,-2.7625,-2.781,-2.8076,-2.8304,-2.8732,-2.9271,-2.9995,-3.0477,-3.0945,-3.1523,-3.1647,-3.1969,-3.3157,-3.3125,-3.31,-3.4068,-3.3962,-3.3671,-3.378,-3.3807,-3.4031,-3.4745,-3.5728,-3.6797,-3.7983,-3.9076,-3.9965,-4.0623,-4.0759,-4.0857,-4.0991,-4.1324,-4.1726,-4.2159,-4.28,-4.3535,-4.4349,-4.4874,-4.5476,-4.6199,-4.6214,-4.6214,-4.6225,-4.5618,-4.566,-4.6397,-4.6316,-4.6415,-4.6659,-4.7701,-4.8523,0.0,0.0,0.0,0.0,-1.7216,0.0,-1.7891,-1.7775,-1.7803,-1.8762,-1.8452,-1.794,-1.794,-1.794,-1.794,-1.8008,-1.8008,-1.8008,-1.8008,-1.8008,-1.8144,-1.8539,-1.9759,-2.0794,-2.1123,-2.2384,-2.3078,-2.3078,-2.3078,-2.3078,-2.3078,-2.3078,-2.3078,-2.3078,-2.3078,-2.3078,-2.3078,-2.3078,-2.3424,-2.4015,-2.406,-2.4713,-2.5801,-2.6389,-2.6959,-2.7639,-2.8158,-2.8372,-2.8278,-2.7726,-2.7559,-2.7665,-2.7328,-2.7181,-2.7233,-2.7524,-2.7625,-2.7625,-2.7625,-2.7625,-2.7625,-2.7625,-2.7625,-2.766,-2.811,-2.84,-2.8826,-2.9777,-3.0617,-3.1343,-3.1985,-3.2195,-3.2378,-3.3103,-3.3336,-3.3401,-3.359,-3.3643,-3.3762,-3.389,-3.3962,-3.4375,-3.5585,-3.6629,-3.7713,-3.8927,-3.9906,-4.0573,-4.0694,-4.078,-4.0894,-4.113,-4.1836,-4.2339,-4.2466,-4.3838,-4.4596,-4.4381,-4.5745,-4.6339,-4.5856,-4.6412,-4.6274,-4.5305,-4.5389,-4.5952,-4.6997,-4.669,-4.7514,-4.9323,-4.9025,-4.9189,0.0,0.0,0.0,0.0,-1.8098,0.0,-1.8319,-1.8437,-1.8609,-1.8813,-1.824,-1.7784,-1.7784,-1.7784,-1.7784,-1.794,-1.8008,-1.8008,-1.8008,-1.8008,-1.8269,-1.9044,-2.002,-2.091,-2.169,-2.2567,-2.3078,-2.3078,-2.3078,-2.3078,-2.3078,-2.3078,-2.3078,-2.3078,-2.3078,-2.3078,-2.3078,-2.3078,-2.3198,-2.3305,-2.3826,-2.4478,-2.521,-2.5792,-2.6408,-2.7053,-2.7174,-2.696,-2.6407,-2.629,-2.6835,-2.7665,-2.7328,-2.7181,-2.7233,-2.7524,-2.7625,-2.7625,-2.7625,-2.7625,-2.7625,-2.7625,-2.7625,-2.7625,-2.7825,-2.8024,-2.8365,-2.9528,-3.0493,-3.1224,-3.1376,-3.141,-3.1611,-3.2336,-3.258,-3.2796,-3.3462,-3.3643,-3.3927,-3.4623,-3.4932,-3.5231,-3.5724,-3.7291,-3.8614,-3.904,-3.9991,-4.0694,-4.0761,-4.0885,-4.1231,-4.1972,-4.2153,-4.276,-4.4098,-4.4459,-4.504,-4.6052,-4.6235,-4.6372,-4.6657,-4.5978,-4.5512,-4.5287,-4.6011,-4.7372,-4.9404,-4.8493,-4.8555,-4.9521,-4.9509,-4.9571,0.0,0.0,0.0,-1.8779,0.0,0.0,0.0,-1.9243,-1.8967,-1.9212,-1.8432,-1.7706,-1.7588,-1.7588,-1.7657,-1.7794,-1.7862,-1.7862,-1.8008,-1.8269,-1.8721,-1.9233,-2.0344,-2.125,-2.1815,-2.258,-2.3017,-2.3078,-2.3078,-2.3078,-2.3078,-2.3078,-2.3078,-2.3078,-2.3078,-2.3078,-2.3078,-2.3078,-2.3078,-2.3078,-2.3424,-2.3744,-2.4086,-2.4671,-2.514,-2.5489,-2.5781,-2.5728,-2.5421,-2.5463,-2.5797,-2.6356,-2.664,-2.6959,-2.7233,-2.7524,-2.7625,-2.7625,-2.7625,-2.7625,-2.7625,-2.7625,-2.7625,-2.7625,-2.7675,-2.8008,-2.8527,-2.9528,-3.0326,-3.1002,-3.159,-3.1461,-3.1492,-3.2598,-3.2649,-3.2666,-3.3426,-3.3981,-3.4523,-3.5098,-3.6105,-3.6887,-3.7013,-3.8016,-3.9032,-3.9687,-4.0304,-4.0723,-4.0801,-4.0883,-4.1309,-4.219,-4.2607,-4.3322,-4.4595,-4.5252,-4.5837,-4.6369,-4.6491,-4.6401,-4.6102,-4.5599,-4.5323,-4.5383,-4.7106,-4.8451,-4.9305,-4.9293,-4.9515,-5.0027,-4.9792,-4.959,0.0,0.0,0.0,0.0,0.0,-2.0169,0.0,0.0,0.0,-1.9933,0.0,0.0,0.0,0.0,0.0,-1.7852,0.0,0.0,0.0,-1.8721,0.0,-1.9431,-2.0613,-2.1577,-2.1951,-2.2396,-2.2775,-2.3078,-2.2944,-2.2944,-2.3078,-2.3078,-2.3078,-2.3078,-2.3078,-2.3078,-2.3078,-2.3078,-2.3078,-2.3078,-2.3078,-2.3078,-2.309,-2.3615,-2.3841,-2.3828,-2.4343,-2.4572,-2.4546,-2.458,-2.4724,-2.4894,-2.5783,-2.6404,-2.6893,-2.7306,-2.7408,-2.7458,-2.756,-2.7625,-2.7625,-2.7625,-2.7625,-2.7625,-2.7625,-2.814,-2.8826,-2.9556,-3.014,-3.075,-3.182,-3.163,-3.1521,-3.2786,-3.2791,-3.2681,-3.3368,-3.4282,-3.5138,-3.5565,-3.7068,-3.8315,-3.8373,-3.8781,-3.9431,-4.0383,-4.0629,-4.0757,-4.0839,-4.1022,-4.1523,-4.244,-4.3202,-4.399,-4.4833,-4.5948,-4.649,-4.6225,-4.6633,-4.6427,-4.5356,-4.5435,-4.578,-4.6369,-4.8333,-4.9269,-4.8941,-4.9639,-5.0057,-5.0349,-4.9849,-4.9471,0.0,0.0,0.0,0.0,-2.1026,0.0,-2.1439,0.0,-2.0869,-2.0794,0.0,0.0,0.0,0.0,0.0,0.0,0.0,0.0,-1.8008,-1.9121,-1.9966,-2.0031,-2.0805,-2.1639,-2.2285,-2.2013,-2.2125,-2.3005,-2.2445,-2.2384,-2.3078,-2.3078,-2.3078,-2.3078,-2.3078,-2.3078,-2.3078,-2.3078,-2.3078,-2.3078,-2.3078,-2.3078,-2.3078,-2.314,-2.3165,-2.3238,-2.3286,-2.3286,-2.3286,-2.333,-2.3649,-2.4292,-2.5175,-2.5563,-2.5673,-2.651,-2.6788,-2.6893,-2.7408,-2.7625,-2.7625,-2.7625,-2.7625,-2.7625,-2.774,-2.8189,-2.8826,-2.9451,-3.0038,-3.0634,-3.1156,-3.1258,-3.1308,-3.1797,-3.2214,-3.2616,-3.3081,-3.4149,-3.5303,-3.6345,-3.7491,-3.8373,-3.8607,-3.9509,-4.0296,-4.0549,-4.0696,-4.0839,-4.0964,-4.165,-4.2451,-4.3279,-4.409,-4.4866,-4.5606,-4.6254,-4.649,-4.6225,-4.6633,-4.6427,-4.5356,-4.5857,-4.7297,-4.9609,-4.9415,-4.971,-5.0539,-5.0011,-4.9767,-4.9808,-4.959,-4.9411,0.0,0.0,0.0,0.0,0.0,0.0,-2.2186,0.0,-2.1416,0.0,0.0,0.0,0.0,0.0,0.0,0.0,-1.9166,0.0,0.0,0.0,-1.9966,-1.9507,0.0,0.0,-2.2555,-2.1951,-2.2002,-2.3005,-2.2384,-2.2261,-2.3078,-2.3078,-2.3078,-2.3078,-2.3078,-2.3078,-2.3078,-2.3078,-2.3078,-2.3078,-2.3078,-2.3078,-2.3078,-2.3078,-2.3078,-2.3078,-2.3078,-2.3078,-2.3078,-2.3078,-2.3245,-2.3543,-2.406,-2.4738,-2.5453,-2.6014,-2.6176,-2.6283,-2.6878,-2.71,-2.7152,-2.7473,-2.7625,-2.7625,-2.774,-2.8238,-2.8826,-2.9451,-3.0021,-3.0617,-3.1095,-3.119,-3.1329,-3.1896,-3.2299,-3.2805,-3.3858,-3.51,-3.6292,-3.7393,-3.8493,-3.9328,-3.9624,-4.0159,-4.0559,-4.0636,-4.081,-4.1116,-4.1627,-4.2012,-4.2739,-4.4061,-4.4451,-4.5085,-4.6174,-4.6339,-4.6439,-4.6592,-4.6194,-4.5979,-4.5992,-4.7135,-4.8363,-4.973,-5.0354,-5.0535,-5.0154,-4.9866,-4.959,-4.9411,-4.935,-4.9229,-2.2179,0.0,0.0,0.0,0.0,0.0,0.0,0.0,0.0,0.0,0.0,0.0,0.0,0.0,0.0,0.0,0.0,-1.9944,0.0,-2.0226,0.0,0.0,0.0,0.0,0.0,-2.1439,-2.1416,-2.2689,-2.2002,-2.2002,-2.3065,-2.3078,-2.3078,-2.3078,-2.3078,-2.3078,-2.3078,-2.3078,-2.3078,-2.3078,-2.3078,-2.3078,-2.3078,-2.3078,-2.3078,-2.3078,-2.3078,-2.3078,-2.3078,-2.3078,-2.3078,-2.3138,-2.333,-2.4015,-2.4951,-2.5342,-2.5522,-2.5687,-2.6244,-2.6563,-2.6788,-2.7408,-2.7625,-2.7625,-2.774,-2.8189,-2.8826,-2.9406,-3.0021,-3.0617,-3.1095,-3.119,-3.1351,-3.1986,-3.2508,-3.3161,-3.4419,-3.592,-3.7273,-3.8131,-3.9161,-4.0042,-4.0392,-4.0545,-4.063,-4.0723,-4.1101,-4.1563,-4.2146,-4.2639,-4.3377,-4.4568,-4.5041,-4.5542,-4.6205,-4.6437,-4.6518,-4.6457,-4.5929,-4.6085,-4.7092,-4.8457,-4.9446,-5.0031,-5.0905,-5.0805,-4.9708,-4.959,-4.9471,-4.9229,-4.9229,-4.9107,0.0,0.0,0.0,-2.3387,0.0,0.0,0.0,0.0,-2.2726,0.0,0.0,0.0,0.0,0.0,0.0,0.0,0.0,0.0,0.0,0.0,0.0,0.0,0.0,0.0,0.0,-2.002,-1.9879,-2.1815,-2.1101,-2.1353,-2.3005,-2.3078,-2.3078,-2.3078,-2.3078,-2.3078,-2.3078,-2.3078,-2.3078,-2.3078,-2.3078,-2.3078,-2.3078,-2.3078,-2.3078,-2.3078,-2.3078,-2.3078,-2.3078,-2.3078,-2.3078,-2.3138,-2.333,-2.3509,-2.3734,-2.4452,-2.4865,-2.5104,-2.5632,-2.6229,-2.6788,-2.7408,-2.7625,-2.7625,-2.7625,-2.8125,-2.8779,-2.9271,-2.9935,-3.0617,-3.1095,-3.119,-3.1291,-3.1733,-3.2757,-3.3802,-3.4294,-3.6229,-3.7944,-3.8235,-3.9229,-4.0119,-4.0516,-4.059,-4.0636,-4.0781,-4.163,-4.2271,-4.2288,-4.3715,-4.4705,-4.4692,-4.6085,-4.659,-4.5532,-4.6625,-4.6785,-4.5425,-4.603,-4.7148,-4.8676,-4.9661,-5.0605,-5.1602,-5.0929,-5.0254,-4.9708,-4.935,-4.9229,-4.9229,-4.9229,-4.9107,0.0,0.0,-2.3187,-2.4477,0.0,0.0,0.0,0.0,0.0,0.0,0.0,0.0,0.0,0.0,0.0,0.0,0.0,0.0,0.0,0.0,0.0,0.0,0.0,0.0,0.0,0.0,-2.0921,-2.1815,-2.1628,-2.1928,-2.3065,-2.3078,-2.3078,-2.3078,-2.3078,-2.3078,-2.3078,-2.3078,-2.3078,-2.3078,-2.3078,-2.3078,-2.3078,-2.3078,-2.3078,-2.3078,-2.3078,-2.3078,-2.3078,-2.3078,-2.3078,-2.3138,-2.3198,-2.339,-2.3628,-2.4041,-2.4274,-2.4563,-2.5467,-2.6443,-2.7306,-2.7509,-2.7625,-2.7625,-2.7625,-2.8304,-2.918,-2.9361,-3.0166,-3.1015,-3.1151,-3.1351,-3.1777,-3.2756,-3.3559,-3.4533,-3.6208,-3.7429,-3.8389,-3.9199,-3.9852,-4.0339,-4.0563,-4.0672,-4.0975,-4.1688,-4.2073,-4.2695,-4.3801,-4.4411,-4.4911,-4.5374,-4.5907,-4.6155,-4.5965,-4.5984,-4.581,-4.5337,-4.5964,-4.7323,-4.9491,-4.9925,-5.0642,-5.1674,-5.0911,-5.0198,-4.9547,-4.935,-4.9168,-4.9063,-4.9063,-4.8809,-2.3943,-2.382,0.0,-2.5285,-2.5094,0.0,-2.4486,0.0,-2.4221,0.0,0.0,0.0,0.0,0.0,0.0,0.0,0.0,0.0,0.0,-2.2197,0.0,0.0,0.0,0.0,0.0,-2.1187,-2.125,-2.1877,-2.1877,-2.2261,-2.3078,-2.3078,-2.3078,-2.3078,-2.3078,-2.3078,-2.3078,-2.3078,-2.3078,-2.3078,-2.3078,-2.3078,-2.3078,-2.3078,-2.3078,-2.3078,-2.3078,-2.3078,-2.3078,-2.3078,-2.3078,-2.3078,-2.3078,-2.3318,-2.3628,-2.376,-2.3936,-2.4274,-2.5412,-2.6322,-2.7034,-2.7458,-2.7625,-2.7625,-2.7625,-2.8448,-2.9406,-2.9406,-3.0251,-3.119,-3.119,-3.1654,-3.2379,-3.3389,-3.4497,-3.5739,-3.7415,-3.8347,-3.9097,-3.9806,-4.0194,-4.05,-4.0636,-4.1053,-4.1544,-4.2194,-4.2554,-4.3251,-4.4626,-4.5006,-4.5322,-4.5747,-4.5966,-4.6071,-4.6019,-4.5581,-4.5417,-4.5714,-4.6913,-4.8455,-5.0306,-5.0557,-5.0847,-5.1182,-5.0521,-4.9752,-4.9018,-4.911,-4.9046,-4.9001,-4.8956,-4.8489]}]]